[[{"header":{"parameterUnit":"m.s-1","parameterCategory":1,"la1":30.6,"la2":29.2853,"lo1":-89.7004,"lo2":-87.6739,"dx":0.0162,"dy":0.0183,"nx":112,"ny":82,"refTime":"2023-01-14T06:00:00:Z","depth":0,"parameterNumber":2,"parameterNumberName":"U-component_of_WINDS"},"data":[0.0,0.0,0.0,0.0,0.0,0.0,0.0,0.0,0.0,0.0,0.0,0.0,0.0,0.0,0.0,0.0,0.0,0.0,0.0,0.0,0.0,0.0,0.0,0.0,0.0,0.0,0.0,0.0,0.0,0.0,0.0,0.0,0.0,0.0,0.0,0.0,0.0,0.0,0.0,0.0,0.0,0.0,0.0,0.0,0.0,0.0,0.0,0.0,0.0,0.0,0.0,0.0,0.0,0.0,0.0,0.0,0.0,0.0,0.0,0.0,0.0,0.0,0.0,0.0,0.0,0.0,0.0,0.0,0.0,0.0,0.0,0.0,0.0,0.0,0.0,0.0,0.0,0.0,0.0,0.0,0.0,0.0,0.0,0.0,0.0,0.0,0.0,0.0,0.0,0.0,-6.0444,-6.3825,-6.6054,-6.6982,-6.6165,-6.5422,-6.2822,-5.7658,0.0,0.0,0.0,0.0,0.0,0.0,0.0,0.0,0.0,0.0,0.0,0.0,0.0,0.0,0.0,0.0,0.0,0.0,0.0,0.0,0.0,0.0,0.0,0.0,0.0,0.0,0.0,0.0,0.0,0.0,0.0,0.0,0.0,0.0,0.0,0.0,0.0,0.0,0.0,0.0,0.0,0.0,0.0,0.0,0.0,0.0,0.0,0.0,0.0,0.0,0.0,0.0,0.0,0.0,0.0,0.0,0.0,0.0,0.0,0.0,0.0,0.0,0.0,0.0,0.0,0.0,0.0,0.0,0.0,0.0,0.0,0.0,0.0,0.0,0.0,0.0,0.0,0.0,0.0,0.0,0.0,0.0,0.0,0.0,0.0,0.0,0.0,0.0,0.0,0.0,0.0,0.0,0.0,0.0,0.0,0.0,0.0,0.0,0.0,0.0,0.0,0.0,0.0,0.0,-5.8586,-6.5942,-6.7094,-6.6982,-6.6165,-6.5979,-6.323,-5.6878,0.0,0.0,0.0,0.0,0.0,0.0,0.0,0.0,0.0,0.0,0.0,0.0,0.0,0.0,0.0,0.0,0.0,0.0,0.0,0.0,0.0,0.0,0.0,0.0,0.0,0.0,0.0,0.0,0.0,0.0,0.0,0.0,0.0,0.0,0.0,0.0,0.0,0.0,0.0,0.0,0.0,0.0,0.0,0.0,0.0,0.0,0.0,0.0,0.0,0.0,0.0,0.0,0.0,0.0,0.0,0.0,0.0,0.0,0.0,0.0,0.0,0.0,0.0,0.0,0.0,0.0,0.0,0.0,0.0,0.0,0.0,0.0,0.0,0.0,0.0,0.0,0.0,0.0,0.0,0.0,0.0,0.0,0.0,0.0,0.0,0.0,0.0,0.0,0.0,0.0,0.0,0.0,0.0,0.0,0.0,0.0,0.0,0.0,0.0,0.0,0.0,0.0,0.0,-5.7881,-6.2264,-6.7428,-6.8333,-6.8258,-6.7465,-6.702,-6.3973,-5.736,-5.4983,0.0,0.0,0.0,0.0,0.0,0.0,0.0,0.0,0.0,0.0,0.0,0.0,0.0,0.0,0.0,0.0,0.0,0.0,0.0,0.0,0.0,0.0,0.0,0.0,0.0,0.0,0.0,0.0,0.0,0.0,0.0,0.0,0.0,0.0,0.0,0.0,0.0,0.0,0.0,0.0,0.0,0.0,0.0,0.0,0.0,0.0,0.0,0.0,0.0,0.0,0.0,0.0,0.0,0.0,0.0,0.0,0.0,0.0,0.0,0.0,0.0,0.0,0.0,0.0,0.0,0.0,0.0,0.0,0.0,0.0,0.0,0.0,0.0,0.0,0.0,0.0,0.0,0.0,0.0,0.0,0.0,0.0,0.0,0.0,0.0,0.0,0.0,0.0,0.0,0.0,0.0,0.0,0.0,0.0,0.0,0.0,0.0,0.0,0.0,0.0,0.0,0.0,-6.3899,-6.6959,-6.8853,-6.9447,-6.9373,-6.858,-6.7948,-6.4716,-5.7918,-5.5169,0.0,0.0,0.0,0.0,0.0,0.0,0.0,0.0,0.0,0.0,0.0,0.0,0.0,0.0,0.0,0.0,0.0,0.0,0.0,0.0,0.0,0.0,0.0,0.0,0.0,0.0,0.0,0.0,0.0,0.0,0.0,0.0,0.0,0.0,0.0,0.0,0.0,0.0,0.0,0.0,0.0,0.0,0.0,0.0,0.0,0.0,0.0,0.0,0.0,0.0,0.0,0.0,0.0,0.0,0.0,0.0,0.0,0.0,0.0,0.0,0.0,0.0,0.0,0.0,0.0,0.0,0.0,0.0,0.0,0.0,0.0,0.0,0.0,0.0,0.0,0.0,0.0,0.0,0.0,0.0,0.0,0.0,0.0,0.0,0.0,0.0,0.0,0.0,0.0,0.0,0.0,0.0,0.0,0.0,0.0,0.0,0.0,0.0,0.0,0.0,0.0,0.0,-6.5659,-7.0524,-7.071,-7.0115,-6.9373,-6.858,-6.8468,-6.5311,-5.7955,-5.5169,0.0,0.0,0.0,0.0,0.0,0.0,0.0,0.0,0.0,0.0,0.0,0.0,0.0,0.0,0.0,0.0,0.0,0.0,0.0,0.0,0.0,0.0,0.0,0.0,0.0,0.0,0.0,0.0,0.0,0.0,0.0,0.0,0.0,0.0,0.0,0.0,0.0,0.0,0.0,0.0,0.0,0.0,0.0,0.0,0.0,0.0,0.0,0.0,0.0,0.0,0.0,0.0,0.0,0.0,0.0,0.0,0.0,0.0,0.0,0.0,0.0,0.0,0.0,0.0,0.0,0.0,0.0,0.0,0.0,0.0,0.0,0.0,0.0,0.0,0.0,0.0,0.0,0.0,0.0,0.0,0.0,0.0,0.0,0.0,0.0,0.0,0.0,0.0,0.0,0.0,0.0,0.0,0.0,0.0,0.0,0.0,0.0,0.0,0.0,0.0,0.0,0.0,-6.2277,-6.654,0.0,-6.8901,-6.8816,-6.8518,-6.8481,-6.5162,-5.7249,0.0,0.0,0.0,0.0,0.0,0.0,0.0,0.0,0.0,0.0,0.0,0.0,0.0,0.0,0.0,0.0,0.0,0.0,0.0,0.0,0.0,0.0,0.0,0.0,0.0,0.0,0.0,0.0,0.0,0.0,0.0,0.0,0.0,0.0,0.0,0.0,0.0,0.0,0.0,0.0,0.0,0.0,0.0,0.0,0.0,0.0,0.0,0.0,0.0,0.0,0.0,0.0,0.0,0.0,0.0,0.0,0.0,0.0,0.0,0.0,0.0,0.0,0.0,0.0,0.0,0.0,0.0,0.0,0.0,0.0,0.0,0.0,0.0,0.0,0.0,0.0,0.0,0.0,0.0,0.0,0.0,0.0,0.0,0.0,0.0,0.0,0.0,0.0,0.0,0.0,0.0,0.0,0.0,0.0,0.0,0.0,0.0,0.0,0.0,0.0,0.0,0.0,-5.6319,-6.1447,-6.5495,0.0,-6.8294,-6.8481,-6.8481,-6.8481,-6.5125,-5.7175,0.0,0.0,0.0,0.0,0.0,0.0,0.0,0.0,0.0,0.0,0.0,0.0,0.0,0.0,0.0,0.0,0.0,0.0,0.0,0.0,0.0,0.0,0.0,0.0,0.0,0.0,0.0,0.0,0.0,0.0,0.0,0.0,0.0,0.0,0.0,0.0,0.0,0.0,0.0,0.0,0.0,0.0,0.0,0.0,0.0,0.0,0.0,0.0,0.0,0.0,0.0,0.0,0.0,0.0,0.0,0.0,0.0,0.0,0.0,0.0,0.0,0.0,0.0,0.0,0.0,0.0,0.0,0.0,0.0,0.0,0.0,0.0,0.0,0.0,0.0,0.0,0.0,0.0,0.0,0.0,0.0,0.0,0.0,0.0,0.0,0.0,0.0,0.0,0.0,0.0,0.0,0.0,0.0,0.0,0.0,0.0,0.0,0.0,0.0,0.0,0.0,0.0,-5.7514,-6.4259,-6.8788,-6.8788,-6.8627,-6.8506,-6.8506,-6.8506,-6.5348,0.0,0.0,0.0,0.0,0.0,0.0,0.0,0.0,0.0,0.0,0.0,0.0,0.0,0.0,0.0,0.0,0.0,0.0,0.0,0.0,0.0,0.0,0.0,0.0,0.0,0.0,0.0,0.0,0.0,0.0,0.0,0.0,0.0,0.0,0.0,0.0,0.0,0.0,0.0,0.0,0.0,0.0,0.0,0.0,0.0,0.0,0.0,0.0,0.0,0.0,0.0,0.0,0.0,0.0,0.0,0.0,0.0,0.0,0.0,0.0,0.0,0.0,0.0,0.0,0.0,0.0,0.0,0.0,0.0,0.0,0.0,0.0,0.0,0.0,0.0,0.0,0.0,0.0,0.0,0.0,0.0,0.0,0.0,0.0,0.0,0.0,0.0,0.0,0.0,0.0,0.0,0.0,0.0,0.0,0.0,0.0,0.0,0.0,0.0,0.0,0.0,0.0,0.0,-5.82,-6.4658,-6.9114,-6.9605,-6.9477,-6.9335,-6.9335,-6.8816,-6.5125,-5.7175,0.0,0.0,0.0,0.0,0.0,0.0,0.0,0.0,0.0,0.0,0.0,0.0,0.0,0.0,0.0,0.0,0.0,0.0,0.0,0.0,0.0,0.0,0.0,0.0,0.0,0.0,0.0,0.0,0.0,0.0,0.0,0.0,0.0,0.0,0.0,0.0,0.0,0.0,0.0,0.0,0.0,0.0,0.0,0.0,0.0,0.0,0.0,0.0,0.0,0.0,0.0,0.0,0.0,0.0,0.0,0.0,0.0,0.0,0.0,0.0,0.0,0.0,0.0,0.0,0.0,0.0,0.0,0.0,0.0,0.0,0.0,0.0,0.0,0.0,0.0,0.0,0.0,0.0,0.0,0.0,0.0,0.0,0.0,0.0,0.0,0.0,0.0,0.0,0.0,0.0,0.0,0.0,0.0,0.0,0.0,0.0,0.0,0.0,0.0,0.0,0.0,0.0,-5.7913,-6.4347,-6.8842,-6.9537,-6.9723,-6.9887,-7.0152,-6.9744,-6.6513,-5.9664,0.0,0.0,0.0,0.0,0.0,0.0,0.0,0.0,0.0,0.0,0.0,0.0,0.0,0.0,0.0,0.0,0.0,0.0,0.0,0.0,0.0,0.0,0.0,0.0,0.0,0.0,0.0,0.0,0.0,0.0,0.0,0.0,0.0,0.0,0.0,0.0,0.0,0.0,0.0,0.0,0.0,0.0,0.0,0.0,0.0,0.0,0.0,0.0,0.0,0.0,0.0,0.0,0.0,0.0,0.0,0.0,0.0,0.0,0.0,0.0,0.0,0.0,0.0,0.0,0.0,0.0,0.0,0.0,0.0,0.0,0.0,0.0,0.0,0.0,0.0,0.0,0.0,0.0,0.0,0.0,0.0,0.0,0.0,0.0,0.0,0.0,0.0,0.0,0.0,0.0,0.0,0.0,0.0,0.0,0.0,0.0,0.0,0.0,0.0,0.0,0.0,0.0,-5.7247,-6.3779,-6.8493,-6.9249,-6.9733,-7.0293,-7.0981,-7.0932,-6.8816,-6.4025,0.0,0.0,0.0,0.0,0.0,0.0,0.0,0.0,0.0,0.0,0.0,0.0,0.0,0.0,0.0,0.0,0.0,0.0,0.0,0.0,0.0,0.0,0.0,0.0,0.0,0.0,0.0,0.0,0.0,0.0,0.0,0.0,0.0,0.0,0.0,0.0,0.0,0.0,0.0,0.0,0.0,0.0,0.0,0.0,0.0,0.0,0.0,0.0,0.0,0.0,0.0,0.0,0.0,0.0,0.0,0.0,0.0,0.0,0.0,0.0,-5.734,0.0,0.0,0.0,0.0,0.0,0.0,0.0,0.0,0.0,0.0,0.0,0.0,0.0,0.0,0.0,0.0,0.0,0.0,0.0,0.0,0.0,0.0,0.0,0.0,0.0,0.0,0.0,0.0,0.0,0.0,0.0,0.0,0.0,0.0,0.0,0.0,0.0,0.0,0.0,0.0,0.0,-5.8717,-6.5371,-7.0335,-7.1545,-7.1199,-7.1204,-7.1898,-7.1292,-6.9076,-6.4805,-6.2227,0.0,0.0,0.0,0.0,0.0,0.0,0.0,0.0,0.0,0.0,0.0,0.0,0.0,0.0,0.0,0.0,0.0,0.0,0.0,0.0,0.0,0.0,0.0,0.0,0.0,0.0,0.0,0.0,0.0,0.0,0.0,0.0,0.0,0.0,0.0,0.0,0.0,0.0,0.0,0.0,0.0,0.0,0.0,0.0,0.0,0.0,0.0,0.0,0.0,0.0,0.0,0.0,0.0,0.0,0.0,0.0,0.0,0.0,0.0,0.0,-5.9478,0.0,0.0,0.0,0.0,0.0,0.0,0.0,0.0,0.0,0.0,0.0,0.0,0.0,0.0,0.0,0.0,0.0,0.0,0.0,0.0,0.0,0.0,0.0,0.0,0.0,0.0,0.0,0.0,0.0,0.0,0.0,0.0,0.0,0.0,0.0,0.0,0.0,0.0,0.0,0.0,-5.8509,-6.5904,-7.1124,-7.1395,-7.166,-7.1963,-7.2253,-7.1806,-7.0437,-6.7887,-6.4382,0.0,0.0,0.0,0.0,0.0,0.0,0.0,0.0,0.0,0.0,0.0,0.0,0.0,0.0,0.0,0.0,0.0,0.0,0.0,0.0,0.0,0.0,0.0,0.0,0.0,0.0,0.0,0.0,0.0,0.0,0.0,0.0,0.0,0.0,0.0,0.0,0.0,0.0,0.0,0.0,0.0,0.0,0.0,0.0,0.0,0.0,0.0,0.0,0.0,0.0,0.0,0.0,0.0,-6.1967,-6.3342,-6.4122,-6.4419,-6.6091,-6.8654,-6.5905,-6.5496,-6.6462,0.0,0.0,0.0,0.0,0.0,0.0,0.0,0.0,0.0,0.0,0.0,0.0,0.0,0.0,0.0,0.0,0.0,0.0,0.0,0.0,0.0,0.0,0.0,0.0,0.0,-6.5831,-6.7057,0.0,0.0,0.0,0.0,0.0,0.0,0.0,0.0,0.0,0.0,0.0,0.0,-5.9046,-6.6532,-7.1466,-7.0873,-7.1845,-7.2563,-7.2585,-7.2465,-7.2043,-7.1155,-6.6574,-6.2896,0.0,0.0,0.0,0.0,0.0,0.0,0.0,0.0,0.0,0.0,0.0,0.0,0.0,0.0,0.0,0.0,0.0,0.0,0.0,0.0,0.0,0.0,0.0,0.0,0.0,0.0,0.0,0.0,0.0,0.0,0.0,0.0,-5.0822,-5.1825,0.0,0.0,0.0,0.0,0.0,0.0,0.0,0.0,0.0,0.0,0.0,0.0,0.0,-5.9032,-6.141,-6.3156,-6.4322,-6.5065,-6.8147,-7.0066,-7.0983,-7.2332,-7.3595,-7.4673,-7.4227,0.0,-6.9113,-6.7887,0.0,0.0,0.0,0.0,0.0,0.0,0.0,0.0,0.0,0.0,0.0,0.0,0.0,0.0,0.0,0.0,0.0,0.0,0.0,0.0,0.0,0.0,-7.3855,-7.3855,-7.419,-7.4375,0.0,-6.65,-5.9588,-5.8447,-5.7464,0.0,0.0,0.0,0.0,0.0,0.0,0.0,-6.4248,-6.8849,-7.1889,-7.2371,-7.2548,-7.2878,-7.3303,-7.3332,-7.2954,-7.2084,-7.0623,-6.7776,-6.3305,-6.1373,0.0,0.0,0.0,0.0,0.0,0.0,0.0,0.0,0.0,0.0,0.0,0.0,0.0,0.0,0.0,0.0,0.0,0.0,0.0,0.0,0.0,0.0,0.0,0.0,0.0,0.0,0.0,0.0,0.0,-4.9447,-5.1862,-5.3125,-5.2642,-5.1639,0.0,0.0,0.0,0.0,0.0,0.0,0.0,0.0,0.0,-6.2079,-6.2576,-6.3988,-6.65,-6.8134,-6.936,-7.0177,-7.2518,-7.3855,-7.4264,-7.5479,-7.6223,-7.653,-7.7013,-7.6456,-7.497,-7.1849,-6.9917,-6.8803,0.0,0.0,0.0,0.0,-6.7033,-6.7428,-6.9992,-7.0846,0.0,0.0,0.0,0.0,0.0,0.0,0.0,0.0,0.0,0.0,0.0,0.0,0.0,-7.5341,-7.5787,-7.5706,-7.5309,-7.1571,-6.7494,0.0,-6.2922,-5.9786,-5.3514,0.0,0.0,0.0,0.0,-6.3395,-6.5619,-7.0043,-7.2756,-7.218,-7.2868,-7.3044,-7.2427,-7.2674,-7.2508,-7.1709,-7.1187,-6.993,-6.7776,-6.4828,-6.1113,0.0,0.0,0.0,0.0,0.0,0.0,0.0,0.0,0.0,0.0,0.0,0.0,0.0,0.0,0.0,0.0,0.0,0.0,0.0,0.0,0.0,0.0,0.0,0.0,0.0,0.0,0.0,0.0,-5.1565,-5.372,-5.4909,-5.5243,-5.4463,0.0,0.0,0.0,0.0,0.0,0.0,-6.089,-6.2859,-6.4791,-6.6648,-6.728,-6.8877,-7.1589,-7.2815,-7.3881,-7.4673,-7.627,-7.705,-7.7087,-7.8165,-7.8676,-7.8713,-7.9279,-7.9874,-8.0097,-7.5851,-7.4067,-7.3881,-7.1812,-7.0883,-7.0809,-7.1589,-7.1923,-7.2332,-7.5156,-7.6159,-7.5936,-7.4747,0.0,-7.2518,-6.9472,0.0,0.0,0.0,0.0,-7.0512,-7.3558,-7.3892,-7.4041,-7.6456,-7.6903,-7.6651,-7.6146,-7.5361,-7.3788,0.0,-6.835,-6.5129,-5.8362,0.0,0.0,0.0,0.0,-6.6602,-6.7796,-7.1482,-7.3483,-7.2149,-7.2926,-7.3047,-7.1863,-7.197,-7.1859,-7.1219,-7.1072,-7.0876,-7.0654,-6.7888,-6.5422,-6.3379,0.0,0.0,0.0,0.0,0.0,0.0,0.0,0.0,0.0,0.0,0.0,0.0,0.0,0.0,0.0,0.0,0.0,0.0,0.0,0.0,0.0,0.0,0.0,0.0,0.0,0.0,0.0,0.0,0.0,-5.8438,-5.9144,0.0,0.0,0.0,0.0,-6.0593,-6.2376,-6.4382,-6.676,-6.7725,-6.9323,-7.1763,-7.1875,-7.3473,-7.6706,-7.6817,-7.7263,-7.8053,-7.9688,-8.0431,-8.0505,-8.214,-8.2883,-8.2883,-8.292,-8.2957,-8.2809,-8.0208,-7.9131,-7.9019,-7.8128,-7.731,-7.6753,-7.757,-7.7868,-7.809,-7.9799,-8.0394,-8.0357,-8.0282,-7.8165,-7.5564,-7.5378,-7.3744,0.0,0.0,-7.5973,-7.7162,-7.9614,-8.0245,-8.0245,-8.0394,-7.9926,-7.9396,-7.9365,-7.6959,-7.431,0.0,-7.294,-7.1764,-6.682,0.0,-6.6707,-6.6938,-6.6952,-6.8568,-7.3027,-7.3834,-7.3694,-7.2816,-7.282,-7.2718,-7.2496,-7.1886,-7.1434,-7.1199,-7.1202,-7.0826,-6.9991,-7.0354,-6.9113,-6.5979,-6.3416,0.0,0.0,0.0,0.0,0.0,0.0,0.0,0.0,0.0,0.0,0.0,0.0,0.0,0.0,0.0,0.0,0.0,0.0,0.0,0.0,0.0,0.0,0.0,0.0,0.0,0.0,0.0,0.0,-5.8846,-5.9924,0.0,-6.0667,-6.1596,-6.3007,-6.4976,-6.8097,-7.0289,-7.118,-7.3001,-7.4673,-7.6074,-7.6148,-7.7162,-7.9391,-7.9428,-8.0097,-8.1434,-8.2028,-8.2288,-8.2326,-8.344,-8.396,-8.3997,-8.4518,-8.474,-8.4666,-8.3775,-8.2809,-8.1843,-8.1545,-8.0951,-8.0282,-8.058,-8.032,-7.9911,-8.0505,-8.0691,-8.0691,-8.0691,-7.9911,-7.9056,-7.9614,-7.9168,-7.8713,-7.9539,-7.9985,-8.032,-8.0617,-8.0691,-8.0691,-8.0691,-8.0154,-7.9458,-7.8996,-7.7626,-7.6191,-7.5228,-7.4319,-7.2655,-6.9351,-7.1115,-7.2129,-6.9565,-7.1362,-7.3413,-7.4537,-7.4291,-7.3694,-7.2886,-7.2395,-7.185,-7.1268,-7.1409,-7.1457,-7.1332,-7.1743,-7.2032,-7.2129,-7.1858,-7.118,-7.0029,-6.8617,-6.3913,0.0,0.0,0.0,0.0,0.0,0.0,0.0,0.0,0.0,0.0,0.0,0.0,0.0,0.0,0.0,0.0,0.0,0.0,0.0,0.0,0.0,0.0,0.0,0.0,0.0,0.0,-6.037,-5.9255,-6.1336,-6.2859,-6.2822,-6.5028,-6.728,-6.9211,-7.2369,-7.445,-7.5034,-7.6892,-7.8128,-7.8685,-7.8945,-7.9874,-8.1508,-8.1806,-8.2771,-8.4406,-8.4703,-8.5,-8.5298,-8.6078,-8.6449,-8.6486,-8.7007,-8.723,-8.723,-8.723,-8.6598,-8.5558,-8.4443,-8.3663,-8.318,-8.2883,-8.2251,-8.1545,-8.1545,-8.1545,-8.1545,-8.1545,-8.1545,-8.1657,-8.2214,-8.24,-8.24,-8.24,-8.24,-8.2251,-8.1694,-8.1363,-8.1148,-8.1148,-8.0392,-7.9491,-7.8999,-7.8338,-7.7677,-7.7187,-7.5701,-7.4062,-7.2431,-7.4456,-7.5007,-7.1155,-7.3611,-7.5309,-7.3729,-7.3799,-7.3694,-7.2886,-7.236,-7.1877,-7.1293,-7.0381,-7.04,-7.1759,-7.1155,-7.1442,-7.3037,-7.1198,-7.014,-7.014,-6.9583,-6.5659,-5.8306,0.0,0.0,0.0,0.0,0.0,0.0,0.0,0.0,0.0,0.0,0.0,0.0,0.0,0.0,0.0,0.0,0.0,0.0,0.0,0.0,0.0,0.0,0.0,-5.7843,-5.9069,-6.011,-6.011,-6.3676,-6.5534,-6.401,-6.7503,-7.0883,-7.3324,-7.5007,-7.6642,-7.8276,-7.9131,-7.9576,-7.9651,-8.0394,-8.162,-8.3329,-8.4109,-8.5298,-8.6932,-8.775,-8.8567,-8.9347,-9.0127,-9.0499,-9.0499,-9.0499,-9.0499,-9.0499,-9.0499,-9.0499,-9.0164,-8.7007,-8.5706,-8.5558,-8.4778,-8.3997,-8.3254,-8.3254,-8.3254,-8.3254,-8.3254,-8.3254,-8.3254,-8.3254,-8.3217,-8.3217,-8.3217,-8.3217,-8.3217,-8.3217,-8.2622,-8.2007,-8.2007,-8.0839,-7.9721,-7.9721,-7.912,-7.8574,-7.8574,-7.738,-7.6362,-7.6362,-7.6362,-7.5344,-7.2395,-7.3799,0.0,-7.1061,-7.2641,-7.3694,-7.2781,-7.2641,-7.2594,-7.2549,-6.8919,-6.8386,-7.2442,-6.9558,-6.9201,-7.2468,-6.8646,-6.6402,-6.6425,-6.6239,-6.5756,-6.4916,0.0,0.0,0.0,0.0,0.0,0.0,0.0,0.0,0.0,0.0,0.0,0.0,0.0,0.0,0.0,0.0,0.0,0.0,0.0,0.0,0.0,0.0,-6.0704,-6.0258,-6.2636,-6.4419,-6.4419,-6.5942,-6.7725,-6.9657,-7.1886,-7.4041,-7.5936,-7.809,-7.9539,-8.0022,-8.084,-8.1843,-8.2994,-8.3254,-8.448,-8.6709,-8.6969,-8.7898,-8.9496,-8.9719,-8.9942,-9.0164,-9.0387,-9.0499,-9.0499,-9.0499,-9.0499,-9.0499,-9.0499,-9.0499,-9.0424,-8.9496,-8.8418,-8.7378,-8.7155,-8.6152,-8.4852,-8.4257,-8.4443,-8.4852,-8.4257,-8.4443,-8.4815,-8.4257,-8.4072,-8.396,-8.3366,-8.3626,-8.3923,-8.3329,-8.3065,-8.2774,-8.215,-8.0839,-7.9721,-7.9721,-7.912,-7.8574,-7.8574,-7.8258,-7.7942,-7.7942,-7.7942,-7.7661,-7.6819,-7.724,0.0,-7.4958,-7.4747,-7.3659,-7.0639,-6.9305,-6.8817,-6.9386,-6.8398,-6.9177,-7.2513,-7.2863,-7.3579,-7.4982,-7.3854,-7.3185,-7.3149,-6.91,-6.7168,0.0,0.0,0.0,0.0,0.0,0.0,0.0,0.0,0.0,0.0,0.0,0.0,0.0,0.0,0.0,0.0,0.0,0.0,0.0,0.0,0.0,0.0,-6.1261,-6.297,-6.3676,-6.4791,-6.5831,-6.6537,-6.7911,-6.9843,-7.2469,-7.4513,-7.6307,-7.8007,-7.9725,-8.084,-8.1211,-8.2028,-8.3069,-8.4369,-8.5038,-8.6264,-8.8084,-8.8753,-8.9756,-9.1019,-9.1019,-9.1205,-9.1539,-9.1539,-9.1539,0.0,-9.1539,-9.1539,-9.1502,-9.113,-9.1205,0.0,0.0,0.0,0.0,0.0,-8.6709,-8.5521,-8.5038,-8.5223,-8.5521,-8.5038,-8.5223,-8.5521,-8.5038,-8.4889,-8.4815,-8.4332,-8.4518,-8.4778,-8.4332,-8.3761,-8.3178,-8.2669,-8.1337,-8.0197,-8.0197,-7.9899,-7.9557,-7.9557,0.0,0.0,-7.9557,-7.903,-7.8153,-7.6854,-7.7486,-7.731,-7.5133,-7.5274,-7.4747,-7.25,-7.1447,-7.1096,-7.1552,-7.0335,0.0,0.0,0.0,-7.3369,-7.3406,-7.366,0.0,0.0,0.0,-7.0252,-7.3112,0.0,0.0,0.0,-6.5125,-6.427,0.0,0.0,0.0,0.0,0.0,0.0,0.0,0.0,0.0,0.0,0.0,0.0,0.0,0.0,0.0,0.0,-6.4545,-6.577,-6.7354,-6.6364,-6.6091,-6.7651,-6.9917,-7.1998,-7.3632,-7.5973,-7.7979,-7.9502,-8.0394,-8.1211,-8.2066,0.0,0.0,0.0,0.0,-8.7304,-8.8344,-8.9867,-9.1056,-9.1836,-9.1836,-9.2245,-9.2988,-9.2988,-9.2951,-9.2839,-9.2839,-9.2802,-9.2653,-9.1985,-9.2208,-9.2839,-9.113,-9.0053,-8.9236,-8.7564,-8.6486,0.0,-8.5781,0.0,0.0,-8.5781,-8.5781,-8.5855,-8.5781,-8.5743,-8.5706,-8.5632,-8.5669,-8.5706,-8.5503,-8.4465,-8.3374,-8.3191,-8.1992,-8.0926,-8.0926,-8.0926,-8.0926,-8.0926,-8.0926,-8.0926,-8.0926,-7.9768,-7.7907,-7.5204,-7.6432,-7.6643,-7.3834,-7.5204,-7.6292,-7.5941,0.0,0.0,-7.5906,-7.3169,-7.2855,-7.6087,-7.3654,-7.1739,-7.0961,-7.1716,-7.2481,-7.3175,-7.2406,-7.4524,-7.9614,-7.8908,-7.8573,-7.8313,-6.7948,-6.5905,0.0,0.0,0.0,0.0,0.0,0.0,0.0,0.0,0.0,0.0,0.0,0.0,0.0,0.0,0.0,-6.4433,-6.6364,-6.811,-6.9076,-6.9521,-7.0103,-7.1106,-7.2815,-7.4524,-7.6196,-7.7979,-7.9428,-8.0394,-8.1248,-8.2103,-8.292,-8.3106,0.0,-8.5298,-8.6301,-8.7824,-9.0016,-9.0982,-9.191,-9.2728,0.0,0.0,-9.2988,-9.2988,-9.2616,-9.1948,-9.1948,-9.1576,-9.1019,-9.1502,-9.2208,-9.2839,-9.113,-9.0387,-9.0053,-8.8455,-8.775,-8.7527,-8.6821,-8.7007,-8.749,-8.6784,-8.7044,-8.749,-8.6784,-8.6561,0.0,-8.5781,-8.6078,-8.6289,-8.4977,-8.4419,-8.395,-8.2613,-8.1579,-8.0926,-8.0926,-8.0926,-8.0926,-8.0926,-8.0926,-8.0926,-8.0926,-8.0681,-8.0259,-7.9662,-7.9417,-7.889,-7.7626,-7.731,-7.6257,-7.3729,-7.2957,-7.2816,-7.3413,-7.2897,-7.36,-7.6116,-7.7413,-7.7976,-7.7788,-7.9111,-7.9576,-7.9056,-7.8871,-7.9354,-8.0468,-8.032,-8.0245,-8.0134,-7.6604,-7.5936,0.0,0.0,0.0,0.0,0.0,0.0,0.0,0.0,0.0,0.0,0.0,-6.1038,0.0,0.0,-6.5473,-6.7516,-6.889,-7.0115,-7.1366,-7.2592,-7.3372,-7.3398,-7.4848,-7.6642,-7.8685,-8.0022,-8.1248,-8.2437,-8.2586,-8.2957,-8.3737,-8.3775,-8.4332,-8.5558,-8.7192,-8.8827,-9.0462,-9.1725,-9.2579,-9.2988,-9.2988,-9.2988,-9.2988,-9.2988,-9.2765,-9.2356,-9.2356,-9.2133,-9.1762,-9.2171,-9.2356,-9.2245,-9.0982,-9.0499,-9.035,-8.9161,-8.8455,-8.8047,-8.7601,-8.775,-8.801,-8.7601,-8.775,-8.801,-8.7564,-8.7452,-8.7378,-8.6969,-8.7118,-8.7148,-8.5952,-8.5335,-8.4743,-8.3526,-8.2623,-8.205,-8.205,-8.205,-8.205,-8.205,-8.205,-8.205,-8.205,-8.205,-8.1804,-8.1032,-8.061,-8.0224,-7.9803,-7.9417,-7.8574,-7.7029,-7.6538,-7.6468,-7.6819,-7.6503,-7.6784,-7.7977,-7.9492,-8.0295,-8.0296,-8.1776,-8.24,-8.1954,-8.1545,-8.1323,-8.1323,-8.0914,-8.0691,-8.0691,-7.9874,-7.9725,0.0,0.0,0.0,0.0,0.0,0.0,0.0,0.0,-5.8698,-6.1277,-6.2376,-6.3713,-6.6537,-6.6611,-6.7391,-7.0846,-7.1515,-7.2146,-7.3632,-7.5118,-7.5936,-7.5564,-7.6865,-7.8611,-8.0728,-8.1731,-8.2846,-8.4295,-8.3775,-8.37,-8.4369,-8.4555,-8.5,-8.5818,-8.8084,-8.9681,-9.0499,-9.2171,-9.2988,-9.2988,-9.2988,-9.2988,-9.2988,-9.2988,-9.2802,-9.2505,-9.2356,-9.2282,-9.2282,-9.2431,-9.2096,-9.139,-9.0573,-9.0276,-9.0164,-8.9347,-8.8641,-8.8084,-8.8084,-8.8084,-8.8084,-8.8084,-8.8084,-8.8084,-8.8084,-8.8084,-8.8084,-8.8084,-8.8084,-8.7858,-8.6919,-8.6138,-8.5353,-8.4396,-8.3662,-8.3208,-8.3208,-8.3208,-8.3208,-8.3208,-8.3208,-8.3173,-8.2998,-8.2998,-8.2612,-8.1523,-8.1242,-8.1137,-8.1137,-8.0997,-8.0926,-8.0926,-8.0926,-8.0926,-8.0926,-8.0365,-8.0098,-8.0232,-8.0928,-8.1453,-8.1595,-8.2792,-8.3403,-8.3403,-8.2623,-8.2214,-8.2214,-8.1508,-8.1174,-8.1174,-8.1174,-8.11,-5.7918,0.0,0.0,-5.8921,-5.9346,-6.0682,0.0,0.0,-6.473,-6.7924,-6.8667,-6.9076,-7.0152,-7.092,-7.1763,-7.2927,-7.3707,-7.4487,-7.5378,-7.6344,-7.7422,-7.8796,-7.9725,-8.0691,-8.1731,-8.2586,-8.344,-8.4332,-8.4295,-8.4295,-8.4406,-8.5075,-8.5818,-8.6635,-8.8381,-8.9681,-9.0499,-9.2171,-9.2988,-9.2988,-9.2988,-9.2988,-9.2988,-9.2988,-9.2171,-9.0722,-9.0016,-8.9719,-8.9756,-9.0499,-9.0722,-9.0536,-8.9756,-8.9421,-8.9347,-8.853,-8.8158,-8.8084,-8.8084,-8.8084,-8.8084,-8.8084,-8.8084,-8.8084,-8.8084,-8.8084,-8.8084,-8.8084,-8.8084,-8.7725,-8.6174,-8.5695,-8.5237,-8.3705,-8.3297,-8.3208,-8.3208,-8.3208,-8.3208,-8.3208,-8.3208,-8.2998,-8.2331,-8.219,-8.2366,-8.2892,-8.2401,-8.1945,-8.1945,-8.1348,-8.0926,-8.0926,-8.0926,-8.0926,-8.0926,-8.0821,-8.1091,-8.1809,-8.2564,-8.3337,-8.4068,-8.4225,-8.4257,-8.4257,-8.3477,-8.3069,-8.3069,-8.2957,-8.292,-8.292,-8.292,-8.2511,-6.3193,0.0,0.0,0.0,-6.2725,-6.3356,-6.577,-6.5942,-6.6351,-6.9113,-7.0078,-7.066,-7.1515,-7.2332,-7.3175,0.0,-7.5193,-7.6186,-7.6493,-7.8053,-7.9428,-8.0097,-8.1768,-8.2994,-8.3366,-8.4109,-8.4926,-8.5743,-8.5372,-8.5521,-8.6486,-8.6375,-8.6895,-8.8195,-8.9384,-9.0387,-9.1205,-9.2393,-9.2988,-9.2988,-9.2988,-9.2988,-9.2988,-9.2468,-9.1613,-9.0462,-9.0127,-8.9979,-9.0016,-9.035,-9.0499,-9.0424,-8.9607,-8.931,-8.9198,-8.8381,-8.8084,-8.8084,-8.8084,-8.8084,-8.8084,-8.8084,-8.8084,-8.8084,-8.8084,-8.8084,-8.8084,-8.8084,-8.8084,-8.7693,-8.6028,-8.5619,-8.5198,-8.3576,-8.3208,-8.3208,-8.3208,-8.3208,-8.3068,-8.2647,-8.2541,-8.2296,-8.1523,-8.1769,-8.219,-8.2506,-8.2296,-8.2261,-8.2682,-8.2471,-8.2261,-8.2261,-8.2261,-8.2261,-8.2261,-8.1839,-8.1731,-8.2079,-8.2876,-8.3448,-8.3806,-8.4626,-8.5112,-8.5112,-8.4778,-8.4592,-8.4592,-8.4592,-8.4592,-8.4592,-8.4592,-8.4406,-6.4902,0.0,0.0,-6.4582,-6.5287,-6.5882,-6.6105,-6.6648,-6.7725,-6.9955,-7.0846,-7.1589,-7.2666,-7.3361,-7.4067,-7.5118,-7.6307,-7.7263,-7.7682,-7.9465,-8.0877,-8.1323,-8.3366,-8.4815,-8.5038,-8.5595,-8.6078,-8.6449,-8.6375,-8.6709,-8.7675,-8.7378,-8.7712,-8.8938,-8.9942,-9.0796,-9.1353,-9.2431,-9.2876,-9.2653,-9.2653,-9.2542,-9.2282,-9.1428,-9.0722,-9.0164,-9.0164,-9.0053,-8.9867,-9.009,-9.0053,-8.9793,-8.9198,-8.8976,-8.8901,-8.8307,-8.8084,-8.8084,-8.8084,-8.8084,-8.8084,-8.8084,-8.8084,-8.8084,-8.8084,-8.8084,-8.8084,-8.8084,-8.7958,-8.7427,-8.5992,-8.5429,-8.4924,-8.3532,-8.3208,-8.3208,-8.3208,-8.3208,-8.3033,-8.2506,-8.2401,-8.2155,-8.1383,-8.1699,-8.2085,-8.2085,-8.2085,-8.2366,-8.3103,-8.3208,-8.3208,-8.3208,-8.3208,-8.3208,-8.3208,-8.2717,-8.2497,-8.2721,-8.328,-8.3806,-8.4282,-8.5136,-8.5708,-8.5929,-8.5706,-8.5595,-8.5595,-8.5595,-8.5595,-8.5595,-8.5595,-8.5595,0.0,0.0,-6.3788,-6.4582,-6.6587,-6.8593,-6.9373,-6.9558,-7.0066,-7.1775,-7.2135,-7.2655,-7.4227,-7.4524,-7.5081,-7.678,-7.7078,-7.7608,-7.9205,-8.0134,-8.1285,-8.292,-8.4555,-8.5855,0.0,-8.6747,-8.6449,-8.5669,-8.7118,-8.7675,-8.6895,-8.7601,-8.8084,-8.8121,-8.9681,-9.0499,-9.0536,-9.2171,-9.2579,-9.1725,-9.1725,-9.1316,-9.0536,-8.9756,-8.9347,-8.9347,-8.9347,-8.8901,-8.8233,-8.9013,-8.8864,-8.8158,-8.8158,-8.8121,-8.8121,-8.8084,-8.8084,-8.8084,-8.8084,-8.8084,-8.8084,-8.8084,-8.8084,-8.8084,-8.8084,-8.8084,-8.8084,-8.8084,-8.753,-8.6746,-8.5844,-8.5003,-8.4225,-8.3393,-8.3208,-8.3208,-8.3208,-8.3208,-8.3208,-8.3173,-8.3173,-8.2928,-8.219,-8.205,-8.2085,-8.2085,-8.2085,-8.2366,-8.3103,-8.3208,-8.3208,-8.3208,-8.3208,-8.3208,-8.3208,-8.3173,-8.3497,-8.4272,-8.436,-8.5123,-8.6742,-8.6004,-8.5972,-8.6747,-8.6004,-8.5595,-8.5595,-8.5595,-8.5595,-8.5595,-8.5595,-8.5595,0.0,0.0,-6.5571,-6.6945,-6.8258,-6.9484,-7.0301,-7.1366,-7.2481,-7.3558,-7.3398,-7.3175,-7.3696,-7.4227,-7.4784,-7.5341,-7.7273,-7.9056,-8.0134,-8.1471,-8.2957,-8.4592,-8.5743,0.0,0.0,0.0,0.0,-8.7267,-8.7787,-8.8195,-8.8455,-8.8233,-8.8567,-8.9644,-8.9681,-8.9942,-9.0499,-9.1056,-9.1205,-9.0907,-9.0907,-9.0462,-8.9681,-8.9421,-8.9013,-8.8493,-8.8493,-8.8344,-8.8121,-8.8381,-8.8344,-8.8084,-8.8084,-8.8084,-8.8084,-8.8084,-8.8084,-8.8084,-8.8084,-8.8084,-8.8084,-8.8084,-8.8084,-8.8084,-8.8084,-8.8084,-8.799,-8.7464,-8.7127,-8.6569,-8.5159,-8.4599,-8.4184,-8.3393,-8.3208,-8.3208,-8.3208,-8.3208,-8.3068,-8.2577,-8.2471,-8.2225,-8.1453,-8.1734,-8.2261,-8.2752,-8.2822,-8.2928,-8.3173,-8.3208,-8.3208,-8.3208,-8.3208,-8.3208,-8.3208,-8.3208,-8.3341,-8.3576,-8.41,-8.4884,-8.5992,-8.6276,-8.6819,-8.7638,-8.7378,-8.7267,-8.7267,-8.7267,-8.7267,-8.7267,-8.7267,-8.7267,0.0,-6.5942,-6.7428,-6.936,-7.0215,-7.0883,-7.1961,-7.3075,-7.4041,-7.4858,-7.4179,-7.351,-7.3781,-7.4487,-7.5007,-7.5007,-7.7533,-7.9874,-8.0988,-8.2326,-8.3886,-8.5781,-8.6747,-8.7267,0.0,0.0,0.0,-8.7638,-8.7898,-8.8307,-8.8827,-8.8381,-8.8567,-8.9607,-8.9421,-8.9533,-9.0053,-9.035,-9.035,-9.0053,-8.9793,-8.9347,-8.8864,-8.8864,-8.8567,-8.8084,-8.8084,-8.8084,-8.8084,-8.8084,-8.8084,-8.8084,-8.8084,-8.8084,-8.8084,-8.8084,-8.8084,-8.8084,-8.8084,-8.8084,-8.8084,-8.8084,-8.8084,-8.8084,-8.8084,-8.8084,-8.7921,-8.7127,-8.6674,-8.6138,-8.4761,-8.4184,-8.384,-8.3306,-8.3208,-8.3208,-8.3208,-8.3208,-8.3068,-8.2577,-8.2717,-8.2752,-8.2261,-8.2577,-8.3068,-8.356,-8.3384,-8.3208,-8.3208,-8.3208,-8.3208,-8.3208,-8.3208,-8.3208,-8.3208,-8.3208,-8.3208,-8.3208,-8.3968,-8.4761,-8.5582,-8.6462,-8.7261,-8.8084,-8.8084,-8.8084,-8.8084,-8.8084,-8.8084,-8.8084,-8.8084,-8.8084,-6.6871,-6.7986,-6.9249,-7.1589,-7.2283,-7.2729,-7.4301,-7.4673,-7.4933,-7.5639,-7.4524,-7.3621,0.0,0.0,-7.5787,-7.5787,-7.8016,-8.032,-8.1954,-8.2883,-8.4257,0.0,0.0,0.0,0.0,0.0,0.0,-8.6932,0.0,-8.8084,-8.8084,-8.8084,-8.8084,-8.8084,-8.8827,-8.9236,-8.9236,-8.9979,-8.9979,-8.9236,-8.8455,-8.8084,-8.8084,-8.8084,-8.8084,-8.8084,-8.8084,-8.8084,-8.8084,-8.8121,-8.8158,-8.8158,-8.8158,-8.8158,-8.8158,-8.8121,-8.8084,-8.8084,-8.8084,-8.8084,-8.8084,-8.8084,-8.8084,-8.8084,-8.8084,-8.8053,-8.7858,-8.7056,-8.621,-8.5353,-8.4559,-8.3755,-8.3208,-8.3208,-8.3208,-8.3208,-8.3208,-8.3208,-8.3208,-8.3208,-8.3876,-8.4402,-8.4402,-8.4437,-8.4472,-8.4472,-8.3805,-8.3314,-8.3208,-8.3208,-8.3208,-8.3208,-8.3208,-8.3208,-8.3208,-8.3208,-8.3208,-8.3208,-8.3968,-8.4761,-8.5582,-8.6462,-8.7261,-8.8084,-8.8084,-8.8084,-8.8084,-8.8084,-8.8084,-8.8084,-8.8084,-8.8084,-6.702,-6.9249,-7.1403,-7.206,-7.3101,-7.4253,-7.5267,-7.5973,-7.6344,-7.5899,-7.4524,-7.3075,0.0,0.0,0.0,-7.5787,-7.9948,0.0,-8.4518,-8.5372,0.0,-8.7601,0.0,-8.8084,-8.8084,-8.8084,0.0,0.0,-8.7973,-8.8084,-8.8084,-8.8084,-8.8084,-8.8084,-8.8307,-8.8418,-8.8418,-8.8604,-8.8604,-8.8381,-8.8195,-8.8084,-8.8084,-8.8084,-8.8084,-8.8084,-8.8084,-8.8084,-8.8158,-8.8753,-8.8976,-8.8976,-8.8976,-8.8976,-8.8901,-8.8307,-8.8084,-8.8084,-8.8084,-8.8084,-8.8084,-8.8084,-8.8084,-8.8084,-8.8084,-8.766,-8.7022,-8.6174,-8.5353,-8.4518,-8.3748,-8.335,-8.3208,-8.3208,-8.3208,-8.3208,-8.3208,-8.3208,-8.3208,-8.3208,-8.3876,-8.4402,-8.4402,-8.4859,-8.521,-8.521,-8.5034,-8.4508,-8.3349,-8.3208,-8.3208,-8.3208,-8.3208,-8.3208,-8.3208,-8.3208,-8.3208,-8.3208,-8.3968,-8.4761,-8.5582,-8.6462,-8.7261,-8.8084,-8.8084,-8.8084,-8.8084,-8.8084,-8.8084,-8.8084,-8.8084,-8.8084,-6.9546,-7.1589,-7.3435,-7.4179,-7.5034,-7.5713,-7.5787,-7.6159,-7.6084,-7.4524,-7.3187,0.0,-7.0152,-7.3112,0.0,0.0,0.0,0.0,-8.5446,-8.6004,-8.6709,0.0,-8.8084,0.0,-8.8084,-8.8084,-8.8084,0.0,-8.8084,-8.8084,-8.8084,-8.8084,-8.8084,-8.8084,-8.8084,-8.8084,-8.8084,-8.8084,-8.8084,-8.8084,-8.8084,-8.8084,-8.8084,-8.8084,-8.827,-8.8604,0.0,-8.8493,-8.9161,-8.9273,-8.9496,-8.983,-8.983,-8.983,-8.9756,-8.931,-8.9161,-8.9161,-8.9161,-8.8901,-8.8567,-8.8195,-8.8084,-8.8084,-8.8084,-8.753,-8.6746,-8.5844,-8.5003,-8.4225,-8.3393,-8.3208,-8.3208,-8.3208,-8.3208,-8.3208,-8.3208,-8.3208,-8.3314,-8.3665,-8.4367,-8.4894,-8.4894,-8.5526,-8.5912,-8.5561,-8.5491,-8.5175,-8.4332,-8.3946,-8.3595,-8.3244,-8.3208,-8.3208,-8.3208,-8.3208,-8.3208,-8.3208,-8.3968,-8.4761,-8.5582,-8.6462,-8.7261,-8.8084,-8.8084,-8.8084,-8.8084,-8.8084,-8.8084,-8.8084,-8.8084,-8.8084,-7.2778,-7.4153,-7.5267,-7.6743,-7.7189,-7.7003,-7.601,-7.5713,-7.4896,-7.2369,0.0,-7.0227,-6.863,-7.2258,-7.5378,-7.5118,0.0,-8.3849,-8.5669,-8.5929,-8.6449,-8.7935,-8.8084,-8.8084,-8.8084,-8.8084,-8.8084,-8.8084,-8.8195,-8.827,-8.827,-8.8158,-8.8084,-8.8084,-8.8084,-8.8084,-8.8084,-8.8084,-8.8084,-8.8084,-8.8084,-8.8084,-8.8084,-8.8084,-8.853,-8.9273,0.0,0.0,-9.0462,-8.9867,-9.0016,-9.0647,-9.0647,-9.0647,-9.0647,-9.0536,-9.0499,-9.0499,-9.0499,-9.0053,-8.931,-8.853,-8.8195,-8.8084,-8.8084,-8.7464,-8.6569,-8.5807,-8.4924,-8.4058,-8.3393,-8.3208,-8.3208,-8.3208,-8.3208,-8.3208,-8.3208,-8.3208,-8.3419,-8.4121,-8.4859,-8.535,-8.535,-8.6017,-8.6333,-8.5736,-8.5666,-8.5631,-8.5526,-8.4859,-8.4156,-8.3454,-8.3279,-8.3208,-8.3208,-8.3208,-8.3208,-8.3208,-8.3968,-8.4761,-8.5582,-8.6462,-8.7261,-8.8084,-8.8084,-8.8084,-8.8084,-8.8084,-8.8084,-8.8084,-8.8084,-8.8084,-7.3075,-7.4996,-7.6743,-7.704,-7.757,-7.7682,-7.6159,-7.5267,0.0,0.0,-7.0004,-6.941,-6.78,-7.0958,-7.4662,-7.7236,-8.0765,-8.4257,-8.723,-8.7675,-8.775,0.0,-8.8084,-8.8084,-8.8084,-8.8084,0.0,0.0,0.0,-8.9087,-8.9087,-8.8455,-8.8084,-8.8084,-8.8084,-8.8084,-8.8084,-8.8084,-8.8084,-8.8084,-8.8084,-8.8084,-8.8084,-8.8084,-8.853,-8.9273,0.0,0.0,-9.0536,-9.1056,-9.1353,-9.1502,-9.1502,-9.1502,-9.1428,-9.0759,-9.0499,-9.0499,-9.0499,-9.0424,-9.0164,-8.9347,-8.8641,-8.8084,-8.8084,-8.7056,-8.5807,-8.5657,-8.4559,-8.3393,-8.3253,-8.3208,-8.3208,-8.3208,-8.3208,-8.3208,-8.3208,-8.3208,-8.3244,-8.3384,-8.4051,-8.4613,-8.4613,-8.521,-8.5877,-8.6403,-8.6509,-8.6263,-8.5596,-8.4859,-8.4367,-8.4227,-8.3595,-8.3208,-8.3208,-8.3208,-8.3208,-8.3208,-8.3968,-8.4761,-8.5582,-8.6462,-8.7261,-8.8084,-8.8084,-8.8084,-8.8084,-8.8084,-8.8084,-8.8084,-8.8084,-8.8084,-7.419,-7.5824,-7.7226,-7.7635,-7.7979,-7.7533,-7.4625,0.0,0.0,0.0,-6.7813,-6.7924,-6.6314,-6.9694,0.0,-7.4885,-7.9316,-8.3254,-8.5261,-8.7007,0.0,-8.8084,-8.8455,-8.8567,0.0,-8.8493,0.0,0.0,0.0,-8.8678,-8.8678,-8.8307,-8.8084,-8.8084,-8.8084,-8.8084,-8.8084,-8.8084,-8.8084,-8.8084,-8.8084,-8.8307,-8.8716,-8.8716,-8.9384,-9.0536,-9.009,0.0,-9.1799,-9.1725,-9.1688,-9.1762,-9.2208,-9.2096,-9.1725,-9.1762,-9.1799,-9.1799,-9.1799,-9.1242,-9.0499,-9.0536,-8.9719,-8.8641,-8.8233,-8.6917,-8.5619,-8.5619,-8.4437,-8.3208,-8.3208,-8.3208,-8.3208,-8.3208,-8.3208,-8.3208,-8.3208,-8.3208,-8.3208,-8.3208,-8.3876,-8.4297,-8.3876,-8.4718,-8.5491,-8.5491,-8.5842,-8.5947,-8.5561,-8.4859,-8.4262,-8.384,-8.3454,-8.3208,-8.3208,-8.3208,-8.3208,-8.3208,-8.3532,-8.4314,-8.5544,-8.5992,-8.6813,-8.8084,-8.8084,-8.8084,-8.8084,-8.8084,-8.8084,-8.8084,-8.8084,-8.8084,-7.5453,-7.6679,-7.7496,-7.8128,-7.8276,-7.7273,-7.3361,-7.2184,0.0,0.0,-6.6277,-6.6685,-6.5547,-6.8654,-7.1652,0.0,-7.6902,-8.1063,-8.292,-8.5558,-8.749,0.0,-8.8641,0.0,-8.8381,0.0,0.0,0.0,0.0,0.0,-8.8084,-8.827,-8.827,-8.8084,-8.8084,-8.8084,-8.8084,-8.8084,-8.8084,-8.8084,-8.8084,-8.853,-8.931,-8.931,-9.0164,-9.165,-9.1019,0.0,0.0,-9.2245,-9.1985,-9.2059,-9.2728,-9.2579,-9.2059,-9.2728,-9.2988,-9.2951,-9.2802,-9.1873,-9.0796,-9.1093,-9.0313,-8.9161,-8.853,-8.7211,-8.5837,-8.5656,-8.4437,-8.3208,-8.3208,-8.3208,-8.3208,-8.3208,-8.3208,-8.3208,-8.3208,-8.3208,-8.3208,-8.3208,-8.3735,-8.3946,-8.3314,-8.4192,-8.4859,-8.4472,-8.4894,-8.5245,-8.5245,-8.4753,-8.4121,-8.3314,-8.3208,-8.3208,-8.3208,-8.3208,-8.3208,-8.3208,-8.335,-8.41,-8.5544,-8.577,-8.6567,-8.8053,-8.8084,-8.8084,-8.8084,-8.8084,-8.8084,-8.8084,-8.8084,-8.8084,-7.652,-7.757,-7.8202,-7.8276,-7.8276,-7.7422,-7.4067,0.0,-7.0264,-6.7614,-6.6611,-6.6388,-6.6982,-6.806,-6.9806,0.0,0.0,-7.7125,-8.2437,-8.4072,-8.5558,-8.7824,0.0,0.0,0.0,0.0,0.0,0.0,0.0,0.0,-8.8121,-8.879,-8.8827,-8.8121,-8.8084,-8.8084,-8.8084,-8.8084,-8.8084,-8.8084,-8.8084,-8.853,-8.931,-8.931,-9.0164,-9.1688,-9.1613,0.0,0.0,-9.2914,-9.2876,-9.2876,-9.2951,-9.2951,-9.2876,-9.2951,-9.2988,-9.2876,-9.2096,-9.1725,-9.1353,-8.9979,-8.9421,-8.9273,-8.9198,-8.809,-8.6635,-8.5801,-8.4437,-8.3208,-8.3208,-8.3208,-8.3208,-8.3208,-8.3208,-8.3208,-8.3208,-8.3208,-8.3208,-8.3208,-8.3279,-8.3314,-8.3208,-8.3314,-8.363,-8.4297,-8.4472,-8.4508,-8.4508,-8.4437,-8.4121,-8.3314,-8.3208,-8.3208,-8.3208,-8.3208,-8.3208,-8.3208,-8.3883,-8.468,-8.5582,-8.6354,-8.7194,-8.8084,-8.8084,-8.8084,-8.8084,-8.8084,-8.8084,-8.8084,-8.8084,-8.8084,-7.652,-7.7682,-7.8276,-7.8276,-7.7533,-7.6047,-7.3324,0.0,-6.9484,-6.7094,-6.6722,-6.6945,-6.7243,-6.7986,-6.8951,0.0,0.0,0.0,-7.6976,0.0,-8.2549,-8.5521,0.0,0.0,0.0,0.0,0.0,0.0,0.0,0.0,-8.8121,-8.8381,-8.8418,-8.8084,-8.8084,-8.8084,-8.8084,-8.8084,-8.8084,-8.8084,-8.8084,-8.879,-9.0016,-9.0016,-9.0907,-9.2468,-9.2468,0.0,0.0,-9.2431,-9.191,-9.1502,-9.1502,-9.1205,-9.0833,-9.1316,-9.1502,-9.1428,-9.1093,-9.0647,-9.0239,-9.0053,-8.9387,-8.8468,-8.7988,-8.7044,-8.5942,-8.5111,-8.4058,-8.3208,-8.3208,-8.3208,-8.3208,-8.3208,-8.3208,-8.3208,-8.3208,-8.3208,-8.3208,-8.3208,-8.3208,-8.3208,-8.3208,-8.3208,-8.3314,-8.363,-8.37,-8.37,-8.37,-8.37,-8.356,-8.3244,-8.3208,-8.3208,-8.3208,-8.3208,-8.3208,-8.3208,-8.3524,-8.4267,-8.5544,-8.5918,-8.6744,-8.8084,-8.8084,-8.8084,-8.8084,-8.8084,-8.8084,-8.8084,-8.8084,-8.8084,-7.6159,-7.7496,-7.8351,-7.8573,-7.7199,-7.5267,0.0,0.0,-6.915,-6.7205,-6.7094,-6.7391,-6.7614,-6.8134,-6.8481,0.0,0.0,-7.2741,-7.393,-7.6728,0.0,0.0,0.0,0.0,0.0,0.0,0.0,0.0,0.0,0.0,0.0,-8.8084,-8.8084,-8.8084,-8.8084,-8.8084,-8.8084,-8.8084,-8.8195,-8.8455,-8.8455,-8.931,-9.0833,-9.0833,-9.165,-9.2988,0.0,0.0,0.0,-9.2059,-9.1353,-9.0833,-9.0573,-9.0164,-8.9719,-9.0276,-9.0499,-9.0462,-9.0239,-8.9756,-8.9347,-8.9681,-8.8856,-8.7584,-8.6787,-8.61,-8.5484,-8.463,-8.3798,-8.3208,-8.3208,-8.3208,-8.3208,-8.3208,-8.3208,-8.3279,-8.3524,-8.356,-8.356,-8.356,-8.356,-8.3489,-8.3244,-8.3208,-8.3208,-8.3208,-8.3208,-8.3208,-8.3208,-8.3208,-8.3208,-8.3208,-8.3208,-8.3208,-8.3208,-8.3208,-8.3208,-8.3208,-8.3437,-8.4184,-8.5544,-8.5844,-8.6674,-8.8053,-8.8084,-8.8084,-8.8084,-8.8084,-8.8084,-8.8084,-8.8084,-8.8084,-7.5564,-7.7013,-7.8462,-7.9279,-7.7608,-7.5564,0.0,0.0,-6.9447,-6.863,-6.7874,-6.754,-6.8333,-6.8481,-6.8481,0.0,0.0,0.0,0.0,0.0,0.0,0.0,0.0,0.0,0.0,0.0,0.0,0.0,0.0,0.0,0.0,-8.8084,-8.8084,-8.8084,-8.8084,-8.8084,-8.8084,-8.8084,-8.8493,-8.9273,-8.9273,-9.0127,-9.1688,-9.1688,-9.2171,0.0,0.0,0.0,0.0,-9.2059,-9.1688,-9.1613,-9.0796,-9.0499,-9.0499,-9.0499,-9.0499,-9.0387,-8.957,-8.931,-8.9161,-8.8381,-8.7563,-8.6746,-8.5881,-8.5657,-8.5508,-8.4646,-8.3798,-8.3208,-8.3208,-8.3208,-8.3208,-8.3208,-8.3208,-8.3419,-8.4227,-8.4402,-8.4402,-8.4402,-8.4402,-8.4156,-8.3349,-8.3208,-8.3208,-8.3208,-8.3208,-8.3208,-8.3208,-8.3208,-8.3208,-8.3208,-8.3208,-8.3208,-8.3208,-8.3208,-8.3208,-8.3208,-8.3968,-8.4725,-8.5582,-8.6462,-8.7261,-8.8084,-8.8084,-8.8084,-8.8084,-8.8084,-8.8084,-8.8084,-8.8084,-8.8084,-7.3632,-7.4524,-7.5007,-7.5294,-7.3892,-7.2406,-7.2146,0.0,-6.8816,-6.8556,-6.832,-6.8208,-6.8468,-6.8481,-6.8853,-6.9967,0.0,0.0,0.0,0.0,0.0,0.0,0.0,0.0,0.0,0.0,0.0,0.0,0.0,0.0,0.0,-8.8084,-8.8084,-8.8084,-8.8084,-8.8084,-8.8084,-8.8641,-8.905,-8.931,-8.9867,-9.0685,-9.1688,-9.1688,0.0,0.0,0.0,0.0,0.0,-9.1465,-9.087,-9.0759,-8.9384,-8.8864,-8.8864,-8.8864,-8.8864,-8.8827,-8.8567,-8.8493,-8.8418,-8.8158,-8.7157,-8.5955,-8.5695,-8.5222,-8.4629,-8.3819,-8.3393,-8.3208,-8.3208,-8.363,-8.4016,-8.4016,-8.4402,-8.4859,-8.5104,-8.5139,-8.5139,-8.5139,-8.5139,-8.5069,-8.4823,-8.4788,-8.4788,-8.4788,-8.4788,-8.4788,-8.4788,-8.4332,-8.4016,-8.4016,-8.3524,-8.3208,-8.3208,-8.3208,-8.3208,-8.3208,-8.3437,-8.3968,-8.4761,-8.5582,-8.639,-8.7261,-8.7826,-8.8084,-8.8084,-8.8084,-8.8084,-8.8084,-8.8084,-8.8381,0.0,-7.2666,-7.3473,-7.3781,-7.2369,0.0,0.0,0.0,0.0,-6.8481,-6.8481,-6.8407,-6.8073,-6.832,-6.8704,0.0,0.0,0.0,0.0,0.0,0.0,0.0,0.0,0.0,0.0,0.0,0.0,0.0,0.0,0.0,0.0,0.0,-8.8084,-8.8084,-8.8084,-8.8233,-8.853,-8.905,-8.9607,-9.0202,-9.0722,-9.139,-9.2171,-9.2171,0.0,0.0,0.0,0.0,0.0,-9.1056,-9.0313,-8.9904,-8.8604,-8.8084,-8.8084,-8.8084,-8.8084,-8.8084,-8.8084,-8.8084,-8.8053,-8.7762,-8.6497,-8.5081,-8.4801,-8.4314,-8.384,-8.335,-8.3208,-8.3208,-8.3208,-8.3805,-8.4402,-8.4402,-8.4964,-8.5596,-8.5877,-8.5947,-8.5947,-8.5947,-8.5947,-8.5877,-8.5561,-8.5491,-8.5491,-8.5491,-8.5491,-8.5491,-8.5491,-8.5104,-8.4823,-8.4823,-8.4367,-8.4086,-8.4086,-8.3524,-8.3208,-8.3208,-8.3208,-8.3705,-8.4805,-8.5353,-8.6138,-8.7328,-8.7826,-8.8084,-8.8084,-8.8084,-8.827,-8.853,-8.853,-8.8976,0.0,0.0,0.0,0.0,0.0,0.0,0.0,0.0,0.0,-6.8481,-6.8481,-6.8296,-6.7614,-6.8023,-6.8296,0.0,0.0,0.0,0.0,0.0,0.0,0.0,0.0,0.0,0.0,0.0,0.0,0.0,0.0,0.0,0.0,0.0,-8.8084,-8.8084,-8.8158,-8.853,-8.9273,-8.9347,-9.0164,-9.1688,-9.1762,-9.2208,-9.2988,-9.2988,0.0,0.0,0.0,0.0,0.0,-9.087,-9.0053,-8.931,-8.8418,-8.8084,-8.8084,-8.8084,-8.8084,-8.8084,-8.8084,-8.8084,-8.7958,-8.7056,-8.5731,-8.4267,-8.3508,-8.3244,-8.3208,-8.3208,-8.3208,-8.3208,-8.3279,-8.3876,-8.4508,-8.4578,-8.5139,-8.5877,-8.6614,-8.679,-8.679,-8.679,-8.679,-8.6544,-8.5807,-8.5666,-8.5666,-8.5666,-8.5666,-8.5666,-8.5666,-8.5631,-8.5596,-8.5596,-8.5526,-8.5491,-8.5491,-8.4156,-8.3314,-8.3314,-8.3244,-8.3883,-8.5468,-8.5618,-8.6463,-8.8064,-8.8201,-8.827,-8.827,-8.827,-8.8641,-8.931,-8.931,-8.9681,0.0,0.0,0.0,0.0,0.0,0.0,0.0,0.0,-6.8481,-6.8481,-6.8481,-6.8654,-6.9038,-6.8778,0.0,0.0,0.0,0.0,0.0,0.0,0.0,0.0,0.0,0.0,0.0,0.0,0.0,0.0,0.0,0.0,0.0,0.0,-8.8084,-8.8084,-8.8678,-8.9124,-8.931,-8.9904,-9.0722,-9.1725,-9.2393,-9.2802,-9.2988,-9.2988,0.0,0.0,0.0,0.0,-9.2579,-9.1093,-9.0387,-9.009,-8.8641,-8.8084,-8.8084,-8.8084,-8.8084,-8.8084,-8.8084,-8.8084,-8.7858,-8.639,-8.5198,-8.4373,-8.4177,-8.37,-8.3208,-8.3208,-8.3208,-8.3349,-8.3981,-8.4683,-8.542,-8.6017,-8.6754,-8.7386,-8.7562,-8.7597,-8.7597,-8.7597,-8.7597,-8.7527,-8.7351,-8.7316,-8.7316,-8.7316,-8.7316,-8.7316,-8.7316,-8.679,-8.6439,-8.6439,-8.5877,-8.5491,-8.5491,-8.4648,-8.4121,-8.4121,-8.356,-8.3662,-8.464,-8.5928,-8.7048,-8.8081,-8.9313,-8.9942,-8.9942,-8.9942,-8.9719,-8.931,-8.931,-8.9384,0.0,0.0,0.0,0.0,0.0,0.0,0.0,0.0,0.0,-6.8481,-6.8481,-6.8518,-6.8593,-6.9769,0.0,0.0,-7.393,0.0,0.0,0.0,0.0,0.0,0.0,0.0,0.0,0.0,0.0,0.0,0.0,0.0,0.0,0.0,-8.827,-8.8641,-8.905,-8.9459,-8.983,-9.0647,-9.1465,-9.2282,-9.2765,-9.2988,-9.2988,-9.2988,0.0,0.0,0.0,0.0,-9.1762,-9.087,-9.0053,-8.931,-8.8418,-8.8084,-8.8084,-8.8084,-8.8084,-8.8084,-8.8084,-8.7595,-8.6744,-8.5468,-8.4518,-8.3932,-8.4121,-8.3751,-8.3349,-8.4051,-8.4016,-8.3946,-8.4718,-8.521,-8.5701,-8.6509,-8.7316,-8.7925,-8.7925,-8.7925,-8.7925,-8.7925,-8.7925,-8.7925,-8.7925,-8.7925,-8.7925,-8.7925,-8.7925,-8.7925,-8.7925,-8.7492,-8.7246,-8.7246,-8.686,-8.6579,-8.6579,-8.5912,-8.5315,-8.4929,-8.4508,-8.4626,-8.5496,-8.6347,-8.7394,-8.8575,-8.9843,-9.0313,-8.9942,-8.9942,-8.9719,-8.931,-8.931,-8.9496,0.0,0.0,-6.7577,-6.7205,-6.7837,-6.8481,-6.8481,0.0,0.0,-6.8481,-6.8481,-6.8506,0.0,-7.092,0.0,0.0,0.0,0.0,0.0,0.0,0.0,0.0,0.0,0.0,0.0,0.0,0.0,0.0,0.0,0.0,0.0,0.0,0.0,-8.9273,-8.9533,-8.9979,-9.0685,-9.1353,-9.2133,-9.2988,-9.2988,-9.2988,-9.2988,-9.2988,-9.2988,0.0,0.0,0.0,-9.0685,-9.0536,-8.9607,-8.827,-8.8158,-8.8084,-8.8084,-8.8084,-8.8084,-8.8084,-8.799,-8.6882,-8.5468,-8.4783,-8.3975,-8.347,-8.4075,-8.3886,-8.3751,-8.5234,-8.4919,-8.4437,-8.528,-8.542,-8.5596,-8.6649,-8.7281,-8.7738,-8.789,-8.7925,-8.7925,-8.7925,-8.7925,-8.789,-8.7749,-8.7749,-8.7749,-8.7749,-8.7749,-8.7784,-8.789,-8.7925,-8.7925,-8.7925,-8.7925,-8.7925,-8.7925,-8.7281,-8.6579,-8.5912,-8.5631,-8.5976,-8.6958,-8.7217,-8.8064,-8.953,-9.0324,-9.035,-8.9681,-8.9533,-8.9421,-8.931,-8.931,-8.9607,-6.5348,-6.7503,-6.8816,-6.6797,-6.7391,-6.8481,-6.8481,-6.8481,0.0,0.0,0.0,0.0,0.0,-7.2295,-7.2555,0.0,0.0,0.0,0.0,0.0,0.0,0.0,0.0,0.0,0.0,0.0,0.0,0.0,0.0,0.0,0.0,0.0,0.0,-8.931,-9.061,-9.139,-9.1502,-9.165,-9.2133,-9.2988,-9.2988,-9.2988,-9.2988,-9.2988,-9.2988,0.0,0.0,-9.2431,-9.1465,-9.0796,-8.9942,-8.905,-8.8381,-8.8084,-8.8084,-8.8084,-8.8084,-8.8021,-8.7295,-8.6426,-8.5538,-8.5186,-8.4529,-8.4075,-8.5274,-8.5123,-8.4751,-8.5858,-8.4817,-8.3735,-8.5139,-8.5034,-8.5104,-8.7176,-8.7281,-8.707,-8.7738,-8.7925,-8.7925,-8.7925,-8.7925,-8.7667,-8.7,-8.6895,-8.6895,-8.6895,-8.6895,-8.7141,-8.7819,-8.7925,-8.7925,-8.7925,-8.7925,-8.7925,-8.7925,-8.7819,-8.7632,-8.7527,-8.6228,-8.6223,-8.775,-8.9177,-9.0374,-9.129,-9.1472,-9.1465,-9.1316,-9.0647,-8.9979,-8.931,-8.931,-8.9013,-6.4531,-6.6239,-6.78,-6.8023,-7.0252,-7.2444,-7.2444,-7.2444,-7.2184,0.0,0.0,0.0,0.0,0.0,-7.731,-8.2697,0.0,0.0,0.0,0.0,0.0,0.0,0.0,0.0,0.0,0.0,0.0,0.0,0.0,0.0,0.0,0.0,0.0,0.0,-9.0685,-9.1502,-9.2393,-9.2393,-9.2579,-9.2988,-9.2505,-9.2542,-9.2988,-9.2505,-9.2542,-9.2988,0.0,-9.2245,-9.1019,-9.0647,-8.9756,-8.8604,-8.8233,-8.8084,-8.8158,-8.8567,-8.8456,-8.7992,-8.7192,-8.6346,-8.5446,-8.4415,-8.4159,-8.4386,-8.5275,-8.5066,-8.4809,-8.5962,-8.5006,-8.3906,-8.5164,-8.5245,-8.528,-8.6333,-8.6965,-8.7316,-8.7246,-8.7562,-8.7925,-8.7925,-8.7527,-8.7141,-8.6754,-8.6333,-8.6052,-8.6052,-8.6052,-8.6193,-8.6544,-8.6965,-8.7246,-8.7246,-8.7632,-8.7925,-8.7925,-8.7925,-8.7925,-8.7925,-8.7176,-8.6949,-8.7294,-8.8923,-8.9745,-8.971,-9.0603,-9.0833,-9.0387,-9.0016,-8.9421,-8.8641,-8.8641,-8.8455,-6.4382,-6.5682,-6.7503,-6.9732,-7.2221,-7.4375,-7.5527,-7.5341,-7.4747,-7.4104,-7.4115,0.0,0.0,-7.8425,0.0,0.0,0.0,0.0,0.0,0.0,0.0,0.0,0.0,0.0,0.0,0.0,0.0,0.0,0.0,0.0,0.0,0.0,0.0,0.0,-9.087,-9.1688,-9.2988,-9.2988,-9.2988,-9.2988,-9.2133,-9.2171,-9.2951,-9.2096,-9.2171,-9.2988,-9.2988,-9.2059,-9.0499,-9.0499,-8.9533,-8.8084,-8.8084,-8.8195,-8.8418,-8.8864,-8.8631,-8.7989,-8.7154,-8.6341,-8.5442,-8.4273,-8.4347,-8.4968,-8.5461,-8.524,-8.4947,-8.6009,-8.5333,-8.4505,-8.555,-8.5631,-8.5596,-8.5982,-8.686,-8.7492,-8.707,-8.7457,-8.7925,-8.7925,-8.7386,-8.693,-8.6719,-8.6193,-8.5771,-8.5771,-8.5771,-8.5842,-8.6017,-8.6614,-8.6965,-8.6965,-8.7527,-8.7854,-8.7597,-8.7597,-8.7527,-8.7316,-8.7492,-8.7246,-8.6439,-8.8022,-8.8662,-8.801,-8.9472,-8.9904,-8.931,-8.9124,-8.8678,-8.8084,-8.8084,-8.8084,-6.6611,-6.8184,-6.988,-7.1589,-7.0512,-7.0215,-7.4747,-7.4067,-7.3064,-7.5193,-7.627,-7.7338,0.0,-8.1806,0.0,0.0,0.0,0.0,0.0,0.0,0.0,0.0,0.0,0.0,0.0,0.0,0.0,0.0,0.0,0.0,0.0,0.0,0.0,0.0,0.0,-9.2876,-9.2988,-9.2988,-9.2988,-9.2988,-9.2133,-9.2171,-9.2951,-9.2096,-9.2171,-9.2988,-9.2988,-9.2059,-9.0499,-9.0499,-8.9533,-8.8084,-8.8084,-8.8567,-8.9124,-8.8418,-8.815,-8.7954,-8.7116,-8.6265,-8.5649,-8.5958,-8.6114,-8.6277,-8.6795,-8.6434,-8.5854,-8.6195,-8.5718,-8.5356,-8.6357,-8.6052,-8.5877,-8.7351,-8.7246,-8.6965,-8.7632,-8.789,-8.7925,-8.7925,-8.7854,-8.7562,-8.6825,-8.6649,-8.6614,-8.6614,-8.6614,-8.6895,-8.7644,-8.7784,-8.7819,-8.7819,-8.789,-8.7562,-8.686,-8.679,-8.6474,-8.5701,-8.6368,-8.6439,-8.5631,-8.7198,-8.8082,-8.801,-8.892,-8.9347,-8.931,-8.853,-8.8158,-8.8084,-8.8084,-8.8084,-6.5547,-6.7293,-6.936,-7.0995,-7.0698,-7.1415,-7.6865,-7.7756,-7.7719,-7.8648,-7.9539,-8.0171,-8.0208,0.0,0.0,0.0,0.0,0.0,0.0,0.0,0.0,0.0,0.0,0.0,0.0,0.0,0.0,0.0,0.0,0.0,0.0,0.0,0.0,0.0,0.0,-9.2431,-9.2988,-9.2468,-9.2468,-9.2988,-9.1613,-9.139,-9.2171,-9.1316,-9.1688,-9.2951,-9.2431,-9.1539,-9.0462,-8.9942,-8.9087,-8.8158,-8.8641,-8.9347,-8.9989,-8.971,-8.9236,-8.8646,-8.7821,-8.7023,-8.6223,-8.5912,-8.6125,-8.6616,-8.6756,-8.6651,-8.6511,-8.7141,-8.7118,-8.6732,-8.6123,-8.6087,-8.6263,-8.6368,-8.693,-8.7386,-8.7176,-8.7527,-8.7925,-8.7925,-8.7492,-8.707,-8.6754,-8.6298,-8.5947,-8.5947,-8.5947,-8.6052,-8.6368,-8.6825,-8.7141,-8.7141,-8.7141,-8.7035,-8.6719,-8.6228,-8.5631,-8.4859,-8.5526,-8.5631,-8.4859,-8.6409,-8.6994,-8.6525,-8.7851,-8.853,-8.853,-8.8233,-8.8084,-8.8084,-8.8084,-8.8084,-6.6128,-6.7553,-6.9595,-7.0995,-7.1329,-7.2666,-7.7905,-7.9354,-7.9911,-8.1211,-8.1323,-8.1397,-8.2103,0.0,0.0,0.0,0.0,0.0,0.0,0.0,0.0,0.0,0.0,0.0,0.0,0.0,0.0,0.0,0.0,0.0,0.0,0.0,0.0,0.0,0.0,-9.2393,-9.2988,-9.2133,-9.1873,-9.2171,-9.0796,-9.0833,-9.2096,-9.1242,-9.165,-9.2951,-9.2356,-9.1502,-9.0462,-8.9904,-8.905,-8.8158,-8.8976,-8.9628,-9.0106,-9.0109,-8.9563,-8.8726,-8.8177,-8.7427,-8.6649,-8.6241,-8.6475,-8.6931,-8.6838,-8.6884,-8.7083,-8.7644,-8.7831,-8.7679,-8.6544,-8.6649,-8.693,-8.6368,-8.707,-8.7738,-8.7176,-8.7492,-8.7925,-8.7925,-8.7457,-8.707,-8.707,-8.6614,-8.6263,-8.6263,-8.6263,-8.6263,-8.6263,-8.6719,-8.6965,-8.6719,-8.6719,-8.6509,-8.6017,-8.5491,-8.4823,-8.4086,-8.4508,-8.4543,-8.4051,-8.5335,-8.5892,-8.5619,-8.7022,-8.7858,-8.8084,-8.8084,-8.8084,-8.8084,-8.8084,-8.8233,-6.889,-6.967,-7.1081,-7.1961,-7.2246,-7.3324,-7.7385,-7.7682,-7.8267,-8.2363,-8.1248,-8.0765,-8.4852,-8.3626,0.0,0.0,0.0,0.0,0.0,0.0,0.0,0.0,0.0,0.0,0.0,0.0,0.0,0.0,0.0,0.0,0.0,0.0,0.0,0.0,0.0,0.0,-9.2988,-9.2133,-9.1279,-9.0499,-8.9681,-9.0573,-9.2951,-9.2096,-9.2171,-9.2988,-9.2988,-9.2022,-9.0499,-9.0462,-8.9533,-8.8195,-8.9013,-8.9263,-8.9235,-8.9235,-8.8708,-8.7964,-8.7921,-8.7383,-8.6814,-8.7351,-8.7501,-8.7453,-8.7213,-8.7309,-8.7501,-8.7501,-8.769,-8.7925,-8.7925,-8.7878,-8.7878,-8.7925,-8.7925,-8.7925,-8.7925,-8.7925,-8.7925,-8.7925,-8.7925,-8.7925,-8.7925,-8.7925,-8.7925,-8.7925,-8.7925,-8.7925,-8.7925,-8.789,-8.7562,-8.679,-8.6684,-8.6052,-8.4543,-8.4402,-8.4051,-8.3244,-8.3208,-8.3208,-8.3208,-8.3968,-8.4765,-8.5582,-8.6462,-8.7295,-8.8084,-8.8084,-8.8084,-8.8084,-8.8084,-8.853,-6.6179,-6.8333,-7.0932,-7.1218,-7.3484,-7.626,-7.8611,-7.8499,-7.9094,-8.318,-8.3886,-8.3997,-8.4629,-8.5595,0.0,0.0,0.0,0.0,0.0,0.0,0.0,0.0,0.0,0.0,0.0,0.0,0.0,0.0,0.0,0.0,0.0,0.0,0.0,0.0,0.0,0.0,-9.2096,-9.1279,-9.0722,-9.0499,-8.9681,-8.9979,-9.1242,-9.0982,-9.165,-9.2914,-9.1762,-9.0945,-9.0424,-8.9273,-8.8864,-8.9013,-8.983,-9.0113,-9.008,-9.0074,-8.9537,-8.8699,-8.8108,-8.7723,-8.7515,-8.7526,-8.7501,-8.7453,-8.7213,-8.7309,-8.7453,-8.7261,-8.7405,-8.7643,-8.7643,-8.7501,-8.7453,-8.7831,-8.7925,-8.7925,-8.7925,-8.7925,-8.7925,-8.7925,-8.7925,-8.7925,-8.7925,-8.7925,-8.7925,-8.7925,-8.7925,-8.7714,-8.7141,-8.6544,-8.6123,-8.5877,-8.5385,-8.4929,-8.4437,-8.3876,-8.3454,-8.3244,-8.3208,-8.3208,-8.3208,-8.3968,-8.4518,-8.4725,-8.6138,-8.7024,-8.7261,-8.7826,-8.8084,-8.8084,-8.8678,-8.9384,-6.884,-7.1218,-7.3855,-7.3855,-7.523,-7.7162,-7.9465,0.0,0.0,0.0,-8.474,-8.4778,-8.5261,-8.6041,0.0,0.0,0.0,0.0,0.0,0.0,0.0,0.0,0.0,0.0,0.0,0.0,0.0,0.0,0.0,0.0,0.0,0.0,0.0,0.0,0.0,0.0,-9.2208,-9.1093,-9.0499,-9.0499,-8.9347,-8.9236,-9.0053,-9.0685,-9.1539,-9.2393,-9.1093,-9.0313,-8.9942,-8.8976,-8.8864,-8.939,-9.0173,-9.0291,-8.9966,-8.9911,-8.9364,-8.8561,-8.8075,-8.7831,-8.769,-8.7453,-8.7275,-8.713,-8.6838,-8.6936,-8.713,-8.6985,-8.713,-8.7357,-8.7357,-8.7309,-8.7357,-8.7831,-8.7831,-8.7784,-8.7878,-8.7925,-8.7925,-8.7925,-8.7925,-8.7925,-8.7925,-8.7925,-8.7925,-8.7925,-8.7925,-8.7702,-8.7211,-8.6474,-8.5982,-8.5982,-8.528,-8.4859,-8.4859,-8.4402,-8.4121,-8.4121,-8.4121,-8.4121,-8.4121,-8.4298,-8.4698,-8.5359,-8.6673,-8.7484,-8.7839,-8.8655,-8.9198,-8.9533,-9.0016,-9.087,-7.393,-7.5899,-7.7979,-7.8053,-7.7199,0.0,-8.0208,-8.2846,-8.4815,-8.5446,0.0,-8.422,-8.6486,0.0,0.0,0.0,0.0,0.0,0.0,0.0,0.0,0.0,0.0,0.0,0.0,0.0,0.0,0.0,0.0,0.0,0.0,0.0,0.0,0.0,0.0,0.0,-9.2765,-9.1242,-9.0424,0.0,-8.879,-8.8493,-8.9236,-9.087,-9.1576,-9.1539,-9.0722,-8.9979,-8.931,-8.931,-8.9353,-8.9484,-9.0215,-8.9967,-8.9184,-8.912,-8.8561,-8.7925,-8.7878,-8.769,-8.7453,-8.7165,-8.6887,-8.6642,-8.6394,-8.6494,-8.6691,-8.6691,-8.6887,-8.7117,-8.7117,-8.7309,-8.7548,-8.7831,-8.7737,-8.7596,-8.7831,-8.7925,-8.7925,-8.7925,-8.7925,-8.7925,-8.7925,-8.7925,-8.7925,-8.7925,-8.7854,-8.7819,-8.7819,-8.707,-8.6614,-8.6614,-8.5947,-8.5491,-8.5491,-8.5491,-8.5491,-8.5491,-8.5491,-8.5526,-8.5596,-8.4894,-8.519,-8.6653,-8.7573,-8.8355,-8.9091,-9.0032,-9.0907,-9.1688,-9.1799,-9.2691,-6.8877,-7.2072,0.0,0.0,-7.8499,-8.1025,-8.2363,-8.4518,-8.6152,-8.5669,-8.5818,-8.6375,0.0,0.0,0.0,0.0,0.0,0.0,0.0,0.0,0.0,0.0,0.0,0.0,0.0,0.0,0.0,0.0,0.0,0.0,0.0,0.0,0.0,0.0,0.0,-9.2356,-9.1056,-9.0685,-8.9867,0.0,-8.827,-8.8195,-8.8418,-9.0016,-9.0759,-9.0722,-8.9904,-8.9459,-8.931,-8.931,-8.9691,-9.0254,-9.0408,-8.9952,-8.9113,-8.9078,-8.8561,-8.7878,-8.769,-8.7548,-8.7453,-8.6936,-8.674,-8.6642,-8.6394,-8.6494,-8.6691,-8.6691,-8.6887,-8.7165,-8.7357,-8.7309,-8.7309,-8.7784,-8.7878,-8.7831,-8.7878,-8.7925,-8.7925,-8.7925,-8.7925,-8.7925,-8.7925,-8.7925,-8.7925,-8.7925,-8.7351,-8.6965,-8.6965,-8.6263,-8.5771,-8.5771,-8.5596,-8.5491,-8.5491,-8.5491,-8.5491,-8.5491,-8.5491,-8.5771,-8.6439,-8.5701,-8.5441,-8.5771,-8.7249,-8.8087,-8.8241,-8.9759,-9.0907,-9.1725,-9.2393,-9.3582,-6.9694,0.0,0.0,-7.7162,0.0,-8.2771,-8.3589,-8.5335,-8.6784,-8.6784,-8.7118,0.0,0.0,0.0,0.0,0.0,0.0,0.0,0.0,0.0,0.0,0.0,0.0,0.0,0.0,0.0,0.0,0.0,0.0,0.0,0.0,0.0,0.0,0.0,-9.2988,-9.2579,-9.1725,-9.1279,-9.0462,-8.9236,-8.8864,-8.8864,-8.9273,-8.9719,-9.0127,-9.0462,-8.9644,-8.931,-8.9278,-8.9255,-8.9733,-9.0447,-9.0027,-8.9513,-8.9063,-8.865,-8.827,-8.7878,-8.7596,-8.7405,-8.7261,-8.6838,-8.6593,-8.6494,-8.6494,-8.6593,-8.674,-8.6838,-8.6985,-8.7117,-8.7261,-8.7554,-8.7881,-8.8168,-8.7983,-8.7737,-8.7878,-8.8159,-8.8405,-8.8405,-8.8721,-8.9001,-8.9001,-8.9001,-8.8861,-8.8475,-8.8054,-8.7667,-8.7316,-8.6579,-8.6228,-8.6614,-8.6298,-8.6228,-8.6614,-8.6649,-8.6649,-8.6649,-8.6649,-8.6825,-8.7246,-8.686,-8.6649,-8.6649,-8.8279,-8.9169,-8.9133,-9.0871,-9.2096,-9.2914,-9.3768,-9.4808,-7.0772,0.0,-7.6047,-7.8796,-8.136,0.0,-8.422,-8.5632,-8.7044,0.0,0.0,0.0,0.0,0.0,0.0,0.0,0.0,0.0,0.0,0.0,0.0,0.0,0.0,0.0,0.0,0.0,0.0,0.0,0.0,0.0,0.0,0.0,-9.2245,-9.2988,-9.2988,-9.2839,-9.2579,-9.1836,-9.1019,-9.009,-8.9421,-8.9496,-9.0276,-8.9459,-8.9607,-9.0462,-8.9496,-8.9236,-8.9469,-8.9293,-8.9714,-9.0373,-8.9456,-8.9055,-8.8792,-8.8167,-8.7878,-8.7784,-8.7548,-8.7261,-8.6985,-8.6789,-8.6543,-8.6394,-8.6691,-8.6789,-8.6838,-8.7117,-8.7235,-8.7339,-8.7387,-8.8139,-8.8877,-8.8877,-8.8388,-8.8028,-8.8264,-8.8756,-8.9212,-8.9212,-8.9739,-9.016,-9.002,-8.9985,-8.9704,-8.8931,-8.8791,-8.858,-8.7995,-8.7316,-8.7141,-8.7854,-8.7281,-8.7176,-8.7854,-8.7925,-8.7925,-8.7925,-8.7925,-8.7925,-8.7925,-8.7925,-8.7925,-8.7925,-8.9534,-9.048,-9.0637,-9.2231,-9.3397,-9.4214,-9.4883,-9.5626,0.0,0.0,-7.4662,0.0,-8.136,-8.3403,0.0,0.0,0.0,0.0,0.0,0.0,0.0,0.0,0.0,0.0,0.0,0.0,0.0,0.0,0.0,0.0,0.0,0.0,0.0,0.0,0.0,0.0,0.0,0.0,0.0,-9.1985,-9.2876,-9.2988,-9.2988,-9.2282,-9.0833,-9.0722,-8.9904,-8.8418,-8.8307,-8.8678,-8.9421,-8.8641,-8.9087,-9.0424,-8.8901,-8.905,-9.0286,-8.9514,-8.9678,-9.0335,-8.942,-8.8695,-8.8029,-8.7971,-8.7784,-8.7548,-8.7261,-8.6985,-8.674,-8.6691,-8.6691,-8.6691,-8.6971,-8.7068,-8.7117,-8.7357,-8.7907,-8.8444,-8.8719,-8.9327,-9.0007,-9.0007,-8.9902,-8.9831,-8.9914,-8.9985,-9.0055,-9.0055,-9.0125,-8.9985,-8.9282,-8.9142,-8.8896,-8.8124,-8.8065,-8.803,-8.7925,-8.7819,-8.7784,-8.7925,-8.7819,-8.7784,-8.7925,-8.7925,-8.7925,-8.7925,-8.7925,-8.7925,-8.7925,-8.7925,-8.7925,-8.7925,-8.9534,-9.0754,-9.1547,-9.251,-9.3397,-9.4214,-9.4325,-9.4808,-6.655,-7.1143,-7.5713,0.0,-8.24,-8.396,-8.4295,0.0,0.0,0.0,0.0,0.0,0.0,0.0,0.0,0.0,0.0,0.0,0.0,0.0,0.0,0.0,0.0,0.0,0.0,0.0,0.0,0.0,0.0,0.0,-9.1167,-9.2319,-9.2988,-9.2988,-9.2988,-9.2393,-9.1167,-9.1167,-9.035,-8.8753,-8.8307,-8.853,-8.9273,-8.8455,-8.8716,-8.9793,-8.9087,-8.916,-8.9762,-8.935,-8.9389,-8.9582,-8.8783,-8.8132,-8.769,-8.769,-8.7501,-8.7261,-8.7165,-8.702,-8.6887,-8.6887,-8.6887,-8.6985,-8.7261,-8.7357,-8.7475,-8.8133,-8.8531,-8.8964,-8.9516,-9.023,-9.0827,-9.0827,-9.1143,-9.1494,-9.1494,-9.1143,-9.0932,-9.1389,-9.1494,-9.1213,-9.0441,-9.0265,-8.9879,-8.8685,-8.851,-8.8334,-8.796,-8.7925,-8.7925,-8.7925,-8.7925,-8.7925,-8.7925,-8.7925,-8.7925,-8.7925,-8.7925,-8.7925,-8.7925,-8.7925,-8.8121,-8.8561,-8.9749,-9.0598,-9.0947,-9.2336,-9.3174,-9.3545,-9.3991,-9.44,0.0,0.0,-7.4153,-7.8908,-8.1471,-8.3106,0.0,0.0,0.0,0.0,0.0,0.0,0.0,0.0,0.0,0.0,0.0,0.0,0.0,0.0,0.0,0.0,0.0,0.0,0.0,0.0,0.0,0.0,0.0,0.0,-9.165,-9.2542,-9.2988,-9.2988,-9.2988,-9.2468,-9.1428,-9.0982,-9.0164,-8.8976,-8.8381,-8.8418,-8.8976,-8.8381,-8.8324,-8.8683,-8.8905,-8.9055,-8.92,-8.8957,-8.8983,-8.9019,-8.8224,-8.7737,-8.7501,-8.7596,-8.7405,-8.7117,-8.7213,-8.7165,-8.7117,-8.7213,-8.7318,-8.754,-8.7828,-8.8016,-8.8343,-8.9094,-8.9423,-8.9704,-9.0336,-9.1038,-9.16,-9.16,-9.2056,-9.2477,-9.2477,-9.2021,-9.1775,-9.2372,-9.2337,-9.1951,-9.1143,-9.0827,-9.0265,-8.8896,-8.8721,-8.851,-8.7995,-8.7925,-8.7925,-8.7925,-8.7925,-8.7925,-8.7925,-8.7925,-8.7925,-8.7925,-8.7925,-8.7925,-8.7925,-8.7925,-8.8178,-8.8748,-8.9832,-9.0519,-9.0716,-9.2266,-9.2988,-9.2988,-9.3619,-9.3879,0.0,-6.4062,0.0,-7.3372,0.0,0.0,0.0,0.0,0.0,0.0,0.0,0.0,0.0,0.0,0.0,0.0,0.0,0.0,0.0,0.0,0.0,0.0,0.0,0.0,0.0,0.0,0.0,0.0,0.0,0.0,-9.165,-9.2542,-9.2988,-9.2988,-9.2988,-9.2208,-9.0573,-8.905,-8.8233,-8.8158,-8.8121,-8.8121,-8.8158,-8.8121,-8.7697,-8.7064,-8.7764,-8.85,-8.9165,-8.828,-8.8428,-8.9019,-8.8224,-8.7737,-8.7548,-8.7784,-8.7548,-8.7165,-8.7405,-8.7309,-8.7165,-8.7405,-8.7955,-8.8549,-8.8836,-8.9458,-9.009,-9.0125,-9.0652,-9.1178,-9.1213,-9.1845,-9.2442,-9.2442,-9.2477,-9.2477,-9.2477,-9.2477,-9.2442,-9.2477,-9.188,-9.1108,-9.0371,-8.9633,-8.8861,-8.81,-8.7995,-8.796,-8.7925,-8.7925,-8.7925,-8.7925,-8.7925,-8.7925,-8.7925,-8.7925,-8.7925,-8.7925,-8.7925,-8.7925,-8.7925,-8.7925,-8.7925,-8.7936,-8.9576,-9.0793,-9.162,-9.2545,-9.2988,-9.2988,-9.3025,-9.3062,0.0,0.0,0.0,-6.9583,0.0,0.0,0.0,0.0,0.0,0.0,0.0,0.0,0.0,0.0,0.0,0.0,0.0,0.0,0.0,0.0,0.0,0.0,0.0,0.0,0.0,0.0,0.0,0.0,0.0,0.0,-9.2468,-9.2839,-9.2988,-9.2988,-9.2988,-9.2208,-9.0536,-8.9942,-8.9124,-8.8084,-8.8604,-8.8604,-8.8121,-8.8047,-8.7862,-8.7622,-8.7362,-8.74,-8.7721,-8.8355,-8.8543,-8.8315,-8.7843,-8.7596,-8.7501,-8.7405,-8.7261,-8.7165,-8.7405,-8.7453,-8.7475,-8.8251,-8.8614,-8.8964,-8.9551,-8.9985,-9.0301,-9.0757,-9.1108,-9.1424,-9.1916,-9.2267,-9.2477,-9.2477,-9.2477,-9.2477,-9.2477,-9.2477,-9.2337,-9.181,-9.1494,-9.0897,-8.9633,-8.9177,-8.8756,-8.803,-8.7925,-8.7925,-8.7925,-8.7925,-8.7925,-8.7925,-8.7925,-8.7925,-8.7925,-8.7925,-8.7925,-8.7925,-8.7925,-8.7925,-8.7925,-8.8371,-8.8695,-8.8695,-9.036,-9.1136,-9.0871,-9.2301,-9.2988,-9.2988,-9.2988,-9.2988,-6.0274,0.0,0.0,0.0,0.0,0.0,0.0,0.0,0.0,0.0,0.0,0.0,0.0,0.0,0.0,0.0,0.0,0.0,0.0,0.0,0.0,0.0,0.0,0.0,0.0,0.0,0.0,0.0,0.0,0.0,-9.2914,-9.2988,-9.2988,-9.2988,-9.2728,-9.2022,-9.0907,-9.061,-8.983,-8.8493,-8.905,-8.8864,-8.809,-8.8038,-8.77,-8.7158,-8.694,-8.6923,-8.7244,-8.7887,-8.8078,-8.7878,-8.7596,-8.7501,-8.7501,-8.7405,-8.7309,-8.7261,-8.7548,-8.7643,-8.7795,-8.8708,-8.9177,-8.9563,-9.0336,-9.0757,-9.1073,-9.1564,-9.1705,-9.181,-9.2337,-9.2477,-9.2477,-9.2477,-9.2477,-9.2407,-9.2161,-9.2091,-9.1916,-9.1389,-9.0862,-9.0195,-8.9177,-8.8791,-8.844,-8.7995,-8.7925,-8.7925,-8.7925,-8.7925,-8.7925,-8.7925,-8.7925,-8.7925,-8.7925,-8.7925,-8.7925,-8.7925,-8.7925,-8.7925,-8.7925,-8.8695,-8.9106,-8.9106,-9.083,-9.1436,-9.0832,-9.2301,-9.2988,-9.2988,-9.2988,-9.2988,0.0,0.0,0.0,0.0,0.0,0.0,0.0,0.0,0.0,0.0,0.0,0.0,0.0,0.0,0.0,0.0,0.0,0.0,0.0,0.0,0.0,0.0,0.0,0.0,0.0,0.0,0.0,0.0,0.0,-9.1242,-9.2914,-9.2988,-9.2988,-9.2988,-9.2171,-9.1725,-9.1688,-9.0945,-9.0127,-8.931,-8.931,-8.8864,-8.809,-8.8004,-8.7085,-8.5652,-8.644,-8.7166,-8.7793,-8.6752,-8.6954,-8.7878,-8.7596,-8.7501,-8.7548,-8.7784,-8.7737,-8.7548,-8.7831,-8.7878,-8.7983,-8.8756,-8.9528,-9.0301,-9.1073,-9.1845,-9.2477,-9.2477,-9.2477,-9.2477,-9.2477,-9.2477,-9.2477,-9.2477,-9.2442,-9.2232,-9.1459,-9.1284,-9.1248,-9.1213,-9.002,-8.9001,-8.8966,-8.837,-8.7925,-8.7925,-8.7925,-8.7925,-8.7925,-8.7925,-8.7925,-8.7925,-8.7925,-8.7925,-8.7925,-8.7925,-8.7925,-8.7925,-8.7925,-8.7925,-8.7925,-8.8695,-8.9106,-8.9149,-9.083,-9.1693,-9.173,-9.2579,-9.2988,-9.2988,-9.2988,-9.2988,-5.5466,0.0,0.0,0.0,0.0,0.0,0.0,0.0,0.0,0.0,0.0,0.0,0.0,0.0,0.0,0.0,0.0,0.0,0.0,0.0,0.0,0.0,0.0,0.0,0.0,0.0,0.0,0.0,-9.1056,-9.1836,-9.2951,-9.2988,-9.2988,-9.2988,-9.2765,-9.2356,-9.1725,-9.1465,-9.0685,-8.931,-8.931,-8.8572,-8.7231,-8.7158,-8.6552,-8.5611,-8.5797,-8.6319,-8.7015,-8.673,-8.7129,-8.7878,-8.7596,-8.7643,-8.7784,-8.7643,-8.7596,-8.7501,-8.7596,-8.7643,-8.7748,-8.847,-8.8999,-8.9563,-9.0897,-9.1459,-9.174,-9.2337,-9.2477,-9.2477,-9.2477,-9.2477,-9.2337,-9.1775,-9.1635,-9.1564,-9.1354,-9.0862,-9.0336,-8.9739,-8.9282,-8.8826,-8.8264,-8.8065,-8.7925,-8.7925,-8.7925,-8.7925,-8.7925,-8.7925,-8.7925,-8.7925,-8.7925,-8.7925,-8.7925,-8.7925,-8.7925,-8.7925,-8.7925,-8.7925,-8.7925,-8.8695,-8.9406,-9.0037,-9.1136,-9.1982,-9.2613,-9.2888,-9.2988,-9.2988,-9.2988,-9.2988,-5.6395,-5.6172,-5.632,0.0,0.0,0.0,-6.4679,-6.7094,0.0,0.0,0.0,0.0,0.0,0.0,0.0,0.0,0.0,0.0,0.0,0.0,0.0,0.0,0.0,0.0,0.0,0.0,0.0,0.0,-9.1428,-9.2096,-9.2951,-9.2988,-9.2988,-9.2988,-9.2988,-9.2579,-9.1725,-9.1688,-9.0741,-8.8779,-8.9145,-8.8273,-8.6355,-8.6678,-8.6164,-8.5098,-8.5367,-8.5771,-8.6228,-8.6579,-8.7176,-8.7878,-8.7596,-8.769,-8.7878,-8.7596,-8.7596,-8.7643,-8.7548,-8.7596,-8.7865,-8.8903,-8.935,-8.9774,-9.1319,-9.1775,-9.188,-9.2372,-9.2477,-9.2477,-9.2477,-9.2232,-9.188,-9.1389,-9.1038,-9.0757,-9.0406,-8.9985,-8.9669,-8.9528,-8.9212,-8.8756,-8.8065,-8.7925,-8.7925,-8.7925,-8.7925,-8.7925,-8.7925,-8.7925,-8.7925,-8.7925,-8.7925,-8.7925,-8.7925,-8.7925,-8.7925,-8.7925,-8.7925,-8.7925,-8.7925,-8.8695,-8.9498,-9.04,-9.125,-9.2161,-9.2988,-9.2988,-9.2988,-9.2988,-9.2988,-9.2988,-5.7992,-5.7175,-5.7175,-5.9144,0.0,0.0,-6.8047,-6.9137,-7.092,0.0,0.0,0.0,0.0,0.0,0.0,0.0,0.0,0.0,0.0,0.0,0.0,0.0,0.0,0.0,0.0,0.0,-9.0053,-9.1576,-9.1799,-9.2171,-9.2951,-9.2988,-9.2988,-9.2988,-9.2988,-9.2579,-9.1725,-9.1613,-9.0395,-8.8131,-8.8737,-8.7752,-8.5468,-8.6227,-8.5758,-8.4439,-8.5181,-8.5561,-8.5701,-8.6509,-8.7246,-8.7878,-8.7643,-8.769,-8.7878,-8.7643,-8.769,-8.7831,-8.7701,-8.7748,-8.8229,-8.9656,-9.0195,-9.0476,-9.1916,-9.2372,-9.2372,-9.2477,-9.2477,-9.2477,-9.2477,-9.1951,-9.1389,-9.1213,-9.0687,-8.9985,-8.9177,-8.9001,-8.9212,-8.9914,-8.9423,-8.865,-8.803,-8.7925,-8.7925,-8.7925,-8.7925,-8.7925,-8.7925,-8.7925,-8.7925,-8.7925,-8.7925,-8.7925,-8.7925,-8.7925,-8.7925,-8.7925,-8.7925,-8.7925,-8.7925,-8.8561,-8.9449,-9.04,-9.1325,-9.2231,-9.2988,-9.3099,-9.3136,-9.3136,-9.3211,-9.3248,-5.9589,-5.8846,-5.8995,0.0,0.0,0.0,-5.8289,-5.8103,-5.9589,0.0,0.0,0.0,0.0,0.0,0.0,0.0,0.0,0.0,0.0,0.0,0.0,0.0,0.0,0.0,0.0,0.0,-9.0647,-9.165,-9.2356,-9.2802,-9.2988,-9.2988,-9.2988,-9.2988,-9.2988,-9.2579,-9.1725,-9.1056,-8.9876,-8.8094,-8.7608,-8.6392,-8.464,-8.4819,-8.4682,-8.4458,-8.5195,-8.5877,-8.6544,-8.7316,-8.7784,-8.7878,-8.7831,-8.7878,-8.7878,-8.7831,-8.7737,-8.7666,-8.8165,-8.8423,-8.8645,-8.9555,-9.0051,-9.0371,-9.1248,-9.1529,-9.167,-9.2302,-9.2477,-9.2477,-9.2477,-9.2372,-9.1951,-9.0722,-9.0301,-8.9985,-8.9177,-8.9001,-8.9037,-8.9212,-8.8615,-8.81,-8.7925,-8.7925,-8.7925,-8.7925,-8.7925,-8.7925,-8.7925,-8.7925,-8.7925,-8.7925,-8.7925,-8.7925,-8.7925,-8.7925,-8.7925,-8.7925,-8.7925,-8.7925,-8.7925,-8.8075,-8.8872,-9.036,-9.1946,-9.2818,-9.2988,-9.3657,-9.3954,-9.3991,-9.4622,-9.492,0.0,0.0,0.0,-5.9961,0.0,0.0,0.0,-5.9887,-6.0927,0.0,0.0,0.0,0.0,0.0,0.0,0.0,0.0,0.0,0.0,0.0,0.0,0.0,0.0,0.0,0.0,0.0,-9.1465,-9.2282,-9.2728,-9.2988,-9.2988,-9.2988,-9.2988,-9.2988,-9.2988,-9.2393,-9.1093,-9.0685,-8.927,-8.6866,-8.6894,-8.6024,-8.44,-8.483,-8.4996,-8.4999,-8.5771,-8.6333,-8.6754,-8.7562,-8.7925,-8.7925,-8.7925,-8.7831,-8.769,-8.769,-8.7888,-8.8095,-8.8479,-8.896,-8.9547,-9.0283,-9.0625,-9.0897,-9.167,-9.188,-9.1986,-9.2372,-9.2477,-9.2477,-9.2477,-9.2196,-9.16,-9.0476,-8.9879,-8.9388,-8.8615,-8.844,-8.844,-8.844,-8.8124,-8.7925,-8.7925,-8.7925,-8.7925,-8.7925,-8.7925,-8.7925,-8.7925,-8.7925,-8.7925,-8.7925,-8.7925,-8.7925,-8.7925,-8.7925,-8.7925,-8.7925,-8.827,-8.8506,-8.8506,-8.8924,-8.9743,-9.1022,-9.2336,-9.2988,-9.2988,-9.3805,-9.3991,-9.3619,-9.4028,-9.4214,0.0,0.0,0.0,0.0,0.0,-6.0481,0.0,0.0,0.0,0.0,0.0,0.0,0.0,0.0,0.0,0.0,0.0,0.0,0.0,0.0,0.0,0.0,0.0,0.0,0.0,0.0,-9.087,-9.2839,-9.1836,-9.165,-9.2914,-9.2988,-9.2988,-9.2988,-9.2839,-9.2022,-9.0499,-9.0184,-8.8559,-8.5619,-8.6138,-8.5706,-8.4402,-8.5045,-8.5497,-8.5771,-8.6439,-8.679,-8.6965,-8.7597,-8.7925,-8.7925,-8.7925,-8.7784,-8.7596,-8.7736,-8.8191,-8.8702,-8.8982,-8.9687,-9.0546,-9.1284,-9.1529,-9.1635,-9.2302,-9.2477,-9.2477,-9.2477,-9.2477,-9.2477,-9.2477,-9.188,-9.1108,-9.0371,-8.9598,-8.8791,-8.81,-8.7925,-8.7925,-8.7925,-8.7925,-8.7925,-8.7925,-8.7925,-8.7925,-8.7925,-8.7925,-8.7925,-8.7925,-8.7925,-8.7925,-8.7925,-8.7925,-8.7925,-8.7925,-8.7925,-8.7971,-8.8121,-8.8739,-8.9192,-8.9364,-9.02,-9.0984,-9.1657,-9.2693,-9.3211,-9.3211,-9.4028,-9.4102,-9.3471,-9.3619,-9.3768,0.0,0.0,0.0,0.0,-6.219,0.0,-5.9181,0.0,-5.9069,-5.8364,0.0,0.0,0.0,0.0,0.0,0.0,0.0,0.0,0.0,0.0,0.0,0.0,0.0,0.0,0.0,0.0,0.0,-9.2542,-8.7601,-8.6858,-9.2691,-9.2988,-9.2988,-9.2988,-9.2245,-9.1428,-9.0499,-8.9092,-8.7447,-8.5619,-8.4963,-8.4569,-8.4402,-8.4492,-8.5265,-8.6579,-8.6649,-8.7106,-8.7738,-8.789,-8.7925,-8.7925,-8.7925,-8.7878,-8.7948,-8.8568,-8.8884,-8.913,-9.0498,-9.1073,-9.1284,-9.2091,-9.2337,-9.2372,-9.2477,-9.2477,-9.2477,-9.2477,-9.2477,-9.2477,-9.2477,-9.188,-9.1108,-9.0371,-8.9598,-8.8791,-8.81,-8.7925,-8.7925,-8.7925,-8.7925,-8.7925,-8.7925,-8.7925,-8.7925,-8.7925,-8.7925,-8.7925,-8.7925,-8.7925,-8.7925,-8.7925,-8.7925,-8.7925,-8.7925,-8.7925,-8.8224,-8.8924,-8.9019,-8.9449,-9.024,-9.1098,-9.1584,-9.1693,-9.3248,-9.4065,-9.4065,-9.4883,-9.5217,-9.5143,-9.5848,-9.6591,0.0,0.0,0.0,0.0,0.0,0.0,-5.9961,0.0,-5.8103,0.0,0.0,0.0,0.0,0.0,0.0,0.0,0.0,0.0,0.0,0.0,0.0,0.0,0.0,0.0,0.0,0.0,0.0,0.0,0.0,-8.6561,-9.2653,-9.2988,-9.2988,-9.2988,-9.2133,-9.1316,-9.0499,-8.888,-8.7266,-8.5619,-8.4765,-8.4606,-8.5034,-8.5034,-8.5912,-8.7386,-8.7386,-8.7562,-8.7925,-8.7925,-8.7925,-8.796,-8.837,-8.8416,-8.8356,-8.8849,-8.9468,-9.0213,-9.1024,-9.16,-9.2056,-9.2372,-9.2477,-9.2477,-9.2477,-9.2477,-9.2477,-9.2477,-9.2477,-9.2477,-9.2477,-9.2232,-9.167,-9.0476,-8.9949,-8.9353,-8.8124,-8.7925,-8.7925,-8.7925,-8.7925,-8.7925,-8.7925,-8.8229,-8.851,-8.851,-8.851,-8.837,-8.7995,-8.7925,-8.7925,-8.7925,-8.7925,-8.7925,-8.7925,-8.7925,-8.8029,-8.8371,-8.9321,-9.048,-9.1838,-9.2709,-9.3179,-9.3179,-9.4302,-9.4883,-9.4883,-9.5254,-9.5626,-9.6108,-9.596,-9.6108,-6.6537,0.0,0.0,0.0,0.0,0.0,0.0,0.0,0.0,0.0,0.0,0.0,0.0,0.0,0.0,0.0,0.0,0.0,0.0,0.0,0.0,0.0,0.0,0.0,0.0,0.0,0.0,0.0,-8.5223,0.0,-9.2579,-9.2988,-9.2988,-9.2988,-9.1948,-9.1093,-9.0499,-8.8417,-8.6794,-8.5619,-8.4773,-8.4817,-8.5491,-8.5736,-8.6579,-8.7925,-8.7925,-8.7925,-8.7925,-8.7925,-8.803,-8.8229,-8.8791,-8.9152,-8.9394,-8.9586,-9.0099,-9.0794,-9.141,-9.2021,-9.2477,-9.2477,-9.2477,-9.2477,-9.2477,-9.2477,-9.2477,-9.2477,-9.2477,-9.2477,-9.2477,-9.2337,-9.1845,-9.0511,-9.002,-8.9493,-8.8206,-8.7925,-8.7925,-8.7925,-8.7925,-8.7995,-8.8159,-8.865,-8.8931,-8.8721,-8.8861,-8.8721,-8.7995,-8.7925,-8.7925,-8.7925,-8.7925,-8.7925,-8.7925,-8.7925,-8.8192,-8.888,-9.0496,-9.2095,-9.3623,-9.4214,-9.4511,-9.4511,-9.5328,-9.5737,-9.5737,-9.596,-9.6406,-9.6926,-9.6108,-9.5848,0.0,0.0,0.0,-6.2859,0.0,0.0,0.0,0.0,-6.063,0.0,0.0,0.0,0.0,0.0,0.0,0.0,0.0,0.0,0.0,0.0,0.0,0.0,0.0,0.0,0.0,0.0,0.0,-8.4926,-7.9056,0.0,-9.2356,-9.2988,-9.2988,-9.2988,-9.139,-9.0536,-9.0499,-8.7266,-8.5657,-8.5582,-8.4791,-8.4753,-8.5526,-8.6298,-8.7106,-8.7925,-8.7925,-8.7925,-8.7925,-8.7925,-8.8299,-8.8966,-8.9001,-8.9914,-9.1213,-9.1213,-9.0792,-9.0441,-9.1951,-9.2477,-9.2477,-9.2477,-9.2477,-9.2477,-9.2477,-9.2477,-9.2477,-9.2477,-9.2477,-9.2477,-9.2477,-9.1916,-9.1143,-9.0371,-8.9598,-8.8826,-8.81,-8.7925,-8.7925,-8.7925,-8.7925,-8.8135,-8.8826,-8.8966,-8.8756,-8.8065,-8.851,-8.8721,-8.7995,-8.7925,-8.7925,-8.7925,-8.7925,-8.7925,-8.7925,-8.7925,-8.8915,-9.1325,-9.3036,-9.4411,-9.5294,-9.5365,-9.5365,-9.5365,-9.6146,-9.6554,-9.6554,-9.7409,-9.7817,-9.7855,-9.6963,-9.7,0.0,0.0,-7.627,-6.8097,0.0,0.0,0.0,0.0,0.0,0.0,0.0,0.0,0.0,0.0,0.0,0.0,0.0,0.0,0.0,0.0,0.0,0.0,0.0,0.0,0.0,0.0,0.0,-8.422,-8.1991,-8.3997,0.0,-9.2988,-9.2988,-9.2988,-9.1353,-9.0499,-9.0499,-8.7266,-8.5619,-8.5582,-8.4783,-8.4788,-8.5526,-8.6333,-8.7141,-8.7925,-8.7925,-8.7925,-8.796,-8.8405,-8.8756,-8.9107,-9.0125,-9.0827,-9.1213,-9.0757,-9.1073,-9.181,-9.2302,-9.2477,-9.2477,-9.2477,-9.2477,-9.2477,-9.2477,-9.2477,-9.2477,-9.2477,-9.2477,-9.2477,-9.2477,-9.2302,-9.188,-9.1108,-9.0722,-9.016,-8.8896,-8.8615,-8.8475,-8.7995,-8.7925,-8.7995,-8.8194,-8.865,-8.8896,-8.865,-8.8826,-8.8896,-8.865,-8.8194,-8.8311,-8.9317,-8.8931,-8.8826,-8.9388,-8.9423,-9.0307,-9.2274,-9.2929,-9.3891,-9.5369,-9.5923,-9.6183,-9.6183,-9.7037,-9.7446,-9.7446,-9.7743,-9.7892,-9.7892,-9.7595,-9.7632,-7.8388,-7.9948,0.0,-7.2555,-7.2258,0.0,-6.323,0.0,0.0,0.0,0.0,0.0,0.0,0.0,0.0,0.0,0.0,0.0,0.0,0.0,0.0,0.0,0.0,0.0,0.0,0.0,-7.3781,-8.3663,-8.1731,-8.3886,0.0,0.0,-9.2988,-9.2988,-9.1087,-9.0065,-9.0065,-8.6829,-8.5159,-8.5159,-8.4895,-8.5034,-8.5526,-8.6614,-8.7386,-8.7925,-8.7925,-8.7925,-8.7995,-8.8685,-8.9177,-8.9563,-9.0792,-9.1459,-9.167,-9.1178,-9.1635,-9.2442,-9.2161,-9.2267,-9.2477,-9.2477,-9.2477,-9.2477,-9.2477,-9.2477,-9.2477,-9.2477,-9.2477,-9.2477,-9.2477,-9.2477,-9.2302,-9.1494,-9.1108,-9.0546,-8.9282,-8.9037,-8.888,-8.8431,-8.8596,-8.8783,-8.8783,-8.9174,-8.9305,-8.8721,-8.9072,-8.9317,-8.9037,-8.8826,-8.9072,-9.009,-8.9739,-8.9741,-9.0575,-9.094,-9.1836,-9.3591,-9.3965,-9.477,-9.626,-9.6777,-9.7074,-9.7074,-9.7595,-9.7892,-9.7892,-9.7892,-9.7892,-9.7892,-9.7892,-9.7892]},{"header":{"parameterUnit":"m.s-1","parameterCategory":1,"la1":30.6,"la2":29.2853,"lo1":-89.7004,"lo2":-87.6739,"dx":0.0162,"dy":0.0183,"nx":112,"ny":82,"refTime":"2023-01-14T06:00:00:Z","depth":0,"parameterNumber":3,"parameterNumberName":"V-component_of_WINDS"},"data":[0.0,0.0,0.0,0.0,0.0,0.0,0.0,0.0,0.0,0.0,0.0,0.0,0.0,0.0,0.0,0.0,0.0,0.0,0.0,0.0,0.0,0.0,0.0,0.0,0.0,0.0,0.0,0.0,0.0,0.0,0.0,0.0,0.0,0.0,0.0,0.0,0.0,0.0,0.0,0.0,0.0,0.0,0.0,0.0,0.0,0.0,0.0,0.0,0.0,0.0,0.0,0.0,0.0,0.0,0.0,0.0,0.0,0.0,0.0,0.0,0.0,0.0,0.0,0.0,0.0,0.0,0.0,0.0,0.0,0.0,0.0,0.0,0.0,0.0,0.0,0.0,0.0,0.0,0.0,0.0,0.0,0.0,0.0,0.0,0.0,0.0,0.0,0.0,0.0,0.0,-1.9639,-2.0738,-2.1462,-2.1764,-2.1498,-2.1257,-2.0412,-1.8734,0.0,0.0,0.0,0.0,0.0,0.0,0.0,0.0,0.0,0.0,0.0,0.0,0.0,0.0,0.0,0.0,0.0,0.0,0.0,0.0,0.0,0.0,0.0,0.0,0.0,0.0,0.0,0.0,0.0,0.0,0.0,0.0,0.0,0.0,0.0,0.0,0.0,0.0,0.0,0.0,0.0,0.0,0.0,0.0,0.0,0.0,0.0,0.0,0.0,0.0,0.0,0.0,0.0,0.0,0.0,0.0,0.0,0.0,0.0,0.0,0.0,0.0,0.0,0.0,0.0,0.0,0.0,0.0,0.0,0.0,0.0,0.0,0.0,0.0,0.0,0.0,0.0,0.0,0.0,0.0,0.0,0.0,0.0,0.0,0.0,0.0,0.0,0.0,0.0,0.0,0.0,0.0,0.0,0.0,0.0,0.0,0.0,0.0,0.0,0.0,0.0,0.0,0.0,0.0,-1.9036,-2.1426,-2.18,-2.1764,-2.1498,-2.1438,-2.0545,-1.8481,0.0,0.0,0.0,0.0,0.0,0.0,0.0,0.0,0.0,0.0,0.0,0.0,0.0,0.0,0.0,0.0,0.0,0.0,0.0,0.0,0.0,0.0,0.0,0.0,0.0,0.0,0.0,0.0,0.0,0.0,0.0,0.0,0.0,0.0,0.0,0.0,0.0,0.0,0.0,0.0,0.0,0.0,0.0,0.0,0.0,0.0,0.0,0.0,0.0,0.0,0.0,0.0,0.0,0.0,0.0,0.0,0.0,0.0,0.0,0.0,0.0,0.0,0.0,0.0,0.0,0.0,0.0,0.0,0.0,0.0,0.0,0.0,0.0,0.0,0.0,0.0,0.0,0.0,0.0,0.0,0.0,0.0,0.0,0.0,0.0,0.0,0.0,0.0,0.0,0.0,0.0,0.0,0.0,0.0,0.0,0.0,0.0,0.0,0.0,0.0,0.0,0.0,0.0,-1.8807,-2.0231,-2.1909,-2.2285,-2.2261,-2.1921,-2.1776,-2.0786,-1.8638,-1.7865,0.0,0.0,0.0,0.0,0.0,0.0,0.0,0.0,0.0,0.0,0.0,0.0,0.0,0.0,0.0,0.0,0.0,0.0,0.0,0.0,0.0,0.0,0.0,0.0,0.0,0.0,0.0,0.0,0.0,0.0,0.0,0.0,0.0,0.0,0.0,0.0,0.0,0.0,0.0,0.0,0.0,0.0,0.0,0.0,0.0,0.0,0.0,0.0,0.0,0.0,0.0,0.0,0.0,0.0,0.0,0.0,0.0,0.0,0.0,0.0,0.0,0.0,0.0,0.0,0.0,0.0,0.0,0.0,0.0,0.0,0.0,0.0,0.0,0.0,0.0,0.0,0.0,0.0,0.0,0.0,0.0,0.0,0.0,0.0,0.0,0.0,0.0,0.0,0.0,0.0,0.0,0.0,0.0,0.0,0.0,0.0,0.0,0.0,0.0,0.0,0.0,0.0,-2.0762,-2.1837,-2.2455,-2.2648,-2.2624,-2.2283,-2.2078,-2.1028,-1.8819,-1.7925,0.0,0.0,0.0,0.0,0.0,0.0,0.0,0.0,0.0,0.0,0.0,0.0,0.0,0.0,0.0,0.0,0.0,0.0,0.0,0.0,0.0,0.0,0.0,0.0,0.0,0.0,0.0,0.0,0.0,0.0,0.0,0.0,0.0,0.0,0.0,0.0,0.0,0.0,0.0,0.0,0.0,0.0,0.0,0.0,0.0,0.0,0.0,0.0,0.0,0.0,0.0,0.0,0.0,0.0,0.0,0.0,0.0,0.0,0.0,0.0,0.0,0.0,0.0,0.0,0.0,0.0,0.0,0.0,0.0,0.0,0.0,0.0,0.0,0.0,0.0,0.0,0.0,0.0,0.0,0.0,0.0,0.0,0.0,0.0,0.0,0.0,0.0,0.0,0.0,0.0,0.0,0.0,0.0,0.0,0.0,0.0,0.0,0.0,0.0,0.0,0.0,0.0,-2.1413,-2.3,-2.306,-2.2866,-2.2624,-2.2283,-2.2247,-2.1221,-1.8831,-1.7925,0.0,0.0,0.0,0.0,0.0,0.0,0.0,0.0,0.0,0.0,0.0,0.0,0.0,0.0,0.0,0.0,0.0,0.0,0.0,0.0,0.0,0.0,0.0,0.0,0.0,0.0,0.0,0.0,0.0,0.0,0.0,0.0,0.0,0.0,0.0,0.0,0.0,0.0,0.0,0.0,0.0,0.0,0.0,0.0,0.0,0.0,0.0,0.0,0.0,0.0,0.0,0.0,0.0,0.0,0.0,0.0,0.0,0.0,0.0,0.0,0.0,0.0,0.0,0.0,0.0,0.0,0.0,0.0,0.0,0.0,0.0,0.0,0.0,0.0,0.0,0.0,0.0,0.0,0.0,0.0,0.0,0.0,0.0,0.0,0.0,0.0,0.0,0.0,0.0,0.0,0.0,0.0,0.0,0.0,0.0,0.0,0.0,0.0,0.0,0.0,0.0,0.0,-2.1901,-2.3318,0.0,-2.3054,-2.2443,-2.2346,-2.2334,-2.1172,-1.8601,0.0,0.0,0.0,0.0,0.0,0.0,0.0,0.0,0.0,0.0,0.0,0.0,0.0,0.0,0.0,0.0,0.0,0.0,0.0,0.0,0.0,0.0,0.0,0.0,0.0,0.0,0.0,0.0,0.0,0.0,0.0,0.0,0.0,0.0,0.0,0.0,0.0,0.0,0.0,0.0,0.0,0.0,0.0,0.0,0.0,0.0,0.0,0.0,0.0,0.0,0.0,0.0,0.0,0.0,0.0,0.0,0.0,0.0,0.0,0.0,0.0,0.0,0.0,0.0,0.0,0.0,0.0,0.0,0.0,0.0,0.0,0.0,0.0,0.0,0.0,0.0,0.0,0.0,0.0,0.0,0.0,0.0,0.0,0.0,0.0,0.0,0.0,0.0,0.0,0.0,0.0,0.0,0.0,0.0,0.0,0.0,0.0,0.0,0.0,0.0,0.0,0.0,-2.0917,-2.2593,-2.3919,0.0,-2.3266,-2.2334,-2.2334,-2.2334,-2.116,-1.8577,0.0,0.0,0.0,0.0,0.0,0.0,0.0,0.0,0.0,0.0,0.0,0.0,0.0,0.0,0.0,0.0,0.0,0.0,0.0,0.0,0.0,0.0,0.0,0.0,0.0,0.0,0.0,0.0,0.0,0.0,0.0,0.0,0.0,0.0,0.0,0.0,0.0,0.0,0.0,0.0,0.0,0.0,0.0,0.0,0.0,0.0,0.0,0.0,0.0,0.0,0.0,0.0,0.0,0.0,0.0,0.0,0.0,0.0,0.0,0.0,0.0,0.0,0.0,0.0,0.0,0.0,0.0,0.0,0.0,0.0,0.0,0.0,0.0,0.0,0.0,0.0,0.0,0.0,0.0,0.0,0.0,0.0,0.0,0.0,0.0,0.0,0.0,0.0,0.0,0.0,0.0,0.0,0.0,0.0,0.0,0.0,0.0,0.0,0.0,0.0,0.0,0.0,-2.1289,-2.3547,-2.5037,-2.5037,-2.3379,-2.2259,-2.2259,-2.2259,-2.1233,0.0,0.0,0.0,0.0,0.0,0.0,0.0,0.0,0.0,0.0,0.0,0.0,0.0,0.0,0.0,0.0,0.0,0.0,0.0,0.0,0.0,0.0,0.0,0.0,0.0,0.0,0.0,0.0,0.0,0.0,0.0,0.0,0.0,0.0,0.0,0.0,0.0,0.0,0.0,0.0,0.0,0.0,0.0,0.0,0.0,0.0,0.0,0.0,0.0,0.0,0.0,0.0,0.0,0.0,0.0,0.0,0.0,0.0,0.0,0.0,0.0,0.0,0.0,0.0,0.0,0.0,0.0,0.0,0.0,0.0,0.0,0.0,0.0,0.0,0.0,0.0,0.0,0.0,0.0,0.0,0.0,0.0,0.0,0.0,0.0,0.0,0.0,0.0,0.0,0.0,0.0,0.0,0.0,0.0,0.0,0.0,0.0,0.0,0.0,0.0,0.0,0.0,0.0,-2.1688,-2.482,-2.6617,-2.542,-2.3669,-2.2612,-2.2612,-2.2443,-2.116,-1.8577,0.0,0.0,0.0,0.0,0.0,0.0,0.0,0.0,0.0,0.0,0.0,0.0,0.0,0.0,0.0,0.0,0.0,0.0,0.0,0.0,0.0,0.0,0.0,0.0,0.0,0.0,0.0,0.0,0.0,0.0,0.0,0.0,0.0,0.0,0.0,0.0,0.0,0.0,0.0,0.0,0.0,0.0,0.0,0.0,0.0,0.0,0.0,0.0,0.0,0.0,0.0,0.0,0.0,0.0,0.0,0.0,0.0,0.0,0.0,0.0,0.0,0.0,0.0,0.0,0.0,0.0,0.0,0.0,0.0,0.0,0.0,0.0,0.0,0.0,0.0,0.0,0.0,0.0,0.0,0.0,0.0,0.0,0.0,0.0,0.0,0.0,0.0,0.0,0.0,0.0,0.0,0.0,0.0,0.0,0.0,0.0,0.0,0.0,0.0,0.0,0.0,0.0,-2.3398,-2.6653,-2.8252,-2.6606,-2.4862,-2.3554,-2.2879,-2.2745,-2.1692,-1.9386,0.0,0.0,0.0,0.0,0.0,0.0,0.0,0.0,0.0,0.0,0.0,0.0,0.0,0.0,0.0,0.0,0.0,0.0,0.0,0.0,0.0,0.0,0.0,0.0,0.0,0.0,0.0,0.0,0.0,0.0,0.0,0.0,0.0,0.0,0.0,0.0,0.0,0.0,0.0,0.0,0.0,0.0,0.0,0.0,0.0,0.0,0.0,0.0,0.0,0.0,0.0,0.0,0.0,0.0,0.0,0.0,0.0,0.0,0.0,0.0,0.0,0.0,0.0,0.0,0.0,0.0,0.0,0.0,0.0,0.0,0.0,0.0,0.0,0.0,0.0,0.0,0.0,0.0,0.0,0.0,0.0,0.0,0.0,0.0,0.0,0.0,0.0,0.0,0.0,0.0,0.0,0.0,0.0,0.0,0.0,0.0,0.0,0.0,0.0,0.0,0.0,0.0,-2.5563,-2.8563,-2.9782,-2.7978,-2.642,-2.4892,-2.3235,-2.3133,-2.2443,-2.088,0.0,0.0,0.0,0.0,0.0,0.0,0.0,0.0,0.0,0.0,0.0,0.0,0.0,0.0,0.0,0.0,0.0,0.0,0.0,0.0,0.0,0.0,0.0,0.0,0.0,0.0,0.0,0.0,0.0,0.0,0.0,0.0,0.0,0.0,0.0,0.0,0.0,0.0,0.0,0.0,0.0,0.0,0.0,0.0,0.0,0.0,0.0,0.0,0.0,0.0,0.0,0.0,0.0,0.0,0.0,0.0,0.0,0.0,0.0,0.0,-1.87,0.0,0.0,0.0,0.0,0.0,0.0,0.0,0.0,0.0,0.0,0.0,0.0,0.0,0.0,0.0,0.0,0.0,0.0,0.0,0.0,0.0,0.0,0.0,0.0,0.0,0.0,0.0,0.0,0.0,0.0,0.0,0.0,0.0,0.0,0.0,0.0,0.0,0.0,0.0,0.0,0.0,-2.4321,-2.834,-2.9946,-2.6928,-2.6179,-2.5127,-2.3448,-2.3164,-2.2527,-2.1135,-2.0219,0.0,0.0,0.0,0.0,0.0,0.0,0.0,0.0,0.0,0.0,0.0,0.0,0.0,0.0,0.0,0.0,0.0,0.0,0.0,0.0,0.0,0.0,0.0,0.0,0.0,0.0,0.0,0.0,0.0,0.0,0.0,0.0,0.0,0.0,0.0,0.0,0.0,0.0,0.0,0.0,0.0,0.0,0.0,0.0,0.0,0.0,0.0,0.0,0.0,0.0,0.0,0.0,0.0,0.0,0.0,0.0,0.0,0.0,0.0,0.0,-1.9326,0.0,0.0,0.0,0.0,0.0,0.0,0.0,0.0,0.0,0.0,0.0,0.0,0.0,0.0,0.0,0.0,0.0,0.0,0.0,0.0,0.0,0.0,0.0,0.0,0.0,0.0,0.0,0.0,0.0,0.0,0.0,0.0,0.0,0.0,0.0,0.0,0.0,0.0,0.0,0.0,-2.5897,-3.0121,-3.1946,-2.9027,-2.8047,-2.6816,-2.4967,-2.3852,-2.2887,-2.214,-2.0919,0.0,0.0,0.0,0.0,0.0,0.0,0.0,0.0,0.0,0.0,0.0,0.0,0.0,0.0,0.0,0.0,0.0,0.0,0.0,0.0,0.0,0.0,0.0,0.0,0.0,0.0,0.0,0.0,0.0,0.0,0.0,0.0,0.0,0.0,0.0,0.0,0.0,0.0,0.0,0.0,0.0,0.0,0.0,0.0,0.0,0.0,0.0,0.0,0.0,0.0,0.0,0.0,0.0,-2.0134,-2.0581,-2.0834,-2.0931,-2.1474,-2.2307,-2.1414,-2.1281,-2.1595,0.0,0.0,0.0,0.0,0.0,0.0,0.0,0.0,0.0,0.0,0.0,0.0,0.0,0.0,0.0,0.0,0.0,0.0,0.0,0.0,0.0,0.0,0.0,0.0,0.0,-2.139,-2.1788,0.0,0.0,0.0,0.0,0.0,0.0,0.0,0.0,0.0,0.0,0.0,0.0,-2.8639,-3.245,-3.4088,-3.174,-3.0589,-2.895,-2.6598,-2.4952,-2.3756,-2.3206,-2.1631,-2.0436,0.0,0.0,0.0,0.0,0.0,0.0,0.0,0.0,0.0,0.0,0.0,0.0,0.0,0.0,0.0,0.0,0.0,0.0,0.0,0.0,0.0,0.0,0.0,0.0,0.0,0.0,0.0,0.0,0.0,0.0,0.0,0.0,-1.6513,-1.6839,0.0,0.0,0.0,0.0,0.0,0.0,0.0,0.0,0.0,0.0,0.0,0.0,0.0,-1.9181,-1.9953,-2.0521,-2.0977,-2.1219,-2.2225,-2.2766,-2.2978,-2.3502,-2.3913,-2.4263,-2.4118,0.0,-2.2539,-2.214,0.0,0.0,0.0,0.0,0.0,0.0,0.0,0.0,0.0,0.0,0.0,0.0,0.0,0.0,0.0,0.0,0.0,0.0,0.0,0.0,0.0,0.0,-2.3997,-2.3997,-2.4106,-2.4166,0.0,-2.1607,-1.9866,-2.1129,-2.12,0.0,0.0,0.0,0.0,0.0,0.0,0.0,-3.1162,-3.358,-3.4289,-3.2506,-3.2206,-3.0654,-2.7134,-2.66,-2.5566,-2.3508,-2.2947,-2.2103,-2.0569,-1.9941,0.0,0.0,0.0,0.0,0.0,0.0,0.0,0.0,0.0,0.0,0.0,0.0,0.0,0.0,0.0,0.0,0.0,0.0,0.0,0.0,0.0,0.0,0.0,0.0,0.0,0.0,0.0,0.0,0.0,-1.6066,-1.6851,-1.7261,-1.7105,-1.6779,0.0,0.0,0.0,0.0,0.0,0.0,0.0,0.0,0.0,-2.0171,-2.0408,-2.0868,-2.1607,-2.2138,-2.2536,-2.2802,-2.3562,-2.3997,-2.413,-2.4434,-2.4674,-2.4866,-2.5023,-2.4842,-2.4359,-2.3345,-2.2718,-2.2355,0.0,0.0,0.0,0.0,-2.1861,-2.1909,-2.2742,-2.3019,0.0,0.0,0.0,0.0,0.0,0.0,0.0,0.0,0.0,0.0,0.0,0.0,0.0,-2.448,-2.4625,-2.4873,-2.5931,-2.4906,-2.3901,0.0,-2.3447,-2.2353,-2.0275,0.0,0.0,0.0,0.0,-3.0323,-3.1916,-3.4162,-3.5191,-3.4042,-3.3208,-3.195,-2.9908,-2.7806,-2.6122,-2.4867,-2.3733,-2.2806,-2.2103,-2.1064,-1.9857,0.0,0.0,0.0,0.0,0.0,0.0,0.0,0.0,0.0,0.0,0.0,0.0,0.0,0.0,0.0,0.0,0.0,0.0,0.0,0.0,0.0,0.0,0.0,0.0,0.0,0.0,0.0,0.0,-1.6754,-1.7455,-1.7841,-1.795,-1.7696,0.0,0.0,0.0,0.0,0.0,0.0,-1.9784,-2.0424,-2.1052,-2.1655,-2.186,-2.238,-2.3261,-2.3659,-2.3916,-2.4263,-2.4782,-2.5035,-2.5047,-2.5397,-2.5468,-2.548,-2.5759,-2.5953,-2.6025,-2.4554,-2.3977,-2.3916,-2.3333,-2.3031,-2.3007,-2.3261,-2.3369,-2.3502,-2.442,-2.4745,-2.4673,-2.4287,0.0,-2.3562,-2.2573,0.0,0.0,0.0,0.0,-2.2911,-2.39,-2.4009,-2.4057,-2.4842,-2.5359,-2.6113,-2.7433,-2.7989,-2.7956,0.0,-2.6752,-2.5655,-2.3432,0.0,0.0,0.0,0.0,-3.2484,-3.3066,-3.4864,-3.584,-3.5189,-3.42,-3.3001,-3.1434,-2.9169,-2.7314,-2.601,-2.4559,-2.3801,-2.3726,-2.2386,-2.1257,-2.0593,0.0,0.0,0.0,0.0,0.0,0.0,0.0,0.0,0.0,0.0,0.0,0.0,0.0,0.0,0.0,0.0,0.0,0.0,0.0,0.0,0.0,0.0,0.0,0.0,0.0,0.0,0.0,0.0,0.0,-1.8988,-1.9217,0.0,0.0,0.0,0.0,-1.9688,-2.0267,-2.0919,-2.1691,-2.2005,-2.2524,-2.3231,-2.3267,-2.3784,-2.4831,-2.4867,-2.5011,-2.5361,-2.5892,-2.6134,-2.6158,-2.6689,-2.693,-2.693,-2.6942,-2.6954,-2.6906,-2.6061,-2.5711,-2.5675,-2.5385,-2.512,-2.4939,-2.5204,-2.5301,-2.5373,-2.5928,-2.6122,-2.6109,-2.6085,-2.5397,-2.4552,-2.4492,-2.3961,0.0,0.0,-2.4685,-2.5071,-2.5868,-2.6073,-2.6073,-2.6122,-2.7521,-2.8898,-2.8985,-2.9831,-3.0875,0.0,-3.238,-3.2045,-3.0276,0.0,-3.1997,-3.077,-3.1755,-3.3443,-3.5618,-3.6011,-3.5943,-3.5515,-3.5418,-3.3813,-2.9844,-3.0792,-2.9955,-2.6179,-2.5828,-2.5604,-2.5388,-2.3882,-2.2539,-2.1438,-2.0605,0.0,0.0,0.0,0.0,0.0,0.0,0.0,0.0,0.0,0.0,0.0,0.0,0.0,0.0,0.0,0.0,0.0,0.0,0.0,0.0,0.0,0.0,0.0,0.0,0.0,0.0,0.0,0.0,-1.912,-1.947,0.0,-1.9712,-2.0014,-2.0472,-2.1112,-2.2126,-2.2838,-2.3128,-2.3719,-2.4263,-2.4626,-2.465,-2.5071,-2.5796,-2.5808,-2.6025,-2.646,-2.6653,-2.6737,-2.6749,-2.7111,-2.728,-2.7292,-2.7461,-2.7534,-2.751,-2.722,-2.6906,-2.6592,-2.6496,-2.6303,-2.6085,-2.6182,-2.6097,-2.5965,-2.6158,-2.6218,-2.6218,-2.6218,-2.5965,-2.5687,-2.5868,-2.5723,-2.548,-2.5844,-2.5989,-2.6097,-2.6194,-2.6218,-2.6218,-2.6218,-2.7697,-2.9412,-3.0522,-3.2055,-3.3624,-3.5179,-3.4261,-3.292,-3.1788,-3.3825,-3.4694,-3.2162,-3.3943,-3.5806,-3.6354,-3.6234,-3.5943,-3.5549,-3.5309,-3.4463,-3.2761,-3.2168,-3.0701,-2.7919,-2.6734,-2.5597,-2.4485,-2.3695,-2.3128,-2.2754,-2.2295,-2.0844,0.0,0.0,0.0,0.0,0.0,0.0,0.0,0.0,0.0,0.0,0.0,0.0,0.0,0.0,0.0,0.0,0.0,0.0,0.0,0.0,0.0,0.0,0.0,0.0,0.0,0.0,-1.9615,-1.9253,-1.9929,-2.0424,-2.0412,-2.1207,-2.186,-2.2488,-2.3514,-2.419,-2.4289,-2.4891,-2.5385,-2.5566,-2.5651,-2.5953,-2.6484,-2.658,-2.6894,-2.7425,-2.7522,-2.7618,-2.7715,-2.7968,-2.8089,-2.8101,-2.827,-2.8343,-2.8343,-2.8343,-2.8137,-2.7799,-2.7437,-2.7184,-2.7027,-2.693,-2.6725,-2.6496,-2.6496,-2.6496,-2.6496,-2.6496,-2.6496,-2.6532,-2.6713,-2.6773,-2.6773,-2.6773,-2.6773,-2.6725,-2.6544,-2.6928,-2.7447,-2.7447,-2.936,-3.1613,-3.2722,-3.4469,-3.6118,-3.7334,-3.6006,-3.4536,-3.3967,-3.5713,-3.628,-3.3559,-3.5308,-3.6731,-3.596,-3.5994,-3.5943,-3.5549,-3.5292,-3.4766,-3.3814,-3.226,-3.0977,-3.0091,-2.7403,-2.5738,-2.5685,-2.3823,-2.279,-2.279,-2.2609,-2.1413,-1.9015,0.0,0.0,0.0,0.0,0.0,0.0,0.0,0.0,0.0,0.0,0.0,0.0,0.0,0.0,0.0,0.0,0.0,0.0,0.0,0.0,0.0,0.0,0.0,-1.8794,-1.9193,-1.9531,-1.9531,-2.069,-2.1293,-2.0798,-2.1933,-2.3031,-2.3736,-2.4371,-2.4902,-2.5433,-2.5711,-2.5856,-2.588,-2.6122,-2.652,-2.7075,-2.7329,-2.7715,-2.8246,-2.8512,-2.8777,-2.9031,-2.9284,-2.9405,-2.9405,-2.9405,-2.9405,-2.9405,-2.9405,-2.9405,-2.9296,-2.827,-2.7848,-2.7799,-2.7546,-2.7292,-2.7051,-2.7051,-2.7051,-2.7051,-2.7051,-2.7051,-2.7051,-2.7051,-2.7039,-2.7039,-2.7039,-2.7039,-2.7039,-2.7039,-2.8449,-2.9949,-2.9949,-3.2764,-3.5494,-3.5494,-3.6999,-3.8323,-3.8323,-3.7741,-3.7244,-3.7244,-3.7244,-3.6748,-3.5309,-3.5994,0.0,-3.4659,-3.5429,-3.5943,-3.5498,-3.5429,-3.4626,-3.2681,-3.1227,-3.0985,-3.2443,-2.7839,-2.6391,-2.9187,-2.4393,-2.1655,-2.1583,-2.1523,-2.1366,-2.1171,0.0,0.0,0.0,0.0,0.0,0.0,0.0,0.0,0.0,0.0,0.0,0.0,0.0,0.0,0.0,0.0,0.0,0.0,0.0,0.0,0.0,0.0,-1.9724,-1.9579,-2.0352,-2.0931,-2.0931,-2.1426,-2.2005,-2.2633,-2.3357,-2.4057,-2.4673,-2.5373,-2.5844,-2.6001,-2.6266,-2.6592,-2.6966,-2.7051,-2.7449,-2.8174,-2.8258,-2.856,-2.9079,-2.9151,-2.9224,-2.9296,-2.9369,-2.9405,-2.9405,-2.9405,-2.9405,-2.9405,-2.9405,-2.9405,-2.9381,-2.9079,-2.8729,-2.8391,-2.8318,-2.7993,-2.757,-2.7377,-2.7437,-2.757,-2.7377,-2.7437,-2.7558,-2.7377,-2.7317,-2.728,-2.7087,-2.7172,-2.7268,-2.7075,-2.8602,-3.0127,-2.99,-3.2764,-3.5494,-3.5494,-3.6999,-3.8323,-3.8323,-3.8169,-3.8015,-3.8015,-3.8015,-3.7878,-3.7467,-3.7672,0.0,-3.6559,-3.6457,-3.5926,-3.4453,-3.3802,-3.3378,-3.3095,-3.2716,-3.2442,-3.2475,-3.1682,-3.029,-2.8221,-2.6881,-2.5378,-2.3768,-2.2452,-2.1824,0.0,0.0,0.0,0.0,0.0,0.0,0.0,0.0,0.0,0.0,0.0,0.0,0.0,0.0,0.0,0.0,0.0,0.0,0.0,0.0,0.0,0.0,-1.9905,-2.046,-2.069,-2.1052,-2.139,-2.1619,-2.2066,-2.2693,-2.3459,-2.4121,-2.4794,-2.5252,-2.5904,-2.6266,-2.6387,-2.6653,-2.6991,-2.7413,-2.763,-2.8029,-2.862,-2.8837,-2.9163,-2.9574,-2.9574,-2.9634,-2.9743,-2.9743,-2.9743,0.0,-2.9743,-2.9743,-2.9731,-2.961,-2.9634,0.0,0.0,0.0,0.0,0.0,-2.8174,-2.7787,-2.763,-2.7691,-2.7787,-2.763,-2.7691,-2.7787,-2.763,-2.7582,-2.7558,-2.7401,-2.7461,-2.7546,-2.7401,-2.9456,-3.1617,-3.1527,-3.4421,-3.7184,-3.7184,-3.8003,-3.8803,-3.8803,0.0,0.0,-3.8803,-3.8546,-3.8118,-3.7484,-3.7792,-3.7707,-3.6645,-3.6713,-3.6457,-3.5361,-3.4847,-3.4676,-3.4898,-3.3737,0.0,0.0,0.0,-3.039,-2.7081,-2.6265,0.0,0.0,0.0,-2.2826,-2.3756,0.0,0.0,0.0,-2.116,-2.0883,0.0,0.0,0.0,0.0,0.0,0.0,0.0,0.0,0.0,0.0,0.0,0.0,0.0,0.0,0.0,0.0,-2.105,-2.1449,-2.1885,-2.1643,-2.1474,-2.1981,-2.2718,-2.3393,-2.3925,-2.4685,-2.5337,-2.5832,-2.6122,-2.6387,-2.6665,0.0,0.0,0.0,0.0,-2.8367,-2.8705,-2.92,-2.9586,-2.9839,-2.9839,-2.9972,-3.0214,-3.0214,-3.0202,-3.0165,-3.0165,-3.0153,-3.0105,-2.9888,-2.996,-3.0165,-2.961,-2.926,-2.8994,-2.8451,-2.8101,0.0,-2.7872,0.0,0.0,-2.7872,-2.7872,-2.7896,-2.7872,-2.786,-2.7848,-2.7824,-2.7836,-2.7848,-2.8091,-3.0847,-3.3685,-3.3928,-3.6827,-3.947,-3.947,-3.947,-3.947,-3.947,-3.947,-3.947,-3.947,-3.8905,-3.7998,-3.6679,-3.7279,-3.7381,-3.6011,-3.6679,-3.721,-3.7039,0.0,0.0,-3.7022,-3.4509,-3.4167,-3.7007,-3.2505,-2.8802,-2.6708,-2.4606,-2.355,-2.3688,-2.3526,-2.4214,-2.5868,-2.5639,-2.553,-2.5446,-2.2078,-2.1414,0.0,0.0,0.0,0.0,0.0,0.0,0.0,0.0,0.0,0.0,0.0,0.0,0.0,0.0,0.0,-2.1013,-2.1643,-2.2212,-2.2527,-2.2673,-2.2778,-2.3104,-2.3659,-2.4214,-2.4758,-2.5337,-2.5808,-2.6122,-2.6399,-2.6677,-2.6942,-2.7003,0.0,-2.7715,-2.8041,-2.8536,-2.9248,-2.9562,-2.9864,-3.0129,0.0,0.0,-3.0214,-3.0214,-3.0093,-2.9876,-2.9876,-2.9755,-2.9574,-2.9731,-2.996,-3.0165,-2.961,-2.9369,-2.926,-2.8741,-2.8512,-2.8439,-2.821,-2.827,-2.8427,-2.8198,-2.8282,-2.8427,-2.8198,-2.8125,0.0,-2.7872,-2.7968,-2.8454,-2.9883,-3.2089,-3.4238,-3.5707,-3.7825,-3.947,-3.947,-3.947,-3.947,-3.947,-3.947,-3.947,-3.947,-3.9351,-3.9145,-3.8854,-3.8734,-3.8477,-3.7861,-3.7707,-3.7193,-3.596,-3.5583,-3.5515,-3.5806,-3.5259,-3.56,-3.7124,-3.366,-3.1405,-3.1034,-2.7724,-2.5856,-2.5687,-2.5627,-2.5784,-2.6146,-2.6097,-2.6073,-2.6037,-2.489,-2.4673,0.0,0.0,0.0,0.0,0.0,0.0,0.0,0.0,0.0,0.0,0.0,-1.9833,0.0,0.0,-2.1353,-2.2019,-2.2467,-2.2866,-2.3188,-2.3587,-2.384,-2.376,-2.4229,-2.4902,-2.5566,-2.6001,-2.6399,-2.6785,-2.6834,-2.6954,-2.7208,-2.722,-2.7401,-2.7799,-2.8331,-2.8862,-2.9393,-2.9803,-3.0081,-3.0214,-3.0214,-3.0214,-3.0214,-3.0214,-3.0141,-3.0008,-3.0008,-2.9936,-2.9815,-2.9948,-3.0008,-2.9972,-2.9562,-2.9405,-2.9357,-2.897,-2.8741,-2.8608,-2.8463,-2.8512,-2.8596,-2.8463,-2.8512,-2.8596,-2.8451,-2.8415,-2.8391,-2.8258,-2.8306,-2.8842,-3.0754,-3.2757,-3.4777,-3.6644,-3.8637,-4.0018,-4.0018,-4.0018,-4.0018,-4.0018,-4.0018,-4.0018,-4.0018,-4.0018,-3.9899,-3.9522,-3.9316,-3.9128,-3.8922,-3.8734,-3.8323,-3.757,-3.733,-3.7296,-3.7467,-3.7313,-3.745,-3.8032,-3.4461,-3.2441,-3.2544,-2.8858,-2.6773,-2.6629,-2.6496,-2.6423,-2.6423,-2.6291,-2.6218,-2.6218,-2.5953,-2.5904,0.0,0.0,0.0,0.0,0.0,0.0,0.0,0.0,-1.9072,-1.9984,-2.0267,-2.0702,-2.1619,-2.1643,-2.1897,-2.3019,-2.3237,-2.3442,-2.3925,-2.4407,-2.4673,-2.4552,-2.4975,-2.5542,-2.623,-2.6556,-2.6918,-2.7389,-2.722,-2.7196,-2.7413,-2.7473,-2.7618,-2.7884,-2.862,-2.9139,-2.9405,-2.9948,-3.0214,-3.0214,-3.0214,-3.0214,-3.0214,-3.0214,-3.0153,-3.0057,-3.0008,-2.9984,-2.9984,-3.0033,-2.9924,-2.9695,-2.9429,-2.9332,-2.9296,-2.9031,-2.8801,-2.862,-2.862,-2.862,-2.862,-2.862,-2.862,-2.862,-2.862,-2.862,-2.862,-2.862,-2.862,-2.9184,-3.1529,-3.3389,-3.5245,-3.7575,-3.9458,-4.0583,-4.0583,-4.0583,-4.0583,-4.0583,-4.0583,-4.0566,-4.0481,-4.0481,-4.0292,-3.9762,-3.9625,-3.9573,-3.9573,-3.9505,-3.947,-3.947,-3.947,-3.947,-3.947,-3.9196,-3.8851,-3.8484,-3.4979,-3.2703,-3.2347,-2.8912,-2.7099,-2.7099,-2.6846,-2.6713,-2.6713,-2.6484,-2.6375,-2.6375,-2.6375,-2.6351,-1.8819,0.0,0.0,-1.9145,-1.9354,-1.979,0.0,0.0,-2.111,-2.2152,-2.2394,-2.2527,-2.2879,-2.3043,-2.3231,-2.3695,-2.3949,-2.4202,-2.4492,-2.4806,-2.5156,-2.5602,-2.5904,-2.6218,-2.6556,-2.6834,-2.7111,-2.7401,-2.7389,-2.7389,-2.7425,-2.7642,-2.7884,-2.8149,-2.8717,-2.9139,-2.9405,-2.9948,-3.0214,-3.0214,-3.0214,-3.0214,-3.0214,-3.0214,-2.9948,-2.9477,-2.9248,-2.9151,-2.9163,-2.9405,-2.9477,-2.9417,-2.9163,-2.9055,-2.9031,-2.8765,-2.8644,-2.862,-2.862,-2.862,-2.862,-2.862,-2.862,-2.862,-2.862,-2.862,-2.862,-2.862,-2.862,-2.9459,-3.3295,-3.4406,-3.5524,-3.9366,-4.0402,-4.0583,-4.0583,-4.0583,-4.0583,-4.0583,-4.0583,-4.0481,-4.0155,-4.0087,-4.0173,-4.0429,-4.019,-3.9967,-3.9967,-3.9676,-3.947,-3.947,-3.947,-3.947,-3.947,-3.9419,-3.8679,-3.6852,-3.4728,-3.2722,-3.091,-2.859,-2.7377,-2.7377,-2.7123,-2.6991,-2.6991,-2.6954,-2.6942,-2.6942,-2.6942,-2.681,-2.0533,0.0,0.0,0.0,-2.0456,-2.0662,-2.1449,-2.1426,-2.1559,-2.2539,-2.2854,-2.2959,-2.3237,-2.3502,-2.3688,0.0,-2.4432,-2.4662,-2.4854,-2.5361,-2.5808,-2.6025,-2.6568,-2.6966,-2.7087,-2.7329,-2.7594,-2.786,-2.7739,-2.7787,-2.8101,-2.8065,-2.8234,-2.8656,-2.9043,-2.9369,-2.9634,-3.002,-3.0214,-3.0214,-3.0214,-3.0214,-3.0214,-3.0045,-2.9767,-2.9393,-2.9284,-2.9236,-2.9248,-2.9357,-2.9405,-2.9381,-2.9115,-2.9019,-2.8982,-2.8717,-2.862,-2.862,-2.862,-2.862,-2.862,-2.862,-2.862,-2.862,-2.862,-2.862,-2.862,-2.862,-2.862,-2.9554,-3.3563,-3.4592,-3.5617,-3.964,-4.0583,-4.0583,-4.0583,-4.0583,-4.0515,-4.031,-4.0258,-4.0138,-3.9762,-3.9881,-4.0087,-4.0241,-4.0138,-4.0121,-4.0327,-4.0224,-4.0121,-4.0121,-4.0121,-4.0121,-4.0121,-3.9916,-3.9422,-3.8602,-3.5392,-3.3187,-3.238,-2.9346,-2.7655,-2.7655,-2.7546,-2.7486,-2.7486,-2.7486,-2.7486,-2.7486,-2.7486,-2.7425,-2.1088,0.0,0.0,-2.1062,-2.1292,-2.1486,-2.1558,-2.1655,-2.2005,-2.273,-2.3019,-2.3261,-2.3611,-2.3748,-2.3977,-2.4407,-2.4794,-2.5011,-2.524,-2.582,-2.6278,-2.6423,-2.7087,-2.7558,-2.763,-2.7811,-2.7968,-2.8089,-2.8065,-2.8174,-2.8487,-2.8391,-2.85,-2.8898,-2.9224,-2.9501,-2.9682,-3.0033,-3.0177,-3.0105,-3.0105,-3.0069,-2.9984,-2.9707,-2.9477,-2.9296,-2.9296,-2.926,-2.92,-2.9272,-2.926,-2.9175,-2.8982,-2.891,-2.8886,-2.8693,-2.862,-2.862,-2.862,-2.862,-2.862,-2.862,-2.862,-2.862,-2.862,-2.862,-2.862,-2.862,-2.9004,-3.021,-3.3656,-3.5059,-3.6267,-3.9731,-4.0583,-4.0583,-4.0583,-4.0583,-4.0498,-4.0241,-4.019,-4.007,-3.9693,-3.9847,-4.0036,-4.0036,-4.0036,-4.0173,-4.0532,-4.0583,-4.0583,-4.0583,-4.0583,-4.0583,-4.0583,-4.0344,-3.9903,-3.9345,-3.6427,-3.4179,-3.3094,-3.0253,-2.847,-2.792,-2.7848,-2.7811,-2.7811,-2.7811,-2.7811,-2.7811,-2.7811,-2.7811,0.0,0.0,-2.0726,-2.1062,-2.1716,-2.237,-2.2624,-2.2685,-2.2766,-2.3321,-2.3351,-2.3519,-2.4118,-2.4214,-2.4395,-2.4855,-2.4951,-2.5216,-2.5735,-2.6037,-2.6411,-2.6942,-2.7473,-2.7896,0.0,-2.8186,-2.8089,-2.7836,-2.8306,-2.8487,-2.8234,-2.8463,-2.862,-2.8632,-2.9139,-2.9405,-2.9417,-2.9948,-3.0081,-2.9803,-2.9803,-2.967,-2.9417,-2.9163,-2.9031,-2.9031,-2.9031,-2.8886,-2.8669,-2.8922,-2.8874,-2.8644,-2.8644,-2.8632,-2.8632,-2.862,-2.862,-2.862,-2.862,-2.862,-2.862,-2.862,-2.862,-2.862,-2.862,-2.862,-2.862,-2.862,-3.0032,-3.2002,-3.4031,-3.6081,-3.8051,-4.0112,-4.0583,-4.0583,-4.0583,-4.0583,-4.0583,-4.0566,-4.0566,-4.0446,-4.0087,-4.0018,-4.0036,-4.0036,-4.0036,-4.0173,-4.0532,-4.0583,-4.0583,-4.0583,-4.0583,-4.0583,-4.0583,-4.0566,-3.9714,-3.7851,-3.756,-3.5695,-3.1786,-3.1303,-3.0233,-2.8186,-2.7944,-2.7811,-2.7811,-2.7811,-2.7811,-2.7811,-2.7811,-2.7811,0.0,0.0,-2.1305,-2.1752,-2.2261,-2.2661,-2.2927,-2.3188,-2.355,-2.39,-2.376,-2.3688,-2.3856,-2.4118,-2.4299,-2.448,-2.5108,-2.5687,-2.6037,-2.6472,-2.6954,-2.7486,-2.786,0.0,0.0,0.0,0.0,-2.8355,-2.8524,-2.8656,-2.8741,-2.8669,-2.8777,-2.9127,-2.9139,-2.9224,-2.9405,-2.9586,-2.9634,-2.9538,-2.9538,-2.9393,-2.9139,-2.9055,-2.8922,-2.8753,-2.8753,-2.8705,-2.8632,-2.8717,-2.8705,-2.862,-2.862,-2.862,-2.862,-2.862,-2.862,-2.862,-2.862,-2.862,-2.862,-2.862,-2.862,-2.862,-2.862,-2.862,-2.8908,-3.0223,-3.1067,-3.2367,-3.571,-3.7115,-3.8143,-4.0112,-4.0583,-4.0583,-4.0583,-4.0583,-4.0515,-4.0275,-4.0224,-4.0104,-3.9727,-3.9864,-4.0121,-4.0361,-4.0395,-4.0446,-4.0566,-4.0583,-4.0583,-4.0583,-4.0583,-4.0583,-4.0583,-4.0583,-4.0311,-3.964,-3.8327,-3.6359,-3.3656,-3.2257,-3.0531,-2.8475,-2.8391,-2.8355,-2.8355,-2.8355,-2.8355,-2.8355,-2.8355,-2.8355,0.0,-2.1426,-2.1909,-2.2536,-2.2814,-2.3031,-2.3381,-2.3744,-2.4057,-2.4323,-2.4013,-2.3796,-2.3973,-2.4202,-2.4371,-2.4371,-2.5192,-2.5953,-2.6315,-2.6749,-2.7256,-2.7872,-2.8186,-2.8355,0.0,0.0,0.0,-2.8475,-2.856,-2.8693,-2.8862,-2.8717,-2.8777,-2.9115,-2.9055,-2.9091,-2.926,-2.9357,-2.9357,-2.926,-2.9175,-2.9031,-2.8874,-2.8874,-2.8777,-2.862,-2.862,-2.862,-2.862,-2.862,-2.862,-2.862,-2.862,-2.862,-2.862,-2.862,-2.862,-2.862,-2.862,-2.862,-2.862,-2.862,-2.862,-2.862,-2.862,-2.862,-2.8992,-3.1067,-3.2083,-3.3389,-3.6745,-3.8143,-3.8984,-4.0294,-4.0583,-4.0583,-4.0583,-4.0583,-4.0515,-4.0275,-4.0344,-4.0361,-4.0121,-4.0275,-4.0515,-4.0755,-4.0669,-4.0583,-4.0583,-4.0583,-4.0583,-4.0583,-4.0583,-4.0583,-4.0583,-4.0583,-4.0583,-4.0583,-3.871,-3.6745,-3.4686,-3.265,-3.0687,-2.862,-2.862,-2.862,-2.862,-2.862,-2.862,-2.862,-2.862,-2.862,-2.1728,-2.209,-2.25,-2.3261,-2.3399,-2.3544,-2.4142,-2.4263,-2.4347,-2.4576,-2.4214,-2.3832,0.0,0.0,-2.4625,-2.4625,-2.5349,-2.6097,-2.6629,-2.693,-2.7377,0.0,0.0,0.0,0.0,0.0,0.0,-2.8246,0.0,-2.862,-2.862,-2.862,-2.862,-2.862,-2.8862,-2.8994,-2.8994,-2.9236,-2.9236,-2.8994,-2.8741,-2.862,-2.862,-2.862,-2.862,-2.862,-2.862,-2.862,-2.862,-2.8632,-2.8644,-2.8644,-2.8644,-2.8644,-2.8644,-2.8632,-2.862,-2.862,-2.862,-2.862,-2.862,-2.862,-2.862,-2.862,-2.862,-2.8716,-2.9184,-3.1149,-3.3201,-3.5245,-3.7207,-3.9167,-4.0583,-4.0583,-4.0583,-4.0583,-4.0583,-4.0583,-4.0583,-4.0583,-4.0909,-4.1166,-4.1166,-4.1183,-4.12,-4.12,-4.0875,-4.0635,-4.0583,-4.0583,-4.0583,-4.0583,-4.0583,-4.0583,-4.0583,-4.0583,-4.0583,-4.0583,-3.871,-3.6745,-3.4686,-3.265,-3.0687,-2.862,-2.862,-2.862,-2.862,-2.862,-2.862,-2.862,-2.862,-2.862,-2.1776,-2.25,-2.32,-2.3327,-2.3664,-2.4037,-2.4456,-2.4685,-2.4806,-2.4661,-2.4214,-2.3744,0.0,0.0,0.0,-2.4625,-2.5977,0.0,-2.7461,-2.7739,0.0,-2.8463,0.0,-2.862,-2.862,-2.862,0.0,0.0,-2.8584,-2.862,-2.862,-2.862,-2.862,-2.862,-2.8693,-2.8729,-2.8729,-2.8789,-2.8789,-2.8717,-2.8656,-2.862,-2.862,-2.862,-2.862,-2.862,-2.862,-2.862,-2.8644,-2.8837,-2.891,-2.891,-2.891,-2.891,-2.8886,-2.8693,-2.862,-2.862,-2.862,-2.862,-2.862,-2.862,-2.862,-2.862,-2.862,-2.965,-3.1244,-3.3295,-3.5245,-3.7299,-3.9275,-4.0203,-4.0583,-4.0583,-4.0583,-4.0583,-4.0583,-4.0583,-4.0583,-4.0583,-4.0909,-4.1166,-4.1166,-4.1388,-4.156,-4.156,-4.1474,-4.1217,-4.0652,-4.0583,-4.0583,-4.0583,-4.0583,-4.0583,-4.0583,-4.0583,-4.0583,-4.0583,-3.871,-3.6745,-3.4686,-3.265,-3.0687,-2.862,-2.862,-2.862,-2.862,-2.862,-2.862,-2.862,-2.862,-2.862,-2.2597,-2.3261,-2.3772,-2.4013,-2.4289,-2.4601,-2.4625,-2.4745,-2.4721,-2.4214,-2.378,0.0,-2.2879,-2.3756,0.0,0.0,0.0,0.0,-2.7763,-2.7944,-2.8174,0.0,-2.862,0.0,-2.862,-2.862,-2.862,0.0,-2.862,-2.862,-2.862,-2.862,-2.862,-2.862,-2.862,-2.862,-2.862,-2.862,-2.862,-2.862,-2.862,-2.862,-2.862,-2.862,-2.8681,-2.8789,0.0,-2.8753,-2.897,-2.9006,-2.9079,-2.9188,-2.9188,-2.9188,-2.9163,-2.9019,-2.897,-2.897,-2.897,-2.8886,-2.8777,-2.8656,-2.862,-2.862,-2.862,-3.0032,-3.2002,-3.4031,-3.6081,-3.8051,-4.0112,-4.0583,-4.0583,-4.0583,-4.0583,-4.0583,-4.0583,-4.0583,-4.0635,-4.0806,-4.1149,-4.1405,-4.1405,-4.1714,-4.1902,-4.1731,-4.1697,-4.1542,-4.1131,-4.0943,-4.0772,-4.0601,-4.0583,-4.0583,-4.0583,-4.0583,-4.0583,-4.0583,-3.871,-3.6745,-3.4686,-3.265,-3.0687,-2.862,-2.862,-2.862,-2.862,-2.862,-2.862,-2.862,-2.862,-2.862,-2.3647,-2.4094,-2.4456,-2.4843,-2.4987,-2.4927,-2.4697,-2.4601,-2.4335,-2.3514,0.0,-2.2903,-2.2382,-2.3478,-2.4492,-2.4407,0.0,-2.7244,-2.7836,-2.792,-2.8089,-2.8572,-2.862,-2.862,-2.862,-2.862,-2.862,-2.862,-2.8656,-2.8681,-2.8681,-2.8644,-2.862,-2.862,-2.862,-2.862,-2.862,-2.862,-2.862,-2.862,-2.862,-2.862,-2.862,-2.862,-2.8765,-2.9006,0.0,0.0,-2.9393,-2.92,-2.9248,-2.9453,-2.9453,-2.9453,-2.9453,-2.9417,-2.9405,-2.9405,-2.9405,-2.926,-2.9019,-2.8765,-2.8656,-2.862,-2.862,-3.0223,-3.2367,-3.4125,-3.6267,-3.8418,-4.0112,-4.0583,-4.0583,-4.0583,-4.0583,-4.0583,-4.0583,-4.0583,-4.0686,-4.1029,-4.1388,-4.1628,-4.1628,-4.1953,-4.2108,-4.1816,-4.1782,-4.1765,-4.1714,-4.1388,-4.1046,-4.0703,-4.0618,-4.0583,-4.0583,-4.0583,-4.0583,-4.0583,-3.871,-3.6745,-3.4686,-3.265,-3.0687,-2.862,-2.862,-2.862,-2.862,-2.862,-2.862,-2.862,-2.862,-2.862,-2.3744,-2.4277,-2.4843,-2.4939,-2.5204,-2.524,-2.4745,-2.4456,0.0,0.0,-2.283,-2.2636,-2.2029,-2.3056,-2.4169,-2.5096,-2.6242,-2.7377,-2.8343,-2.8487,-2.8512,0.0,-2.862,-2.862,-2.862,-2.862,0.0,0.0,0.0,-2.8946,-2.8946,-2.8741,-2.862,-2.862,-2.862,-2.862,-2.862,-2.862,-2.862,-2.862,-2.862,-2.862,-2.862,-2.862,-2.8765,-2.9006,0.0,0.0,-2.9417,-2.9586,-2.9682,-2.9731,-2.9731,-2.9731,-2.9707,-2.9489,-2.9405,-2.9405,-2.9405,-2.9381,-2.9296,-2.9031,-2.8801,-2.862,-2.862,-3.1149,-3.4125,-3.4499,-3.7207,-4.0112,-4.0493,-4.0583,-4.0583,-4.0583,-4.0583,-4.0583,-4.0583,-4.0583,-4.0601,-4.0669,-4.0994,-4.1268,-4.1268,-4.156,-4.1885,-4.2142,-4.2193,-4.2073,-4.1748,-4.1388,-4.1149,-4.108,-4.0772,-4.0583,-4.0583,-4.0583,-4.0583,-4.0583,-3.871,-3.6745,-3.4686,-3.265,-3.0687,-2.862,-2.862,-2.862,-2.862,-2.862,-2.862,-2.862,-2.862,-2.862,-2.4106,-2.4637,-2.4999,-2.5132,-2.5337,-2.5192,-2.4157,0.0,0.0,0.0,-2.2116,-2.2152,-2.1547,-2.2645,0.0,-2.4241,-2.5771,-2.7051,-2.7703,-2.827,0.0,-2.862,-2.8741,-2.8777,0.0,-2.8753,0.0,0.0,0.0,-2.8813,-2.8813,-2.8693,-2.862,-2.862,-2.862,-2.862,-2.862,-2.862,-2.862,-2.862,-2.862,-2.8693,-2.8825,-2.8825,-2.9043,-2.9417,-2.9272,0.0,-2.9827,-2.9803,-2.9791,-2.9815,-2.996,-2.9924,-2.9803,-2.9815,-2.9827,-2.9827,-2.9827,-2.9646,-2.9405,-2.9417,-2.9151,-2.8801,-2.8669,-3.1421,-3.4592,-3.4592,-3.7483,-4.0583,-4.0583,-4.0583,-4.0583,-4.0583,-4.0583,-4.0583,-4.0583,-4.0583,-4.0583,-4.0583,-4.0909,-4.1114,-4.0909,-4.132,-4.1697,-4.1697,-4.1868,-4.1919,-4.1731,-4.1388,-4.1097,-4.0892,-4.0703,-4.0583,-4.0583,-4.0583,-4.0583,-4.0583,-3.9731,-3.7759,-3.4779,-3.3656,-3.1705,-2.862,-2.862,-2.862,-2.862,-2.862,-2.862,-2.862,-2.862,-2.862,-2.4516,-2.4914,-2.518,-2.5385,-2.5433,-2.5108,-2.3748,-2.3454,0.0,0.0,-2.1535,-2.1667,-2.1377,-2.2307,-2.3195,0.0,-2.4987,-2.6339,-2.6942,-2.7799,-2.8427,0.0,-2.8801,0.0,-2.8717,0.0,0.0,0.0,0.0,0.0,-2.862,-2.8681,-2.8681,-2.862,-2.862,-2.862,-2.862,-2.862,-2.862,-2.862,-2.862,-2.8765,-2.9019,-2.9019,-2.9296,-2.9779,-2.9574,0.0,0.0,-2.9972,-2.9888,-2.9912,-3.0129,-3.0081,-2.9912,-3.0129,-3.0214,-3.0202,-3.0153,-2.9851,-2.9501,-2.9598,-2.9344,-2.897,-2.8765,-3.1527,-3.468,-3.4607,-3.7483,-4.0583,-4.0583,-4.0583,-4.0583,-4.0583,-4.0583,-4.0583,-4.0583,-4.0583,-4.0583,-4.0583,-4.084,-4.0943,-4.0635,-4.1063,-4.1388,-4.12,-4.1405,-4.1577,-4.1577,-4.1337,-4.1029,-4.0635,-4.0583,-4.0583,-4.0583,-4.0583,-4.0583,-4.0583,-4.0203,-3.8327,-3.4779,-3.4219,-3.2259,-2.8716,-2.862,-2.862,-2.862,-2.862,-2.862,-2.862,-2.862,-2.862,-2.4771,-2.5204,-2.5409,-2.5433,-2.5433,-2.5156,-2.3977,0.0,-2.2915,-2.1969,-2.1643,-2.1571,-2.1764,-2.2114,-2.2681,0.0,0.0,-2.5059,-2.6785,-2.7317,-2.7799,-2.8536,0.0,0.0,0.0,0.0,0.0,0.0,0.0,0.0,-2.8632,-2.885,-2.8862,-2.8632,-2.862,-2.862,-2.862,-2.862,-2.862,-2.862,-2.862,-2.8765,-2.9019,-2.9019,-2.9296,-2.9791,-2.9767,0.0,0.0,-3.0189,-3.0177,-3.0177,-3.0202,-3.0202,-3.0177,-3.0202,-3.0214,-3.0177,-2.9924,-2.9803,-2.9682,-2.9236,-2.9055,-2.9006,-2.8982,-3.1736,-3.4893,-3.4666,-3.7483,-4.0583,-4.0583,-4.0583,-4.0583,-4.0583,-4.0583,-4.0583,-4.0583,-4.0583,-4.0583,-4.0583,-4.0618,-4.0635,-4.0583,-4.0635,-4.0789,-4.1114,-4.12,-4.1217,-4.1217,-4.1183,-4.1029,-4.0635,-4.0583,-4.0583,-4.0583,-4.0583,-4.0583,-4.0583,-3.8893,-3.693,-3.4686,-3.2825,-3.0877,-2.862,-2.862,-2.862,-2.862,-2.862,-2.862,-2.862,-2.862,-2.862,-2.4771,-2.524,-2.5433,-2.5433,-2.5192,-2.4709,-2.3736,0.0,-2.2661,-2.18,-2.1679,-2.1752,-2.1848,-2.209,-2.2404,0.0,0.0,0.0,-2.5011,0.0,-2.6822,-2.7787,0.0,0.0,0.0,0.0,0.0,0.0,0.0,0.0,-2.8632,-2.8717,-2.8729,-2.862,-2.862,-2.862,-2.862,-2.862,-2.862,-2.862,-2.862,-2.885,-2.9248,-2.9248,-2.9538,-3.0045,-3.0045,0.0,0.0,-3.0033,-2.9864,-2.9731,-2.9731,-2.9634,-2.9513,-2.967,-2.9731,-2.9707,-2.9598,-2.9453,-2.932,-2.926,-2.9908,-3.0786,-3.0619,-3.2545,-3.4941,-3.6127,-3.8418,-4.0583,-4.0583,-4.0583,-4.0583,-4.0583,-4.0583,-4.0583,-4.0583,-4.0583,-4.0583,-4.0583,-4.0583,-4.0583,-4.0583,-4.0583,-4.0635,-4.0789,-4.0823,-4.0823,-4.0823,-4.0823,-4.0755,-4.0601,-4.0583,-4.0583,-4.0583,-4.0583,-4.0583,-4.0583,-3.9839,-3.7959,-3.4779,-3.3844,-3.1894,-2.862,-2.862,-2.862,-2.862,-2.862,-2.862,-2.862,-2.862,-2.862,-2.4745,-2.518,-2.5458,-2.553,-2.5083,-2.4456,0.0,0.0,-2.2552,-2.1836,-2.18,-2.1897,-2.1969,-2.2138,-2.2334,0.0,0.0,-2.3635,-2.4021,-2.4377,0.0,0.0,0.0,0.0,0.0,0.0,0.0,0.0,0.0,0.0,0.0,-2.862,-2.862,-2.862,-2.862,-2.862,-2.862,-2.862,-2.8656,-2.8741,-2.8741,-2.9019,-2.9513,-2.9513,-2.9779,-3.0214,0.0,0.0,0.0,-2.9912,-2.9682,-2.9513,-2.9429,-2.9296,-2.9151,-2.9332,-2.9405,-2.9393,-2.932,-2.9163,-2.9031,-2.9139,-3.0379,-3.1986,-3.234,-3.3916,-3.5846,-3.7238,-3.9076,-4.0583,-4.0583,-4.0583,-4.0583,-4.0583,-4.0583,-4.0618,-4.0738,-4.0755,-4.0755,-4.0755,-4.0755,-4.072,-4.0601,-4.0583,-4.0583,-4.0583,-4.0583,-4.0583,-4.0583,-4.0583,-4.0583,-4.0583,-4.0583,-4.0583,-4.0583,-4.0583,-4.0583,-4.0583,-4.0021,-3.8143,-3.4779,-3.4031,-3.2083,-2.8716,-2.862,-2.862,-2.862,-2.862,-2.862,-2.862,-2.862,-2.862,-2.4552,-2.5023,-2.5494,-2.5759,-2.5216,-2.4552,0.0,0.0,-2.2648,-2.2382,-2.2054,-2.1945,-2.2285,-2.2334,-2.2334,0.0,0.0,0.0,0.0,0.0,0.0,0.0,0.0,0.0,0.0,0.0,0.0,0.0,0.0,0.0,0.0,-2.862,-2.862,-2.862,-2.862,-2.862,-2.862,-2.862,-2.8753,-2.9006,-2.9006,-2.9284,-2.9791,-2.9791,-2.9948,0.0,0.0,0.0,0.0,-2.9912,-2.9791,-2.9767,-2.9501,-2.9405,-2.9405,-2.9405,-2.9405,-2.9369,-2.9103,-2.9019,-2.897,-2.8717,-2.9937,-3.2002,-3.3938,-3.6139,-3.7959,-3.7687,-3.9076,-4.0583,-4.0583,-4.0583,-4.0583,-4.0583,-4.0583,-4.0686,-4.108,-4.1166,-4.1166,-4.1166,-4.1166,-4.1046,-4.0652,-4.0583,-4.0583,-4.0583,-4.0583,-4.0583,-4.0583,-4.0583,-4.0583,-4.0583,-4.0583,-4.0583,-4.0583,-4.0583,-4.0583,-4.0583,-3.871,-3.6729,-3.4686,-3.265,-3.0687,-2.862,-2.862,-2.862,-2.862,-2.862,-2.862,-2.862,-2.862,-2.862,-2.3925,-2.4214,-2.4371,-2.4374,-2.4009,-2.3526,-2.3442,0.0,-2.2443,-2.2358,-2.2198,-2.2162,-2.2247,-2.2334,-2.2455,-2.2818,0.0,0.0,0.0,0.0,0.0,0.0,0.0,0.0,0.0,0.0,0.0,0.0,0.0,0.0,0.0,-2.862,-2.862,-2.862,-2.862,-2.862,-2.862,-2.8801,-2.8934,-2.9019,-2.92,-2.9465,-2.9791,-2.9791,0.0,0.0,0.0,0.0,0.0,-2.9719,-2.9526,-2.9489,-2.9043,-2.8874,-2.8874,-2.8874,-2.8874,-2.8862,-2.8777,-2.8753,-2.8729,-2.8644,-3.0864,-3.375,-3.4406,-3.6065,-3.8011,-3.9308,-4.0112,-4.0583,-4.0583,-4.0789,-4.0977,-4.0977,-4.1166,-4.1388,-4.1508,-4.1525,-4.1525,-4.1525,-4.1525,-4.1491,-4.1371,-4.1354,-4.1354,-4.1354,-4.1354,-4.1354,-4.1354,-4.1131,-4.0977,-4.0977,-4.0738,-4.0583,-4.0583,-4.0583,-4.0583,-4.0583,-4.0021,-3.871,-3.6745,-3.4686,-3.273,-3.0687,-2.928,-2.862,-2.862,-2.862,-2.862,-2.862,-2.862,-2.8717,0.0,-2.3611,-2.3784,-2.3973,-2.3514,0.0,0.0,0.0,0.0,-2.2334,-2.2334,-2.2309,-2.22,-2.2198,-2.2406,0.0,0.0,0.0,0.0,0.0,0.0,0.0,0.0,0.0,0.0,0.0,0.0,0.0,0.0,0.0,0.0,0.0,-2.862,-2.862,-2.862,-2.8669,-2.8765,-2.8934,-2.9115,-2.9308,-2.9477,-2.9695,-2.9948,-2.9948,0.0,0.0,0.0,0.0,0.0,-2.9586,-2.9344,-2.9212,-2.8789,-2.862,-2.862,-2.862,-2.862,-2.862,-2.862,-2.862,-2.8716,-2.9471,-3.2447,-3.5896,-3.6653,-3.7759,-3.8984,-4.0203,-4.0583,-4.0583,-4.0583,-4.0875,-4.1166,-4.1166,-4.144,-4.1748,-4.1885,-4.1919,-4.1919,-4.1919,-4.1919,-4.1885,-4.1731,-4.1697,-4.1697,-4.1697,-4.1697,-4.1697,-4.1697,-4.1508,-4.1371,-4.1371,-4.1149,-4.1012,-4.1012,-4.0738,-4.0583,-4.0583,-4.0583,-3.9366,-3.6545,-3.5245,-3.3281,-3.0496,-2.928,-2.862,-2.862,-2.862,-2.8681,-2.8765,-2.8765,-2.891,0.0,0.0,0.0,0.0,0.0,0.0,0.0,0.0,0.0,-2.2334,-2.2334,-2.2273,-2.1969,-2.2102,-2.2273,0.0,0.0,0.0,0.0,0.0,0.0,0.0,0.0,0.0,0.0,0.0,0.0,0.0,0.0,0.0,0.0,0.0,-2.862,-2.862,-2.8644,-2.8765,-2.9006,-2.9031,-2.9296,-2.9791,-2.9815,-2.996,-3.0214,-3.0214,0.0,0.0,0.0,0.0,0.0,-2.9526,-2.926,-2.9019,-2.8729,-2.862,-2.862,-2.862,-2.862,-2.862,-2.862,-2.862,-2.9004,-3.1149,-3.442,-3.7959,-4.0055,-4.0601,-4.0583,-4.0583,-4.0583,-4.0583,-4.0618,-4.0909,-4.1217,-4.1251,-4.1525,-4.1885,-4.2244,-4.233,-4.233,-4.233,-4.233,-4.221,-4.1851,-4.1782,-4.1782,-4.1782,-4.1782,-4.1782,-4.1782,-4.1765,-4.1748,-4.1748,-4.1714,-4.1697,-4.1697,-4.1046,-4.0635,-4.0635,-4.0601,-3.8893,-3.4966,-3.4701,-3.2758,-2.8933,-2.8765,-2.8681,-2.8681,-2.8681,-2.8801,-2.9019,-2.9019,-2.9139,0.0,0.0,0.0,0.0,0.0,0.0,0.0,0.0,-2.2334,-2.2334,-2.2334,-2.2307,-2.2515,-2.243,0.0,0.0,0.0,0.0,0.0,0.0,0.0,0.0,0.0,0.0,0.0,0.0,0.0,0.0,0.0,0.0,0.0,0.0,-2.862,-2.862,-2.8813,-2.8958,-2.9019,-2.9212,-2.9477,-2.9803,-3.002,-3.0153,-3.0214,-3.0214,0.0,0.0,0.0,0.0,-3.0081,-2.9598,-2.9369,-2.9272,-2.8801,-2.862,-2.862,-2.862,-2.862,-2.862,-2.862,-2.862,-2.9184,-3.273,-3.5617,-3.8007,-4.0376,-4.0823,-4.0583,-4.0583,-4.0583,-4.0652,-4.096,-4.1303,-4.1662,-4.1953,-4.2313,-4.2621,-4.2707,-4.2724,-4.2724,-4.2724,-4.2724,-4.269,-4.2604,-4.2587,-4.2587,-4.2587,-4.2587,-4.2587,-4.2587,-4.233,-4.2159,-4.2159,-4.1885,-4.1697,-4.1697,-4.1286,-4.1029,-4.1029,-4.0755,-3.9458,-3.7022,-3.5592,-3.3742,-3.1299,-2.9884,-2.9224,-2.9224,-2.9224,-2.9151,-2.9019,-2.9019,-2.9043,0.0,0.0,0.0,0.0,0.0,0.0,0.0,0.0,0.0,-2.2334,-2.2334,-2.2346,-2.237,-2.2669,0.0,0.0,-2.4021,0.0,0.0,0.0,0.0,0.0,0.0,0.0,0.0,0.0,0.0,0.0,0.0,0.0,0.0,0.0,-2.8681,-2.8801,-2.8934,-2.9067,-2.9188,-2.9453,-2.9719,-2.9984,-3.0141,-3.0214,-3.0214,-3.0214,0.0,0.0,0.0,0.0,-2.9815,-2.9526,-2.926,-2.9019,-2.8729,-2.862,-2.862,-2.862,-2.862,-2.862,-2.862,-2.9841,-3.1894,-3.4966,-3.7299,-3.925,-4.1029,-4.1075,-4.0652,-4.0994,-4.0977,-4.0943,-4.132,-4.156,-4.1799,-4.2193,-4.2587,-4.2765,-4.2765,-4.2765,-4.2765,-4.2765,-4.2765,-4.2765,-4.2765,-4.2765,-4.2765,-4.2765,-4.2765,-4.2765,-4.2765,-4.2673,-4.2553,-4.2553,-4.2364,-4.2227,-4.2227,-4.1902,-4.1611,-4.1423,-4.1217,-4.0251,-3.8177,-3.7209,-3.531,-3.2348,-3.0388,-2.9344,-2.9224,-2.9224,-2.9151,-2.9019,-2.9019,-2.9079,0.0,0.0,-2.1957,-2.1836,-2.2042,-2.2334,-2.2334,0.0,0.0,-2.2334,-2.2334,-2.2259,0.0,-2.3043,0.0,0.0,0.0,0.0,0.0,0.0,0.0,0.0,0.0,0.0,0.0,0.0,0.0,0.0,0.0,0.0,0.0,0.0,0.0,-2.9006,-2.9091,-2.9236,-2.9465,-2.9682,-2.9936,-3.0214,-3.0214,-3.0214,-3.0214,-3.0214,-3.0214,0.0,0.0,0.0,-2.9465,-2.9417,-2.9115,-2.8681,-2.8644,-2.862,-2.862,-2.862,-2.862,-2.862,-2.8908,-3.1515,-3.4966,-3.7085,-3.9158,-4.0937,-4.1918,-4.1596,-4.1075,-4.1687,-4.1532,-4.1183,-4.1594,-4.1662,-4.1748,-4.2262,-4.257,-4.2792,-4.2748,-4.2765,-4.2765,-4.2765,-4.2765,-4.2748,-4.268,-4.268,-4.268,-4.268,-4.268,-4.2697,-4.2748,-4.2765,-4.2765,-4.2765,-4.2765,-4.2765,-4.2765,-4.257,-4.2227,-4.1902,-4.1765,-4.0778,-3.883,-3.8149,-3.6252,-3.2807,-3.0551,-2.9357,-2.9139,-2.9091,-2.9055,-2.9019,-2.9019,-2.9115,-2.1233,-2.1933,-2.2443,-2.1704,-2.1897,-2.2334,-2.2334,-2.2334,0.0,0.0,0.0,0.0,0.0,-2.349,-2.3575,0.0,0.0,0.0,0.0,0.0,0.0,0.0,0.0,0.0,0.0,0.0,0.0,0.0,0.0,0.0,0.0,0.0,0.0,-2.9019,-2.9441,-2.9695,-2.9731,-2.9779,-2.9936,-3.0214,-3.0214,-3.0214,-3.0214,-3.0214,-3.0214,0.0,0.0,-3.0033,-2.9719,-2.9501,-2.9224,-2.8934,-2.8717,-2.862,-2.862,-2.862,-2.862,-2.8812,-3.0592,-3.2636,-3.5103,-3.7816,-4.0092,-4.1918,-4.3098,-4.3138,-4.2834,-4.2807,-4.1827,-4.084,-4.1525,-4.1474,-4.1508,-4.2518,-4.257,-4.2467,-4.2792,-4.2765,-4.2765,-4.2765,-4.2765,-4.2758,-4.2433,-4.2381,-4.2381,-4.2381,-4.2381,-4.2501,-4.2714,-4.2765,-4.2765,-4.2765,-4.2765,-4.2765,-4.2765,-4.2714,-4.2741,-4.269,-4.2056,-4.0895,-3.9069,-3.5691,-3.3677,-3.334,-3.0939,-2.9719,-2.967,-2.9453,-2.9236,-2.9019,-2.9019,-2.8922,-2.0967,-2.1523,-2.2029,-2.2102,-2.2826,-2.3538,-2.3538,-2.3538,-2.3454,0.0,0.0,0.0,0.0,0.0,-2.512,-2.687,0.0,0.0,0.0,0.0,0.0,0.0,0.0,0.0,0.0,0.0,0.0,0.0,0.0,0.0,0.0,0.0,0.0,0.0,-2.9465,-2.9731,-3.002,-3.002,-3.0081,-3.0214,-3.0057,-3.0069,-3.0214,-3.0057,-3.0069,-3.0214,0.0,-2.9972,-2.9574,-2.9453,-2.9163,-2.8789,-2.8669,-2.862,-2.8644,-2.8777,-2.949,-3.0728,-3.2708,-3.4776,-3.6932,-3.9139,-4.0593,-4.1729,-4.2749,-4.2644,-4.2284,-4.2859,-4.2151,-4.1378,-4.1652,-4.1577,-4.1594,-4.2108,-4.2416,-4.2587,-4.2553,-4.2707,-4.2765,-4.2765,-4.269,-4.2501,-4.2313,-4.2108,-4.1971,-4.1971,-4.1971,-4.2039,-4.221,-4.2416,-4.2553,-4.2553,-4.2741,-4.2765,-4.2765,-4.2765,-4.2765,-4.2765,-4.2518,-4.1822,-4.0822,-3.6833,-3.4675,-3.4549,-3.1308,-2.9513,-2.9369,-2.9248,-2.9055,-2.8801,-2.8801,-2.8741,-2.0919,-2.1341,-2.1933,-2.2657,-2.3466,-2.4166,-2.454,-2.448,-2.4287,-2.3989,-2.4082,0.0,0.0,-2.5482,0.0,0.0,0.0,0.0,0.0,0.0,0.0,0.0,0.0,0.0,0.0,0.0,0.0,0.0,0.0,0.0,0.0,0.0,0.0,0.0,-2.9526,-2.9791,-3.0214,-3.0214,-3.0214,-3.0214,-2.9936,-2.9948,-3.0202,-2.9924,-2.9948,-3.0214,-3.0214,-2.9912,-2.9405,-2.9405,-2.9091,-2.862,-2.862,-2.8656,-2.8729,-2.8874,-3.0194,-3.2243,-3.4331,-3.6427,-3.8489,-4.0535,-4.1367,-4.1786,-4.2726,-4.2383,-4.2006,-4.2765,-4.2546,-4.2018,-4.1841,-4.1765,-4.1748,-4.1936,-4.2364,-4.2673,-4.2467,-4.2655,-4.2765,-4.2765,-4.2621,-4.2399,-4.2296,-4.2039,-4.1834,-4.1834,-4.1834,-4.1868,-4.1953,-4.2244,-4.2416,-4.2416,-4.269,-4.2731,-4.2724,-4.2724,-4.269,-4.2587,-4.2673,-4.2553,-4.2159,-3.8159,-3.5822,-3.5558,-3.1464,-2.9212,-2.9019,-2.8958,-2.8813,-2.862,-2.862,-2.862,-2.1643,-2.2237,-2.2705,-2.3261,-2.2911,-2.2814,-2.4287,-2.3977,-2.3652,-2.4432,-2.4782,-2.5035,0.0,-2.658,0.0,0.0,0.0,0.0,0.0,0.0,0.0,0.0,0.0,0.0,0.0,0.0,0.0,0.0,0.0,0.0,0.0,0.0,0.0,0.0,0.0,-3.0177,-3.0214,-3.0214,-3.0214,-3.0214,-2.9936,-2.9948,-3.0202,-2.9924,-2.9948,-3.0214,-3.0214,-2.9912,-2.9405,-2.9405,-2.9091,-2.862,-2.862,-2.8777,-2.8958,-2.8729,-3.003,-3.2339,-3.4426,-3.6506,-3.8695,-4.1808,-4.2818,-4.3016,-4.3986,-4.3921,-4.3509,-4.3093,-4.2737,-4.2325,-4.2236,-4.1971,-4.1885,-4.2604,-4.2553,-4.2416,-4.2741,-4.2748,-4.2765,-4.2765,-4.2731,-4.2707,-4.2347,-4.2262,-4.2244,-4.2244,-4.2244,-4.2381,-4.2628,-4.2697,-4.2714,-4.2714,-4.2748,-4.2707,-4.2364,-4.233,-4.2176,-4.1799,-4.2125,-4.2159,-4.1765,-3.7802,-3.5588,-3.5558,-3.127,-2.9031,-2.9019,-2.8765,-2.8644,-2.862,-2.862,-2.862,-2.1377,-2.1946,-2.2536,-2.3068,-2.2971,-2.329,-2.4975,-2.5264,-2.5252,-2.5554,-2.5844,-2.6049,-2.6061,0.0,0.0,0.0,0.0,0.0,0.0,0.0,0.0,0.0,0.0,0.0,0.0,0.0,0.0,0.0,0.0,0.0,0.0,0.0,0.0,0.0,0.0,-3.0033,-3.0214,-3.0045,-3.0045,-3.0214,-2.9767,-2.9695,-2.9948,-2.967,-2.9791,-3.0202,-3.0033,-2.9743,-2.9393,-2.9224,-2.8946,-2.8644,-2.8801,-2.9031,-2.9456,-3.078,-3.27,-3.4807,-3.6939,-3.8973,-4.0895,-4.1902,-4.2355,-4.2597,-4.3019,-4.2967,-4.2897,-4.2855,-4.2726,-4.2537,-4.2005,-4.1988,-4.2073,-4.2125,-4.2399,-4.2621,-4.2518,-4.269,-4.2765,-4.2765,-4.2673,-4.2467,-4.2313,-4.209,-4.1919,-4.1919,-4.1919,-4.1971,-4.2125,-4.2347,-4.2501,-4.2501,-4.2501,-4.245,-4.2296,-4.2056,-4.1765,-4.1388,-4.1714,-4.1765,-4.1388,-3.746,-3.5258,-3.4958,-3.0894,-2.8765,-2.8765,-2.8669,-2.862,-2.862,-2.862,-2.862,-2.1486,-2.2031,-2.2697,-2.3068,-2.3176,-2.3611,-2.5313,-2.5784,-2.5965,-2.6387,-2.6423,-2.6447,-2.6677,0.0,0.0,0.0,0.0,0.0,0.0,0.0,0.0,0.0,0.0,0.0,0.0,0.0,0.0,0.0,0.0,0.0,0.0,0.0,0.0,0.0,0.0,-3.002,-3.0214,-2.9936,-2.9851,-2.9948,-2.9501,-2.9513,-2.9924,-2.9646,-2.9779,-3.0202,-3.0008,-2.9731,-2.9393,-2.9212,-2.8934,-2.8644,-2.891,-2.9555,-3.0587,-3.2241,-3.4604,-3.7206,-3.8684,-4.0536,-4.2262,-4.2296,-4.2528,-4.2752,-4.2941,-4.2847,-4.2709,-4.2984,-4.2957,-4.2645,-4.221,-4.2262,-4.2399,-4.2125,-4.2467,-4.2792,-4.2518,-4.2673,-4.2765,-4.2765,-4.2655,-4.2467,-4.2467,-4.2244,-4.2073,-4.2073,-4.2073,-4.2073,-4.2073,-4.2296,-4.2416,-4.2296,-4.2296,-4.2193,-4.1953,-4.1697,-4.1371,-4.1012,-4.1217,-4.1234,-4.0994,-3.7771,-3.5578,-3.4592,-3.1244,-2.9184,-2.862,-2.862,-2.862,-2.862,-2.862,-2.8669,-2.2467,-2.2721,-2.3181,-2.3381,-2.3387,-2.3736,-2.5144,-2.524,-2.5336,-2.6761,-2.6399,-2.6242,-2.757,-2.7172,0.0,0.0,0.0,0.0,0.0,0.0,0.0,0.0,0.0,0.0,0.0,0.0,0.0,0.0,0.0,0.0,0.0,0.0,0.0,0.0,0.0,0.0,-3.0214,-2.9936,-2.9658,-2.9405,-2.9139,-2.9429,-3.0202,-2.9924,-2.9948,-3.0214,-3.0214,-2.99,-2.9405,-2.9393,-2.9091,-2.8656,-2.8922,-3.0518,-3.2589,-3.2589,-3.5391,-3.9164,-3.926,-4.0631,-4.2459,-4.3314,-4.3626,-4.3722,-4.4198,-4.4008,-4.3626,-4.3626,-4.3244,-4.2765,-4.2765,-4.2861,-4.2861,-4.2765,-4.2765,-4.2765,-4.2765,-4.2765,-4.2765,-4.2765,-4.2765,-4.2765,-4.2765,-4.2765,-4.2765,-4.2765,-4.2765,-4.2765,-4.2765,-4.2748,-4.2707,-4.233,-4.2279,-4.1971,-4.1234,-4.1166,-4.0994,-4.0601,-4.0583,-4.0583,-4.0583,-3.871,-3.6637,-3.4686,-3.265,-3.0592,-2.862,-2.862,-2.862,-2.862,-2.862,-2.8765,-2.1583,-2.2285,-2.3133,-2.314,-2.3876,-2.4686,-2.5542,-2.5506,-2.5699,-2.7027,-2.7256,-2.7292,-2.7498,-2.7811,0.0,0.0,0.0,0.0,0.0,0.0,0.0,0.0,0.0,0.0,0.0,0.0,0.0,0.0,0.0,0.0,0.0,0.0,0.0,0.0,0.0,0.0,-2.9924,-2.9658,-2.9477,-2.9405,-2.9139,-2.9236,-2.9646,-2.9562,-2.9779,-3.0189,-2.9815,-2.955,-2.9381,-2.9006,-2.8874,-2.8922,-2.9188,-3.0809,-3.3121,-3.4689,-3.7087,-3.9723,-4.1202,-4.2195,-4.2802,-4.34,-4.3626,-4.3722,-4.4198,-4.4008,-4.3722,-4.4103,-4.3817,-4.334,-4.334,-4.3626,-4.3722,-4.2957,-4.2765,-4.2765,-4.2765,-4.2765,-4.2765,-4.2765,-4.2765,-4.2765,-4.2765,-4.2765,-4.2765,-4.2765,-4.2765,-4.2663,-4.2501,-4.221,-4.2005,-4.1885,-4.1645,-4.1423,-4.1183,-4.0909,-4.0703,-4.0601,-4.0583,-4.0583,-4.0583,-3.871,-3.7299,-3.6729,-3.3389,-3.1352,-3.0687,-2.928,-2.862,-2.862,-2.8813,-2.9043,-2.2367,-2.314,-2.3997,-2.3997,-2.4444,-2.5071,-2.582,0.0,0.0,0.0,-2.7534,-2.7546,-2.7703,-2.7956,0.0,0.0,0.0,0.0,0.0,0.0,0.0,0.0,0.0,0.0,0.0,0.0,0.0,0.0,0.0,0.0,0.0,0.0,0.0,0.0,0.0,0.0,-2.996,-2.9598,-2.9405,-2.9405,-2.9031,-2.8994,-2.926,-2.9465,-2.9743,-3.002,-2.9598,-2.9344,-2.9224,-2.891,-2.8874,-2.9152,-3.039,-3.2196,-3.4535,-3.6898,-3.9089,-4.1062,-4.2364,-4.2957,-4.3244,-4.3722,-4.399,-4.4275,-4.4845,-4.4655,-4.4275,-4.456,-4.4275,-4.3912,-4.3912,-4.4008,-4.3912,-4.2957,-4.2957,-4.3053,-4.2861,-4.2765,-4.2765,-4.2765,-4.2765,-4.2765,-4.2765,-4.2765,-4.2765,-4.2765,-4.2765,-4.2775,-4.2536,-4.2176,-4.1936,-4.1936,-4.1594,-4.1388,-4.1388,-4.1166,-4.1029,-4.1029,-4.1029,-4.1029,-4.1029,-3.9757,-3.8711,-3.8004,-3.4799,-3.2818,-3.1971,-2.9879,-2.8982,-2.9091,-2.9248,-2.9526,-2.4021,-2.4661,-2.5337,-2.5361,-2.5083,0.0,-2.6061,-2.6918,-2.7558,-2.7763,0.0,-2.7365,-2.8101,0.0,0.0,0.0,0.0,0.0,0.0,0.0,0.0,0.0,0.0,0.0,0.0,0.0,0.0,0.0,0.0,0.0,0.0,0.0,0.0,0.0,0.0,0.0,-3.0141,-2.9646,-2.9381,0.0,-2.885,-2.8753,-2.8994,-2.9526,-2.9755,-2.9743,-2.9477,-2.9236,-2.9019,-2.9019,-2.914,-2.9616,-3.2058,-3.4423,-3.6713,-3.8866,-4.1062,-4.2765,-4.2861,-4.3244,-4.3722,-4.4293,-4.475,-4.5223,-4.5695,-4.5506,-4.5129,-4.5129,-4.475,-4.4388,-4.4388,-4.4008,-4.3531,-4.2957,-4.3148,-4.3435,-4.2957,-4.2765,-4.2765,-4.2765,-4.2765,-4.2765,-4.2765,-4.2765,-4.2765,-4.2765,-4.2731,-4.2714,-4.2714,-4.2467,-4.2244,-4.2244,-4.1919,-4.1697,-4.1697,-4.1697,-4.1697,-4.1697,-4.1697,-4.1714,-4.1748,-4.1405,-4.052,-3.9034,-3.6722,-3.4693,-3.2868,-3.0562,-2.9538,-2.9791,-2.9827,-3.0117,-2.238,-2.3418,0.0,0.0,-2.5506,-2.6327,-2.6761,-2.7461,-2.7993,-2.7836,-2.7884,-2.8065,0.0,0.0,0.0,0.0,0.0,0.0,0.0,0.0,0.0,0.0,0.0,0.0,0.0,0.0,0.0,0.0,0.0,0.0,0.0,0.0,0.0,0.0,0.0,-3.0008,-2.9586,-2.9465,-2.92,0.0,-2.8681,-2.8656,-2.8729,-2.9248,-2.9489,-2.9477,-2.9212,-2.9067,-2.9019,-2.9019,-3.0228,-3.2182,-3.2794,-3.5433,-3.8979,-3.9544,-4.1062,-4.2861,-4.3244,-4.3531,-4.3722,-4.4655,-4.5034,-4.5223,-4.5695,-4.5506,-4.5129,-4.5129,-4.475,-4.4293,-4.3912,-4.4008,-4.4008,-4.3053,-4.2861,-4.2957,-4.2861,-4.2765,-4.2765,-4.2765,-4.2765,-4.2765,-4.2765,-4.2765,-4.2765,-4.2765,-4.2604,-4.2416,-4.2416,-4.2073,-4.1834,-4.1834,-4.1748,-4.1697,-4.1697,-4.1697,-4.1697,-4.1697,-4.1697,-4.1834,-4.2159,-4.1799,-4.1442,-4.1026,-3.7485,-3.5366,-3.4981,-3.1236,-2.9538,-2.9803,-3.002,-3.0407,-2.2645,0.0,0.0,-2.5071,0.0,-2.6894,-2.716,-2.7727,-2.8198,-2.8198,-2.8306,0.0,0.0,0.0,0.0,0.0,0.0,0.0,0.0,0.0,0.0,0.0,0.0,0.0,0.0,0.0,0.0,0.0,0.0,0.0,0.0,0.0,0.0,0.0,-3.0214,-3.0081,-2.9803,-2.9658,-2.9393,-2.8994,-2.8874,-2.8874,-2.9006,-2.9151,-2.9284,-2.9393,-2.9127,-2.9019,-2.9116,-3.0298,-3.1666,-3.3256,-3.5349,-3.7651,-3.977,-4.0868,-4.1866,-4.2861,-4.3435,-4.3817,-4.4103,-4.4845,-4.5318,-4.5506,-4.5506,-4.5318,-4.5034,-4.4845,-4.456,-4.4388,-4.4103,-4.4131,-4.4175,-4.3599,-4.3269,-4.3148,-4.2861,-4.2998,-4.3118,-4.3118,-4.3272,-4.3409,-4.3409,-4.3409,-4.334,-4.3152,-4.2947,-4.2758,-4.2587,-4.2227,-4.2056,-4.2244,-4.209,-4.2056,-4.2244,-4.2262,-4.2262,-4.2262,-4.2262,-4.2347,-4.2553,-4.2364,-4.2262,-4.2262,-3.8156,-3.6027,-3.6012,-3.1845,-2.9924,-3.0189,-3.0467,-3.0805,-2.2995,0.0,-2.4709,-2.5602,-2.6435,0.0,-2.7365,-2.7824,-2.8282,0.0,0.0,0.0,0.0,0.0,0.0,0.0,0.0,0.0,0.0,0.0,0.0,0.0,0.0,0.0,0.0,0.0,0.0,0.0,0.0,0.0,0.0,0.0,-2.9972,-3.0214,-3.0214,-3.0165,-3.0081,-2.9839,-2.9574,-2.9272,-2.9055,-2.9079,-2.9332,-2.9067,-2.9115,-2.9393,-2.9079,-2.8994,-2.9286,-3.162,-3.2986,-3.4014,-3.8087,-3.9883,-4.0465,-4.2172,-4.2861,-4.3053,-4.3531,-4.4103,-4.456,-4.4939,-4.5412,-4.5695,-4.5129,-4.4939,-4.4845,-4.4388,-4.4328,-4.4382,-4.4286,-4.4185,-4.4192,-4.4192,-4.3948,-4.353,-4.3049,-4.3289,-4.3512,-4.3512,-4.3769,-4.3974,-4.3906,-4.3888,-4.3751,-4.3375,-4.3306,-4.3203,-4.2799,-4.2587,-4.2501,-4.2731,-4.257,-4.2518,-4.2731,-4.2765,-4.2765,-4.2765,-4.2765,-4.2765,-4.2765,-4.2765,-4.2765,-4.2765,-3.8698,-3.6327,-3.5932,-3.2096,-3.0346,-3.0612,-3.0829,-3.1071,0.0,0.0,-2.4169,0.0,-2.6435,-2.7099,0.0,0.0,0.0,0.0,0.0,0.0,0.0,0.0,0.0,0.0,0.0,0.0,0.0,0.0,0.0,0.0,0.0,0.0,0.0,0.0,0.0,0.0,0.0,0.0,0.0,-2.9888,-3.0177,-3.0214,-3.0214,-2.9984,-2.9513,-2.9477,-2.9212,-2.8729,-2.8693,-2.8813,-2.9055,-2.8801,-2.8946,-2.9381,-2.8886,-2.8934,-2.9554,-3.1699,-3.3976,-3.6269,-3.8765,-4.0772,-4.246,-4.2669,-4.3053,-4.3531,-4.4103,-4.456,-4.5034,-4.5129,-4.5129,-4.5129,-4.4673,-4.4483,-4.4388,-4.3912,-4.3949,-4.4097,-4.3631,-4.3809,-4.4021,-4.4021,-4.3969,-4.3935,-4.3854,-4.3888,-4.3923,-4.3923,-4.3957,-4.3888,-4.3546,-4.3477,-4.3358,-4.2981,-4.2833,-4.2816,-4.2765,-4.2714,-4.2697,-4.2765,-4.2714,-4.2697,-4.2765,-4.2765,-4.2765,-4.2765,-4.2765,-4.2765,-4.2765,-4.2765,-4.2765,-4.2765,-3.8698,-3.5635,-3.3773,-3.1403,-3.0346,-3.0612,-3.0648,-3.0805,-2.1704,-2.3116,-2.4601,0.0,-2.6773,-2.728,-2.7389,0.0,0.0,0.0,0.0,0.0,0.0,0.0,0.0,0.0,0.0,0.0,0.0,0.0,0.0,0.0,0.0,0.0,0.0,0.0,0.0,0.0,0.0,0.0,-2.9622,-2.9996,-3.0214,-3.0214,-3.0214,-3.002,-2.9622,-2.9622,-2.9357,-2.8837,-2.8693,-2.8765,-2.9006,-2.8741,-2.8825,-2.9175,-2.8946,-2.9724,-3.1346,-3.3629,-3.6002,-3.8487,-4.0578,-4.2155,-4.3244,-4.3244,-4.3626,-4.4103,-4.4293,-4.4578,-4.475,-4.475,-4.475,-4.456,-4.4103,-4.3912,-4.3852,-4.3582,-4.3659,-4.3752,-4.3781,-4.4008,-4.4299,-4.4299,-4.4453,-4.4625,-4.4625,-4.4453,-4.4351,-4.4573,-4.4625,-4.4488,-4.4111,-4.4025,-4.3837,-4.3255,-4.3169,-4.3084,-4.2782,-4.2765,-4.2765,-4.2765,-4.2765,-4.2765,-4.2765,-4.2765,-4.2765,-4.2765,-4.2765,-4.2765,-4.2765,-4.2765,-4.2268,-4.1062,-3.8096,-3.603,-3.5139,-3.1794,-3.0274,-3.0395,-3.0539,-3.0672,0.0,0.0,-2.4094,-2.5639,-2.6472,-2.7003,0.0,0.0,0.0,0.0,0.0,0.0,0.0,0.0,0.0,0.0,0.0,0.0,0.0,0.0,0.0,0.0,0.0,0.0,0.0,0.0,0.0,0.0,0.0,0.0,-2.9779,-3.0069,-3.0214,-3.0214,-3.0214,-3.0045,-2.9707,-2.9562,-2.9296,-2.891,-2.8717,-2.8729,-2.891,-2.8717,-2.9018,-2.9673,-2.9747,-3.0882,-3.2797,-3.5715,-3.8,-3.9867,-4.1963,-4.3148,-4.3626,-4.3435,-4.3817,-4.4388,-4.4198,-4.4293,-4.4388,-4.4198,-4.4251,-4.4244,-4.367,-4.3643,-4.3686,-4.3575,-4.3614,-4.3751,-4.406,-4.4402,-4.4676,-4.4676,-4.4899,-4.5104,-4.5104,-4.4882,-4.4762,-4.5053,-4.5036,-4.4847,-4.4453,-4.4299,-4.4025,-4.3358,-4.3272,-4.3169,-4.2799,-4.2765,-4.2765,-4.2765,-4.2765,-4.2765,-4.2765,-4.2765,-4.2765,-4.2765,-4.2765,-4.2765,-4.2765,-4.2765,-4.2059,-4.0562,-3.79,-3.6228,-3.5734,-3.1995,-3.0214,-3.0214,-3.0419,-3.0503,0.0,-2.0892,0.0,-2.384,0.0,0.0,0.0,0.0,0.0,0.0,0.0,0.0,0.0,0.0,0.0,0.0,0.0,0.0,0.0,0.0,0.0,0.0,0.0,0.0,0.0,0.0,0.0,0.0,0.0,0.0,-2.9779,-3.0069,-3.0214,-3.0214,-3.0214,-2.996,-2.9429,-2.8934,-2.8669,-2.8644,-2.8632,-2.8632,-2.8644,-2.8632,-2.9663,-3.1474,-3.1835,-3.2211,-3.2895,-3.7359,-3.9371,-3.9867,-4.1963,-4.3148,-4.3531,-4.3053,-4.3531,-4.4293,-4.3817,-4.4008,-4.4293,-4.3817,-4.3853,-4.4149,-4.3569,-4.3632,-4.394,-4.3957,-4.4214,-4.4471,-4.4488,-4.4796,-4.5087,-4.5087,-4.5104,-4.5104,-4.5104,-4.5104,-4.5087,-4.5104,-4.4813,-4.4436,-4.4077,-4.3717,-4.334,-4.285,-4.2799,-4.2782,-4.2765,-4.2765,-4.2765,-4.2765,-4.2765,-4.2765,-4.2765,-4.2765,-4.2765,-4.2765,-4.2765,-4.2765,-4.2765,-4.2765,-4.2765,-4.2652,-3.8601,-3.5536,-3.3574,-3.1302,-3.0214,-3.0214,-3.0226,-3.0238,0.0,0.0,0.0,-2.2609,0.0,0.0,0.0,0.0,0.0,0.0,0.0,0.0,0.0,0.0,0.0,0.0,0.0,0.0,0.0,0.0,0.0,0.0,0.0,0.0,0.0,0.0,0.0,0.0,0.0,0.0,-3.0045,-3.0165,-3.0214,-3.0214,-3.0214,-2.996,-2.9417,-2.9224,-2.8958,-2.862,-2.8789,-2.8789,-2.8632,-3.021,-3.133,-3.2109,-3.5075,-3.6426,-3.6672,-3.8762,-4.0352,-4.177,-4.2844,-4.3435,-4.3626,-4.3817,-4.4103,-4.4293,-4.3817,-4.3722,-4.3852,-4.352,-4.3579,-4.3752,-4.3798,-4.3888,-4.4043,-4.4265,-4.4436,-4.459,-4.483,-4.5001,-4.5104,-4.5104,-4.5104,-4.5104,-4.5104,-4.5104,-4.5036,-4.4779,-4.4625,-4.4334,-4.3717,-4.3495,-4.3289,-4.2816,-4.2765,-4.2765,-4.2765,-4.2765,-4.2765,-4.2765,-4.2765,-4.2765,-4.2765,-4.2765,-4.2765,-4.2765,-4.2765,-4.2765,-4.2765,-4.1561,-4.0772,-4.0772,-3.6623,-3.4756,-3.5338,-3.1894,-3.0214,-3.0214,-3.0214,-3.0214,-1.9657,0.0,0.0,0.0,0.0,0.0,0.0,0.0,0.0,0.0,0.0,0.0,0.0,0.0,0.0,0.0,0.0,0.0,0.0,0.0,0.0,0.0,0.0,0.0,0.0,0.0,0.0,0.0,0.0,0.0,-3.0189,-3.0214,-3.0214,-3.0214,-3.0129,-2.99,-2.9538,-2.9441,-2.9188,-2.8753,-2.8934,-2.8874,-2.8728,-3.1068,-3.2463,-3.3239,-3.7016,-3.8814,-3.8958,-4.0284,-4.154,-4.2861,-4.3435,-4.3626,-4.3626,-4.3817,-4.4008,-4.4103,-4.3531,-4.334,-4.3296,-4.3386,-4.3495,-4.3683,-4.406,-4.4265,-4.4419,-4.4659,-4.4727,-4.4779,-4.5036,-4.5104,-4.5104,-4.5104,-4.5104,-4.507,-4.495,-4.4916,-4.483,-4.4573,-4.4316,-4.3991,-4.3495,-4.3306,-4.3135,-4.2799,-4.2765,-4.2765,-4.2765,-4.2765,-4.2765,-4.2765,-4.2765,-4.2765,-4.2765,-4.2765,-4.2765,-4.2765,-4.2765,-4.2765,-4.2765,-4.0772,-3.9673,-3.9673,-3.555,-3.4073,-3.5437,-3.1894,-3.0214,-3.0214,-3.0214,-3.0214,0.0,0.0,0.0,0.0,0.0,0.0,0.0,0.0,0.0,0.0,0.0,0.0,0.0,0.0,0.0,0.0,0.0,0.0,0.0,0.0,0.0,0.0,0.0,0.0,0.0,0.0,0.0,0.0,0.0,-2.9646,-3.0189,-3.0214,-3.0214,-3.0214,-2.9948,-2.9803,-2.9791,-2.955,-2.9284,-2.9019,-2.9019,-2.8874,-2.8728,-3.1164,-3.3211,-3.4823,-3.7585,-3.9037,-3.9548,-4.1961,-4.2881,-4.2861,-4.3435,-4.3626,-4.3531,-4.3053,-4.3148,-4.3531,-4.2957,-4.2861,-4.2912,-4.3289,-4.3666,-4.4043,-4.4419,-4.4796,-4.5104,-4.5104,-4.5104,-4.5104,-4.5104,-4.5104,-4.5104,-4.5104,-4.5087,-4.4984,-4.4608,-4.4522,-4.4505,-4.4488,-4.3906,-4.3409,-4.3392,-4.3101,-4.2765,-4.2765,-4.2765,-4.2765,-4.2765,-4.2765,-4.2765,-4.2765,-4.2765,-4.2765,-4.2765,-4.2765,-4.2765,-4.2765,-4.2765,-4.2765,-4.2765,-4.0772,-3.9673,-3.9575,-3.555,-3.3374,-3.3274,-3.1201,-3.0214,-3.0214,-3.0214,-3.0214,-1.8022,0.0,0.0,0.0,0.0,0.0,0.0,0.0,0.0,0.0,0.0,0.0,0.0,0.0,0.0,0.0,0.0,0.0,0.0,0.0,0.0,0.0,0.0,0.0,0.0,0.0,0.0,0.0,-2.9586,-2.9839,-3.0202,-3.0214,-3.0214,-3.0214,-3.0141,-3.0008,-2.9803,-2.9719,-2.9465,-2.9019,-2.9019,-2.9636,-3.089,-3.3239,-3.5409,-3.7336,-3.978,-4.1057,-4.1504,-4.2184,-4.2614,-4.2861,-4.3435,-4.334,-4.3053,-4.334,-4.3435,-4.3626,-4.3435,-4.334,-4.3392,-4.3869,-4.3769,-4.3683,-4.4334,-4.4608,-4.4745,-4.5036,-4.5104,-4.5104,-4.5104,-4.5104,-4.5036,-4.4762,-4.4693,-4.4659,-4.4556,-4.4316,-4.406,-4.3769,-4.3546,-4.3323,-4.3049,-4.2833,-4.2765,-4.2765,-4.2765,-4.2765,-4.2765,-4.2765,-4.2765,-4.2765,-4.2765,-4.2765,-4.2765,-4.2765,-4.2765,-4.2765,-4.2765,-4.2765,-4.2765,-4.0772,-3.8991,-3.741,-3.4756,-3.2686,-3.11,-3.0518,-3.0214,-3.0214,-3.0214,-3.0214,-1.8324,-1.8251,-1.83,0.0,0.0,0.0,-2.1016,-2.18,0.0,0.0,0.0,0.0,0.0,0.0,0.0,0.0,0.0,0.0,0.0,0.0,0.0,0.0,0.0,0.0,0.0,0.0,0.0,0.0,-2.9707,-2.9924,-3.0202,-3.0214,-3.0214,-3.0214,-3.0214,-3.0081,-2.9803,-2.9791,-2.9922,-3.0244,-2.9396,-3.0395,-3.2933,-3.4471,-3.6242,-3.8111,-4.0604,-4.1834,-4.2056,-4.2227,-4.2518,-4.2861,-4.3435,-4.3244,-4.2861,-4.3435,-4.3435,-4.334,-4.3531,-4.3435,-4.333,-4.3963,-4.3941,-4.3786,-4.4539,-4.4762,-4.4813,-4.5053,-4.5104,-4.5104,-4.5104,-4.4984,-4.4813,-4.4573,-4.4402,-4.4265,-4.4094,-4.3888,-4.3734,-4.3666,-4.3512,-4.3289,-4.2833,-4.2765,-4.2765,-4.2765,-4.2765,-4.2765,-4.2765,-4.2765,-4.2765,-4.2765,-4.2765,-4.2765,-4.2765,-4.2765,-4.2765,-4.2765,-4.2765,-4.2765,-4.2765,-4.0772,-3.8683,-3.6524,-3.4458,-3.2297,-3.0214,-3.0214,-3.0214,-3.0214,-3.0214,-3.0214,-1.8843,-1.8577,-1.8577,-1.9217,0.0,0.0,-2.2028,-2.2464,-2.3043,0.0,0.0,0.0,0.0,0.0,0.0,0.0,0.0,0.0,0.0,0.0,0.0,0.0,0.0,0.0,0.0,0.0,-2.926,-2.9755,-2.9827,-2.9948,-3.0202,-3.0214,-3.0214,-3.0214,-3.0214,-3.0081,-2.9803,-2.9767,-3.0465,-3.1968,-3.0122,-3.129,-3.4966,-3.5276,-3.6402,-3.8148,-4.0629,-4.1731,-4.1799,-4.2193,-4.2553,-4.2861,-4.334,-4.3244,-4.2861,-4.334,-4.3244,-4.2957,-4.3487,-4.3392,-4.3032,-4.3849,-4.3991,-4.4128,-4.483,-4.5053,-4.5053,-4.5104,-4.5104,-4.5104,-4.5104,-4.4847,-4.4573,-4.4488,-4.4231,-4.3888,-4.3495,-4.3409,-4.3512,-4.3854,-4.3614,-4.3238,-4.2816,-4.2765,-4.2765,-4.2765,-4.2765,-4.2765,-4.2765,-4.2765,-4.2765,-4.2765,-4.2765,-4.2765,-4.2765,-4.2765,-4.2765,-4.2765,-4.2765,-4.2765,-4.2765,-4.1062,-3.8894,-3.6524,-3.4258,-3.2096,-3.0214,-3.025,-3.0262,-3.0262,-3.0286,-3.0298,-1.9362,-1.912,-1.9169,0.0,0.0,0.0,-1.8939,-1.8879,-1.9362,0.0,0.0,0.0,0.0,0.0,0.0,0.0,0.0,0.0,0.0,0.0,0.0,0.0,0.0,0.0,0.0,0.0,-2.9453,-2.9779,-3.0008,-3.0153,-3.0214,-3.0214,-3.0214,-3.0214,-3.0214,-3.0081,-2.9803,-2.9586,-3.029,-3.1955,-3.1346,-3.3163,-3.7022,-3.71,-3.8369,-4.0511,-4.1322,-4.1885,-4.221,-4.2587,-4.2697,-4.2861,-4.2957,-4.2861,-4.2861,-4.2957,-4.3148,-4.347,-4.3957,-4.3966,-4.3956,-4.4407,-4.4286,-4.4077,-4.4505,-4.4642,-4.471,-4.5019,-4.5104,-4.5104,-4.5104,-4.5053,-4.4847,-4.4248,-4.4043,-4.3888,-4.3495,-4.3409,-4.3426,-4.3512,-4.3221,-4.285,-4.2765,-4.2765,-4.2765,-4.2765,-4.2765,-4.2765,-4.2765,-4.2765,-4.2765,-4.2765,-4.2765,-4.2765,-4.2765,-4.2765,-4.2765,-4.2765,-4.2765,-4.2765,-4.2765,-4.2364,-4.0384,-3.6623,-3.2786,-3.0607,-3.0214,-3.0431,-3.0527,-3.0539,-3.0745,-3.0841,0.0,0.0,0.0,-1.9483,0.0,0.0,0.0,-1.9458,-1.9796,0.0,0.0,0.0,0.0,0.0,0.0,0.0,0.0,0.0,0.0,0.0,0.0,0.0,0.0,0.0,0.0,0.0,-2.9719,-2.9984,-3.0129,-3.0214,-3.0214,-3.0214,-3.0214,-3.0214,-3.0214,-3.002,-2.9598,-2.9465,-3.0738,-3.3236,-3.2165,-3.432,-3.9356,-3.8325,-3.9184,-4.1457,-4.1834,-4.2108,-4.2313,-4.2707,-4.2765,-4.2765,-4.2765,-4.2957,-4.3244,-4.3244,-4.3461,-4.3922,-4.4114,-4.4112,-4.416,-4.4522,-4.4446,-4.4334,-4.471,-4.4813,-4.4864,-4.5053,-4.5104,-4.5104,-4.5104,-4.4967,-4.4676,-4.4128,-4.3837,-4.3597,-4.3221,-4.3135,-4.3135,-4.3135,-4.2981,-4.2765,-4.2765,-4.2765,-4.2765,-4.2765,-4.2765,-4.2765,-4.2765,-4.2765,-4.2765,-4.2765,-4.2765,-4.2765,-4.2765,-4.2765,-4.2765,-4.2765,-4.1866,-4.1271,-4.1271,-4.0174,-3.8209,-3.5054,-3.1794,-3.0214,-3.0214,-3.0479,-3.0539,-3.0419,-3.0552,-3.0612,0.0,0.0,0.0,0.0,0.0,-1.9652,0.0,0.0,0.0,0.0,0.0,0.0,0.0,0.0,0.0,0.0,0.0,0.0,0.0,0.0,0.0,0.0,0.0,0.0,0.0,0.0,-2.9526,-3.0165,-2.9839,-2.9779,-3.0189,-3.0214,-3.0214,-3.0214,-3.0165,-2.99,-2.9405,-2.9738,-3.1469,-3.4592,-3.3389,-3.572,-4.1166,-3.9544,-3.9868,-4.1834,-4.2159,-4.233,-4.2416,-4.2724,-4.2765,-4.2765,-4.2765,-4.3053,-4.3435,-4.3505,-4.373,-4.4105,-4.4244,-4.4229,-4.4162,-4.4522,-4.4642,-4.4693,-4.5019,-4.5104,-4.5104,-4.5104,-4.5104,-4.5104,-4.5104,-4.4813,-4.4436,-4.4077,-4.37,-4.3306,-4.285,-4.2765,-4.2765,-4.2765,-4.2765,-4.2765,-4.2765,-4.2765,-4.2765,-4.2765,-4.2765,-4.2765,-4.2765,-4.2765,-4.2765,-4.2765,-4.2765,-4.2765,-4.2765,-4.2765,-4.2669,-4.2268,-4.0675,-3.9478,-3.9089,-3.7017,-3.5153,-3.3474,-3.1352,-3.0286,-3.0286,-3.0552,-3.0576,-3.0371,-3.0419,-3.0467,0.0,0.0,0.0,0.0,-2.0207,0.0,-1.9229,0.0,-1.9193,-1.8963,0.0,0.0,0.0,0.0,0.0,0.0,0.0,0.0,0.0,0.0,0.0,0.0,0.0,0.0,0.0,0.0,0.0,-3.0069,-2.8463,-2.8222,-3.0117,-3.0214,-3.0214,-3.0214,-2.9972,-2.9707,-2.9405,-3.0894,-3.2695,-3.4592,-3.6174,-3.8429,-4.1166,-4.0981,-4.1357,-4.2227,-4.2262,-4.2484,-4.2792,-4.2748,-4.2765,-4.2765,-4.2765,-4.2861,-4.2895,-4.3317,-4.3472,-4.3592,-4.4261,-4.4419,-4.4522,-4.4916,-4.5036,-4.5053,-4.5104,-4.5104,-4.5104,-4.5104,-4.5104,-4.5104,-4.5104,-4.4813,-4.4436,-4.4077,-4.37,-4.3306,-4.285,-4.2765,-4.2765,-4.2765,-4.2765,-4.2765,-4.2765,-4.2765,-4.2765,-4.2765,-4.2765,-4.2765,-4.2765,-4.2765,-4.2765,-4.2765,-4.2765,-4.2765,-4.2765,-4.2765,-4.1963,-4.0174,-3.9867,-3.8894,-3.6918,-3.4855,-3.3673,-3.3374,-3.154,-3.0564,-3.0564,-3.0829,-3.0938,-3.0914,-3.1143,-3.1384,0.0,0.0,0.0,0.0,0.0,0.0,-1.9483,0.0,-1.8879,0.0,0.0,0.0,0.0,0.0,0.0,0.0,0.0,0.0,0.0,0.0,0.0,0.0,0.0,0.0,0.0,0.0,0.0,0.0,0.0,-2.8125,-3.0105,-3.0214,-3.0214,-3.0214,-2.9936,-2.967,-2.9405,-3.1147,-3.2844,-3.4592,-3.6637,-3.9004,-4.1474,-4.1474,-4.1902,-4.2621,-4.2621,-4.2707,-4.2765,-4.2765,-4.2765,-4.2782,-4.3101,-4.3362,-4.3572,-4.3454,-4.3878,-4.4488,-4.4519,-4.4676,-4.4899,-4.5053,-4.5104,-4.5104,-4.5104,-4.5104,-4.5104,-4.5104,-4.5104,-4.5104,-4.5104,-4.4984,-4.471,-4.4128,-4.3871,-4.358,-4.2981,-4.2765,-4.2765,-4.2765,-4.2765,-4.2765,-4.2765,-4.3032,-4.3169,-4.3169,-4.3169,-4.3101,-4.2799,-4.2765,-4.2765,-4.2765,-4.2765,-4.2765,-4.2765,-4.2765,-4.246,-4.1561,-3.9186,-3.6327,-3.2973,-3.2149,-3.1743,-3.1743,-3.1096,-3.0829,-3.0829,-3.095,-3.1071,-3.1228,-3.1179,-3.1228,-2.1619,0.0,0.0,0.0,0.0,0.0,0.0,0.0,0.0,0.0,0.0,0.0,0.0,0.0,0.0,0.0,0.0,0.0,0.0,0.0,0.0,0.0,0.0,0.0,0.0,0.0,0.0,0.0,-2.7691,0.0,-3.0081,-3.0214,-3.0214,-3.0214,-2.9876,-2.9598,-2.9405,-3.1636,-3.3317,-3.4592,-3.7301,-3.9663,-4.1697,-4.1816,-4.2227,-4.2765,-4.2765,-4.2765,-4.2765,-4.2765,-4.2816,-4.3032,-4.3306,-4.3723,-4.4205,-4.3815,-4.4188,-4.4898,-4.4707,-4.4882,-4.5104,-4.5104,-4.5104,-4.5104,-4.5104,-4.5104,-4.5104,-4.5104,-4.5104,-4.5104,-4.5104,-4.5036,-4.4796,-4.4145,-4.3906,-4.3649,-4.2902,-4.2765,-4.2765,-4.2765,-4.2765,-4.2799,-4.2998,-4.3238,-4.3375,-4.3272,-4.334,-4.3272,-4.2799,-4.2765,-4.2765,-4.2765,-4.2765,-4.2765,-4.2765,-4.2765,-4.2302,-4.1209,-3.7832,-3.4204,-3.0533,-3.0612,-3.0708,-3.0708,-3.0974,-3.1107,-3.1107,-3.1179,-3.1324,-3.1493,-3.1228,-3.1143,0.0,0.0,0.0,-2.0424,0.0,0.0,0.0,0.0,-1.97,0.0,0.0,0.0,0.0,0.0,0.0,0.0,0.0,0.0,0.0,0.0,0.0,0.0,0.0,0.0,0.0,0.0,0.0,-2.7594,-2.5687,0.0,-3.0008,-3.0214,-3.0214,-3.0214,-2.9695,-2.9417,-2.9405,-3.2844,-3.4499,-3.4686,-3.8977,-4.1337,-4.1714,-4.209,-4.2484,-4.2765,-4.2765,-4.2765,-4.2765,-4.2765,-4.3066,-4.3392,-4.3409,-4.3854,-4.4488,-4.4488,-4.4282,-4.4111,-4.4847,-4.5104,-4.5104,-4.5104,-4.5104,-4.5104,-4.5104,-4.5104,-4.5104,-4.5104,-4.5104,-4.5104,-4.5104,-4.483,-4.4453,-4.4077,-4.37,-4.3323,-4.285,-4.2765,-4.2765,-4.2765,-4.2765,-4.2868,-4.3323,-4.3392,-4.3289,-4.2833,-4.3169,-4.3272,-4.2799,-4.2765,-4.2765,-4.2765,-4.2765,-4.2765,-4.2765,-4.2765,-4.1226,-3.7362,-3.5364,-3.3317,-3.1078,-3.0986,-3.0986,-3.0986,-3.124,-3.1372,-3.1372,-3.165,-3.1783,-3.1795,-3.1505,-3.1517,0.0,0.0,-2.4782,-2.2126,0.0,0.0,0.0,0.0,0.0,0.0,0.0,0.0,0.0,0.0,0.0,0.0,0.0,0.0,0.0,0.0,0.0,0.0,0.0,0.0,0.0,0.0,0.0,-2.7365,-2.6641,-2.7292,0.0,-3.0214,-3.0214,-3.0214,-2.9682,-2.9405,-2.9405,-3.2844,-3.4592,-3.4686,-3.9086,-4.1354,-4.1714,-4.2108,-4.2501,-4.2765,-4.2765,-4.2765,-4.2782,-4.3118,-4.3289,-4.346,-4.3957,-4.4299,-4.4488,-4.4265,-4.4419,-4.4779,-4.5019,-4.5104,-4.5104,-4.5104,-4.5104,-4.5104,-4.5104,-4.5104,-4.5104,-4.5104,-4.5104,-4.5104,-4.5104,-4.5019,-4.4813,-4.4436,-4.4248,-4.3974,-4.3358,-4.3221,-4.3152,-4.2799,-4.2765,-4.2799,-4.3015,-4.3238,-4.3358,-4.3238,-4.3323,-4.3358,-4.3238,-4.3015,-4.2953,-4.3563,-4.3375,-4.3323,-4.3597,-4.3614,-4.1752,-3.7516,-3.6723,-3.4755,-3.1102,-3.1167,-3.1252,-3.1252,-3.1529,-3.1662,-3.1662,-3.1759,-3.1807,-3.1807,-3.171,-3.1722,-2.547,-2.5977,0.0,-2.3575,-2.3478,0.0,-2.0545,0.0,0.0,0.0,0.0,0.0,0.0,0.0,0.0,0.0,0.0,0.0,0.0,0.0,0.0,0.0,0.0,0.0,0.0,0.0,-2.3973,-2.7184,-2.6556,-2.7256,0.0,0.0,-3.0214,-3.0214,-3.0367,-3.0464,-3.0464,-3.3875,-3.571,-3.571,-3.9587,-4.1474,-4.1714,-4.2244,-4.2621,-4.2765,-4.2765,-4.2765,-4.2799,-4.3255,-4.3495,-4.3683,-4.4282,-4.4608,-4.471,-4.4471,-4.4693,-4.5087,-4.495,-4.5001,-4.5104,-4.5104,-4.5104,-4.5104,-4.5104,-4.5104,-4.5104,-4.5104,-4.5104,-4.5104,-4.5104,-4.5104,-4.5019,-4.4625,-4.4436,-4.4162,-4.3546,-4.2707,-4.2037,-4.1707,-4.1078,-4.0578,-4.0578,-4.0757,-4.1407,-4.2913,-4.3443,-4.3563,-4.3426,-4.3323,-4.3443,-4.394,-4.3769,-4.3407,-4.2839,-4.289,-4.1128,-3.6748,-3.6541,-3.508,-3.1393,-3.1445,-3.1541,-3.1541,-3.171,-3.1807,-3.1807,-3.1807,-3.1807,-3.1807,-3.1807,-3.1807]}]]